[[{"header":{"parameterUnit":"m.s-1","parameterCategory":1,"la1":30.6,"la2":28.766,"lo1":-90.7593,"lo2":-88.6598,"dy":0.0162,"dx":0.0183,"nx":116,"ny":114,"refTime":"2024-03-19T18:00:00:Z","depth":0,"parameterNumber":2,"parameterNumberName":"U-component_of_WINDS"},"data":[0.0,0.0,0.0,0.0,0.0,0.0,0.0,0.0,0.0,0.0,0.0,0.0,0.0,0.0,0.0,0.0,0.0,0.0,0.0,0.0,0.0,0.0,0.0,0.0,0.0,0.0,0.0,0.0,0.0,0.0,0.0,0.0,0.0,0.0,0.0,0.0,0.0,0.0,0.0,0.0,0.0,0.0,0.0,0.0,0.0,0.0,0.0,0.0,0.0,0.0,0.0,0.0,0.0,0.0,0.0,0.0,0.0,0.0,0.0,0.0,0.0,0.0,0.0,0.0,0.0,0.0,0.0,0.0,0.0,0.0,0.0,0.0,0.0,0.0,0.0,0.0,0.0,0.0,0.0,0.0,0.0,0.0,0.0,0.0,0.0,0.0,0.0,0.0,0.0,0.0,0.0,0.0,0.0,0.0,0.0,0.0,0.0,0.0,0.0,0.0,0.0,0.0,0.0,0.0,0.0,0.0,0.0,0.0,0.0,0.0,0.0,0.0,0.0,0.0,0.0,0.0,0.0,0.0,0.0,0.0,0.0,0.0,0.0,0.0,0.0,0.0,0.0,0.0,0.0,0.0,0.0,0.0,0.0,0.0,0.0,0.0,0.0,0.0,0.0,0.0,0.0,0.0,0.0,0.0,0.0,0.0,0.0,0.0,0.0,0.0,0.0,0.0,0.0,0.0,0.0,0.0,0.0,0.0,0.0,0.0,0.0,0.0,0.0,0.0,0.0,0.0,0.0,0.0,0.0,0.0,0.0,0.0,0.0,0.0,0.0,0.0,0.0,0.0,0.0,0.0,0.0,0.0,0.0,0.0,0.0,0.0,0.0,0.0,0.0,0.0,0.0,0.0,0.0,0.0,0.0,0.0,0.0,0.0,0.0,0.0,0.0,0.0,0.0,0.0,0.0,0.0,0.0,0.0,0.0,0.0,0.0,0.0,0.0,0.0,0.0,0.0,0.0,0.0,0.0,0.0,0.0,0.0,0.0,0.0,0.0,0.0,0.0,0.0,0.0,0.0,0.0,0.0,0.0,0.0,0.0,0.0,0.0,0.0,0.0,0.0,0.0,0.0,0.0,0.0,0.0,0.0,0.0,0.0,0.0,0.0,0.0,0.0,0.0,0.0,0.0,0.0,0.0,0.0,0.0,0.0,0.0,0.0,0.0,0.0,0.0,0.0,0.0,0.0,0.0,0.0,0.0,0.0,0.0,0.0,0.0,0.0,0.0,0.0,0.0,0.0,0.0,0.0,0.0,0.0,0.0,0.0,0.0,0.0,0.0,0.0,0.0,0.0,0.0,0.0,0.0,0.0,0.0,0.0,0.0,0.0,0.0,0.0,0.0,0.0,0.0,0.0,0.0,0.0,0.0,0.0,0.0,0.0,0.0,0.0,0.0,0.0,0.0,0.0,0.0,0.0,0.0,0.0,0.0,0.0,0.0,0.0,0.0,0.0,0.0,0.0,0.0,0.0,0.0,0.0,0.0,0.0,0.0,0.0,0.0,0.0,0.0,0.0,0.0,0.0,0.0,0.0,0.0,0.0,0.0,0.0,0.0,0.0,0.0,0.0,0.0,0.0,0.0,0.0,0.0,0.0,0.0,0.0,0.0,0.0,0.0,0.0,0.0,0.0,0.0,0.0,0.0,0.0,0.0,0.0,0.0,0.0,0.0,0.0,0.0,0.0,0.0,0.0,0.0,0.0,0.0,0.0,0.0,0.0,0.0,0.0,0.0,0.0,0.0,0.0,0.0,0.0,0.0,0.0,0.0,0.0,0.0,0.0,0.0,0.0,0.0,0.0,0.0,0.0,0.0,0.0,0.0,0.0,0.0,0.0,0.0,0.0,0.0,0.0,0.0,0.0,0.0,0.0,0.0,0.0,0.0,0.0,0.0,0.0,0.0,0.0,0.0,0.0,0.0,0.0,0.0,0.0,0.0,0.0,0.0,0.0,0.0,0.0,0.0,0.0,0.0,0.0,0.0,0.0,0.0,0.0,0.0,0.0,0.0,0.0,0.0,0.0,0.0,0.0,0.0,0.0,0.0,0.0,0.0,0.0,0.0,0.0,0.0,0.0,0.0,0.0,0.0,0.0,0.0,0.0,0.0,0.0,0.0,0.0,0.0,0.0,0.0,0.0,0.0,0.0,0.0,0.0,0.0,0.0,0.0,0.0,0.0,0.0,0.0,0.0,0.0,0.0,0.0,0.0,0.0,0.0,0.0,0.0,0.0,0.0,0.0,0.0,0.0,0.0,0.0,0.0,0.0,0.0,0.0,0.0,0.0,0.0,0.0,0.0,0.0,0.0,0.0,0.0,0.0,0.0,0.0,0.0,0.0,0.0,0.0,0.0,0.0,0.0,0.0,0.0,0.0,0.0,0.0,0.0,0.0,0.0,0.0,0.0,0.0,0.0,0.0,0.0,0.0,0.0,0.0,0.0,0.0,0.0,0.0,0.0,0.0,0.0,0.0,0.0,0.0,0.0,0.0,0.0,0.0,0.0,0.0,0.0,0.0,0.0,0.0,0.0,0.0,0.0,0.0,0.0,0.0,0.0,0.0,0.0,0.0,0.0,0.0,0.0,0.0,0.0,0.0,0.0,0.0,0.0,0.0,0.0,0.0,0.0,0.0,0.0,0.0,0.0,0.0,0.0,0.0,0.0,0.0,0.0,0.0,0.0,0.0,0.0,0.0,0.0,0.0,0.0,0.0,0.0,0.0,0.0,0.0,0.0,0.0,0.0,0.0,0.0,0.0,0.0,0.0,0.0,0.0,0.0,0.0,0.0,0.0,0.0,0.0,0.0,0.0,0.0,0.0,0.0,0.0,0.0,0.0,0.0,0.0,0.0,0.0,0.0,0.0,0.0,0.0,0.0,0.0,0.0,0.0,0.0,0.0,0.0,0.0,0.0,0.0,0.0,0.0,0.0,0.0,0.0,0.0,0.0,0.0,0.0,0.0,0.0,0.0,0.0,0.0,0.0,0.0,0.0,0.0,0.0,0.0,0.0,0.0,0.0,0.0,0.0,0.0,0.0,0.0,0.0,0.0,0.0,0.0,0.0,0.0,0.0,0.0,0.0,0.0,0.0,0.0,0.0,0.0,0.0,0.0,0.0,0.0,0.0,0.0,0.0,0.0,0.0,0.0,0.0,0.0,0.0,0.0,0.0,0.0,0.0,0.0,0.0,0.0,0.0,0.0,0.0,0.0,0.0,0.0,0.0,0.0,0.0,0.0,0.0,0.0,0.0,0.0,0.0,0.0,0.0,0.0,0.0,0.0,0.0,0.0,0.0,0.0,0.0,0.0,0.0,0.0,0.0,0.0,0.0,0.0,0.0,0.0,0.0,0.0,0.0,0.0,0.0,0.0,0.0,0.0,0.0,0.0,0.0,0.0,0.0,0.0,0.0,0.0,0.0,0.0,0.0,0.0,0.0,0.0,0.0,0.0,0.0,0.0,0.0,0.0,0.0,0.0,0.0,0.0,0.0,0.0,0.0,0.0,0.0,0.0,0.0,0.0,0.0,0.0,0.0,0.0,0.0,0.0,0.0,0.0,0.0,0.0,0.0,0.0,0.0,0.0,0.0,0.0,0.0,0.0,0.0,0.0,0.0,0.0,0.0,0.0,0.0,0.0,0.0,0.0,0.0,0.0,0.0,0.0,0.0,0.0,0.0,0.0,0.0,0.0,0.0,0.0,0.0,0.0,0.0,0.0,0.0,0.0,0.0,0.0,0.0,0.0,0.0,0.0,0.0,0.0,0.0,0.0,0.0,0.0,0.0,0.0,0.0,0.0,0.0,0.0,0.0,0.0,0.0,0.0,0.0,0.0,0.0,0.0,0.0,0.0,0.0,0.0,0.0,0.0,0.0,0.0,0.0,0.0,0.0,0.0,0.0,0.0,0.0,0.0,0.0,0.0,0.0,0.0,0.0,0.0,0.0,0.0,0.0,0.0,0.0,0.0,0.0,0.0,0.0,0.0,0.0,0.0,0.0,0.0,0.0,0.0,0.0,0.0,0.0,0.0,0.0,0.0,0.0,0.0,0.0,0.0,0.0,0.0,0.0,0.0,0.0,0.0,0.0,0.0,0.0,0.0,0.0,0.0,0.0,0.0,0.0,0.0,0.0,0.0,0.0,0.0,0.0,0.0,0.0,0.0,0.0,0.0,0.0,0.0,0.0,0.0,0.0,0.0,0.0,0.0,0.0,0.0,0.0,0.0,0.0,0.0,0.0,0.0,0.0,0.0,0.0,0.0,0.0,0.0,0.0,0.0,0.0,0.0,0.0,0.0,0.0,0.0,0.0,0.0,0.0,0.0,0.0,0.0,0.0,0.0,0.0,0.0,0.0,0.0,0.0,0.0,0.0,0.0,0.0,0.0,0.0,0.0,0.0,0.0,0.0,0.0,0.0,0.0,0.0,0.0,0.0,0.0,0.0,0.0,0.0,0.0,0.0,0.0,0.0,0.0,0.0,0.0,0.0,0.0,0.0,0.0,0.0,0.0,0.0,0.0,0.0,0.0,0.0,0.0,0.0,0.0,0.0,0.0,0.0,0.0,0.0,0.0,0.0,0.0,0.0,0.0,0.0,0.0,0.0,0.0,0.0,0.0,0.0,0.0,0.0,0.0,0.0,0.0,0.0,0.0,0.0,0.0,0.0,0.0,0.0,0.0,0.0,0.0,0.0,0.0,0.0,0.0,0.0,0.0,0.0,0.0,0.0,0.0,0.0,0.0,0.0,0.0,0.0,0.0,0.0,0.0,0.0,0.0,0.0,0.0,0.0,0.0,0.0,0.0,0.0,0.0,0.0,0.0,0.0,0.0,0.0,0.0,0.0,0.0,0.0,0.0,0.0,0.0,0.0,0.0,0.0,0.0,0.0,0.0,0.0,0.0,0.0,0.0,0.0,0.0,0.0,0.0,0.0,0.0,0.0,0.0,0.0,0.0,0.0,0.0,0.0,0.0,0.0,0.0,0.0,0.0,0.0,0.0,0.0,0.0,0.0,0.0,0.0,0.0,0.0,0.0,0.0,0.0,0.0,0.0,0.0,0.0,0.0,0.0,0.0,0.0,0.0,0.0,0.0,0.0,0.0,0.0,0.0,0.0,0.0,0.0,0.0,0.0,0.0,0.0,0.0,0.0,0.0,0.0,0.0,0.0,0.0,0.0,0.0,0.0,0.0,0.0,0.0,0.0,0.0,0.0,0.0,0.0,0.0,0.0,0.0,0.0,0.0,0.0,0.0,0.0,0.0,0.0,0.0,0.0,0.0,0.0,0.0,0.0,0.0,0.0,0.0,0.0,0.0,0.0,0.0,0.0,0.0,0.0,0.0,0.0,0.0,0.0,0.0,0.0,0.0,0.0,0.0,0.0,0.0,0.0,0.0,0.0,0.0,0.0,0.0,0.0,0.0,0.0,0.0,0.0,0.0,0.0,0.0,0.0,0.0,0.0,0.0,0.0,0.0,0.0,0.0,0.0,0.0,0.0,0.0,0.0,0.0,0.0,0.0,0.0,0.0,0.0,0.0,0.0,0.0,0.0,0.0,0.0,0.0,0.0,0.0,0.0,0.0,0.0,0.0,0.0,0.0,0.0,0.0,0.0,0.0,0.0,0.0,0.0,0.0,0.0,0.0,0.0,0.0,0.0,0.0,0.0,0.0,0.0,0.0,0.0,0.0,0.0,0.0,0.0,0.0,0.0,0.0,0.0,0.0,0.0,0.0,0.0,0.0,0.0,0.0,0.0,0.0,0.0,0.0,0.0,0.0,0.0,0.0,0.0,0.0,0.0,0.0,0.0,0.0,0.0,0.0,0.0,0.0,0.0,0.0,0.0,0.0,0.0,0.0,0.0,0.0,0.0,0.0,0.0,0.0,0.0,0.0,0.0,0.0,0.0,0.0,0.0,0.0,0.0,0.0,0.0,0.0,0.0,0.0,0.0,0.0,0.0,0.0,0.0,0.0,0.0,0.0,0.0,0.0,0.0,0.0,0.0,0.0,0.0,0.0,0.0,0.0,0.0,0.0,0.0,0.0,0.0,0.0,0.0,0.0,0.0,0.0,0.0,0.0,0.0,0.0,0.0,0.0,0.0,0.0,0.0,0.0,0.0,0.0,0.0,0.0,-1.9043,-1.6481,0.0,0.0,0.0,0.0,0.0,0.0,0.0,0.0,0.0,0.0,0.0,0.0,0.0,0.0,0.0,0.0,0.0,0.0,0.0,0.0,0.0,0.0,0.0,0.0,0.0,0.0,0.0,0.0,0.0,0.0,0.0,0.0,0.0,0.0,-0.9702,-0.971,-0.9924,-1.0378,-1.1574,-1.3149,-1.5005,-1.3908,-1.2771,-1.1557,0.0,0.0,0.0,0.0,0.0,0.0,0.0,0.0,0.0,0.0,0.0,0.0,0.0,0.0,0.0,0.0,0.0,0.0,0.0,0.0,0.0,0.0,0.0,0.0,0.0,0.0,0.0,0.0,0.0,0.0,0.0,0.0,0.0,0.0,0.0,0.0,0.0,0.0,0.0,0.0,0.0,0.0,0.0,0.0,0.0,0.0,0.0,0.0,0.0,0.0,0.0,0.0,0.0,0.0,0.0,0.0,0.0,0.0,0.0,0.0,0.0,0.0,0.0,0.0,0.0,0.0,0.0,0.0,0.0,0.0,-2.0814,-1.9002,0.0,0.0,0.0,0.0,0.0,0.0,0.0,0.0,0.0,0.0,0.0,0.0,0.0,0.0,0.0,0.0,0.0,0.0,0.0,0.0,0.0,0.0,0.0,-1.0111,-1.0247,-1.0415,-1.0157,-0.9945,-0.992,-0.9664,-0.9553,-0.9605,-0.9619,-0.9665,-0.9724,-0.9731,-1.0298,-1.1434,-1.3594,-1.6257,-1.9347,-1.8679,-1.7592,0.0,0.0,0.0,0.0,0.0,0.0,0.0,0.0,0.0,0.0,0.0,0.0,0.0,0.0,0.0,0.0,0.0,0.0,0.0,0.0,0.0,0.0,0.0,0.0,0.0,0.0,0.0,0.0,0.0,0.0,0.0,0.0,0.0,0.0,0.0,0.0,0.0,0.0,0.0,0.0,0.0,0.0,0.0,0.0,0.0,0.0,0.0,0.0,0.0,0.0,0.0,0.0,0.0,0.0,0.0,0.0,0.0,0.0,0.0,0.0,0.0,0.0,0.0,0.0,0.0,-2.4049,-2.4425,-2.5439,-2.4538,-2.4942,-2.6168,-2.2719,-2.2039,-2.31,-1.9571,0.0,0.0,0.0,0.0,0.0,0.0,0.0,0.0,0.0,0.0,0.0,0.0,0.0,0.0,0.0,0.0,0.0,0.0,0.0,0.0,0.0,-1.1196,-1.1469,-1.2114,-1.1453,-1.0934,-1.074,-1.0071,-0.9652,-0.9613,-0.971,-0.9777,-0.9793,-0.985,-1.096,-1.316,-1.7467,-2.1235,-2.4392,-2.283,-2.3045,-2.4522,-1.8635,0.0,0.0,0.0,0.0,0.0,0.0,0.0,0.0,0.0,0.0,0.0,0.0,0.0,0.0,0.0,0.0,0.0,0.0,0.0,0.0,0.0,0.0,0.0,0.0,0.0,0.0,0.0,0.0,0.0,0.0,0.0,0.0,0.0,0.0,0.0,0.0,0.0,0.0,0.0,0.0,0.0,0.0,0.0,-2.3208,-2.3294,0.0,0.0,0.0,0.0,0.0,0.0,0.0,0.0,0.0,0.0,0.0,0.0,0.0,-2.5164,-2.6158,-2.8151,-2.8881,-2.83,-2.9448,-2.9786,-2.9347,-2.8586,-2.8704,-2.9414,-2.7553,0.0,-2.394,-2.2199,0.0,0.0,0.0,0.0,0.0,0.0,0.0,0.0,0.0,0.0,0.0,0.0,0.0,0.0,0.0,0.0,0.0,0.0,0.0,0.0,0.0,-1.328,-1.4261,-1.6052,-1.6656,-1.5868,-1.338,-1.3296,-1.2266,-0.9809,-0.9773,-0.9807,-0.985,-1.1177,-1.394,-1.8163,-2.0664,-2.3566,-2.6722,-2.5739,-2.5869,-2.6758,-2.341,-1.9645,-1.5826,-1.597,0.0,0.0,0.0,0.0,0.0,0.0,0.0,0.0,0.0,0.0,0.0,0.0,0.0,0.0,0.0,0.0,0.0,0.0,0.0,0.0,0.0,0.0,0.0,0.0,0.0,0.0,0.0,0.0,0.0,0.0,0.0,0.0,0.0,0.0,0.0,0.0,0.0,0.0,0.0,-2.1713,-2.3518,-2.2547,-2.2766,-2.1985,0.0,0.0,0.0,0.0,0.0,0.0,0.0,0.0,0.0,-2.7762,-2.8329,-2.9161,-3.0368,-3.144,-3.1805,-3.1478,-3.2138,-3.2053,-3.1326,-3.0987,-3.0565,-3.004,-2.8958,-2.7637,-2.6051,-2.3653,-2.1482,-1.9514,0.0,0.0,0.0,0.0,-1.7357,-1.714,0.0,0.0,0.0,0.0,0.0,0.0,0.0,0.0,0.0,0.0,0.0,0.0,-1.4443,-1.5813,-1.7482,-1.9866,-2.0925,-1.9983,-1.6537,-1.6244,-1.4774,-1.157,-1.0854,-1.0728,-1.1143,-1.3644,-1.7198,-2.1803,-2.3015,-2.5052,-2.7787,-2.7287,-2.7447,-2.8088,-2.6757,-2.4295,-2.108,-1.9908,-1.7774,0.0,0.0,0.0,0.0,0.0,0.0,0.0,0.0,0.0,0.0,0.0,0.0,0.0,0.0,0.0,0.0,0.0,0.0,0.0,0.0,0.0,0.0,0.0,0.0,0.0,0.0,0.0,0.0,0.0,0.0,0.0,0.0,0.0,0.0,0.0,0.0,0.0,0.0,-2.3184,-2.522,-2.2828,-2.5133,-2.5208,0.0,0.0,0.0,0.0,0.0,0.0,-2.7694,-2.8658,-3.0067,-3.2098,-3.2559,-3.3125,-3.3946,-3.4117,-3.399,-3.3677,-3.3491,-3.3,-3.2273,-3.2087,-3.1309,-3.0074,-2.9313,-2.8535,-2.757,-2.4656,-2.2668,-2.1317,-1.9671,-1.8583,-1.807,-1.9127,-1.9122,-1.8827,0.0,0.0,0.0,0.0,0.0,0.0,0.0,0.0,0.0,0.0,0.0,-1.3575,-1.6191,-1.8671,-2.0824,-2.2555,-2.2016,-2.1101,-1.9912,-1.757,-1.6103,-1.5893,-1.3678,-1.3123,-1.4512,-1.7547,-1.9994,-2.1803,-2.4154,-2.6135,-2.7769,-2.6995,-2.8007,-3.0325,-2.7724,-2.6248,-2.5526,-2.3116,-2.0289,-1.7227,0.0,0.0,0.0,0.0,0.0,0.0,0.0,0.0,0.0,0.0,0.0,0.0,0.0,0.0,0.0,0.0,0.0,0.0,0.0,0.0,0.0,0.0,0.0,0.0,0.0,0.0,0.0,0.0,0.0,0.0,0.0,0.0,0.0,0.0,0.0,0.0,0.0,0.0,0.0,-2.6638,-3.1876,0.0,0.0,0.0,0.0,-2.6563,-2.7306,-2.9074,-3.1936,-3.2867,-3.4236,-3.6327,-3.7156,-3.7129,-3.6243,-3.6253,-3.5658,-3.4438,-3.3728,-3.3,-3.2256,-3.1562,-3.0835,-3.0074,-2.9313,-2.8535,-2.7603,-2.5372,-2.3846,-2.2825,-2.1356,-2.0202,-1.9394,-1.9556,-1.9578,-1.9561,0.0,0.0,0.0,0.0,0.0,0.0,0.0,0.0,-1.0541,-1.1664,-1.2777,-1.5138,-1.9464,-2.1679,-2.4016,-2.6899,-2.7293,-2.6061,-2.2945,-2.1294,-1.8981,-1.5697,-1.5223,-1.6214,-1.873,-1.9179,-2.0952,-2.4117,-2.498,-2.5952,-2.7034,-2.7096,-2.7632,-2.8456,-2.6747,-2.5765,-2.5394,-2.4164,-2.2117,-1.9537,-1.7276,-1.4912,0.0,0.0,0.0,0.0,0.0,0.0,0.0,0.0,0.0,0.0,0.0,0.0,0.0,0.0,0.0,0.0,0.0,0.0,0.0,0.0,0.0,0.0,0.0,0.0,0.0,0.0,0.0,0.0,0.0,0.0,0.0,0.0,0.0,0.0,0.0,0.0,0.0,-2.9243,-3.391,0.0,-3.0089,-3.1508,-3.2464,-3.1738,-3.3896,-3.5799,-3.7154,-3.7509,-3.7979,-3.8743,-3.7899,-3.7285,-3.6921,-3.6207,-3.5392,-3.4489,-3.4218,-3.3457,-3.2256,-3.1529,-3.0531,-2.9347,-2.8569,-2.7537,-2.6302,-2.5017,-2.4292,-2.3894,-2.2899,-2.2017,-2.1334,-2.1509,-2.1408,-2.1112,0.0,0.0,0.0,0.0,0.0,0.0,0.0,0.0,-1.0682,-1.2438,-1.3879,-1.6633,-2.162,-2.3898,-2.6226,-2.9189,-2.9631,-2.831,-2.4866,-2.2976,-2.0357,-1.6691,-1.6898,-1.8193,-2.0502,-2.0593,-2.204,-2.5017,-2.5017,-2.5273,-2.5805,-2.6158,-2.6323,-2.6282,-2.5319,-2.4622,-2.4199,-2.3935,-2.2877,-2.12,-1.9219,-1.7103,-1.4936,0.0,0.0,0.0,0.0,0.0,0.0,0.0,0.0,0.0,0.0,0.0,0.0,0.0,0.0,0.0,0.0,0.0,0.0,0.0,0.0,0.0,0.0,0.0,0.0,0.0,0.0,0.0,0.0,0.0,0.0,0.0,0.0,0.0,0.0,-3.0484,-3.3978,-3.1346,-3.637,-3.8243,-3.3604,-3.593,-3.7414,-3.6637,-3.8552,-3.9946,-4.0281,-4.0047,-3.99,-3.99,-3.8719,-3.79,-3.7433,-3.6484,-3.5432,-3.4396,-3.414,-3.3131,-3.1529,-3.1055,-3.0006,-2.8552,-2.7774,-2.6742,-2.5541,-2.478,-2.4371,-2.4052,-2.3308,-2.2733,-2.2304,-2.2155,-2.194,-2.1595,0.0,0.0,0.0,0.0,0.0,0.0,0.0,-1.008,-1.0641,-1.2443,-1.4859,-1.81,-2.2468,-2.5176,-2.7381,-2.91,-2.8476,-2.7258,-2.5542,-2.2226,-1.9963,-1.9132,-1.8716,-1.8918,-1.9807,-2.1898,-2.3364,-2.4172,-2.4171,-2.4153,-2.4135,-2.4171,-2.4169,-2.4125,-2.3684,-2.3046,-2.2298,-2.2548,-2.252,-2.2147,-2.0495,-1.901,-1.7507,0.0,0.0,0.0,0.0,0.0,0.0,0.0,0.0,0.0,0.0,0.0,0.0,0.0,0.0,0.0,0.0,0.0,0.0,0.0,0.0,0.0,0.0,0.0,0.0,0.0,0.0,0.0,0.0,0.0,0.0,0.0,0.0,0.0,-2.8622,-3.299,-3.5814,-3.331,-3.9717,-4.2357,-3.7283,-4.0649,-4.2488,-4.0925,-4.0906,-4.0982,-4.1121,-4.0341,-3.99,-3.99,-3.9845,-3.9163,-3.7875,-3.7048,-3.5794,-3.415,-3.3367,-3.1981,-3.0108,-3.0091,-2.9228,-2.7705,-2.6996,-2.6234,-2.549,-2.4746,-2.4019,-2.3291,-2.2615,-2.2327,-2.2209,-2.1323,-2.0991,-2.0862,0.0,0.0,0.0,0.0,0.0,0.0,0.0,-1.0013,-1.0973,-1.3891,-1.5893,-1.8754,-2.3203,-2.5354,-2.7016,-2.8326,-2.6546,-2.4883,-2.3828,-2.0503,-1.8718,-1.9006,-1.8824,-1.996,-2.2612,-2.2406,-2.2687,-2.3555,-2.34,-2.3033,-2.2501,-2.3656,-2.3786,-2.3052,-2.3223,-2.265,-2.1574,-2.1593,-2.1895,-2.2226,-2.1235,-2.0178,-1.9043,0.0,0.0,0.0,0.0,0.0,0.0,0.0,0.0,0.0,0.0,0.0,0.0,0.0,0.0,0.0,0.0,0.0,0.0,0.0,0.0,0.0,0.0,0.0,0.0,0.0,0.0,0.0,0.0,0.0,0.0,0.0,-3.1829,-3.5834,-3.2827,-3.6474,-3.9631,-4.0191,-4.3203,-4.422,-4.1569,-4.2915,-4.3194,-4.1292,-4.1548,-4.1687,-4.1486,-4.0462,-3.99,-3.99,-3.8405,-3.7398,-3.703,-3.5845,-3.4605,-3.3332,-3.3107,-3.1981,-3.0091,-2.955,-2.845,-2.6962,-2.6218,-2.5186,-2.3985,-2.3782,-2.3274,-2.2649,-2.297,-2.2784,-2.2237,-2.1628,-2.1039,-2.0353,0.0,0.0,0.0,0.0,0.0,0.0,0.0,-0.9925,-1.0986,-1.4261,-1.6027,-1.8676,-2.3157,-2.4171,-2.5022,-2.6236,-2.3736,-2.1741,-2.0972,-1.8378,0.0,0.0,0.0,-2.0031,-2.265,-2.2234,-2.2247,-2.2747,-2.257,-2.2371,-2.2145,-2.2145,-2.2182,-2.2221,-2.146,-2.0943,-2.067,-2.0695,-2.0861,-2.1088,-2.0653,-2.0629,-2.0673,-1.9169,-1.8241,-1.7441,-1.4877,-1.4255,-1.4217,-1.129,0.0,0.0,0.0,0.0,0.0,0.0,0.0,0.0,0.0,0.0,0.0,0.0,0.0,0.0,0.0,0.0,0.0,0.0,0.0,0.0,0.0,0.0,0.0,0.0,-3.4193,-3.8334,-3.7011,-3.9003,-4.1215,-4.2909,-4.3951,-4.4162,-4.3181,-4.3528,-4.3232,-4.1893,-4.1781,-4.1561,-4.1073,-4.01,-3.9368,-3.8921,-3.7671,-3.6871,-3.6544,-3.5389,-3.4416,-3.3582,-3.2895,-3.1655,-2.9862,-2.8767,-2.7521,-2.6184,-2.5135,-2.4188,-2.3376,-2.3071,-2.2699,-2.2344,0.0,0.0,0.0,0.0,-2.0051,-1.9134,0.0,0.0,0.0,0.0,0.0,0.0,0.0,-0.9819,-1.0785,-1.382,-1.5468,-1.7943,-2.2144,-2.2088,-2.219,-2.3323,-2.0504,-1.8324,-1.7493,-1.6249,0.0,-1.6482,-1.8011,-1.9498,-2.0927,-2.1384,-2.1611,-2.1611,-2.1461,-2.1613,-2.2004,-1.9918,-1.9721,-2.1009,-1.8963,-1.8595,-1.951,-1.9593,-1.9496,-1.9244,-1.926,-2.0383,-2.1883,-2.0388,-1.9867,-1.9605,-1.7013,-1.67,-1.6972,-1.3528,0.0,0.0,0.0,0.0,0.0,0.0,0.0,0.0,0.0,0.0,0.0,0.0,0.0,0.0,0.0,0.0,0.0,0.0,0.0,0.0,0.0,0.0,0.0,0.0,-3.6317,-4.0565,-4.0535,-4.0642,-4.1313,-4.2906,-4.3104,-4.3066,-4.297,-4.2951,-4.2769,-4.2296,-4.1589,-4.0865,-4.0184,-3.9386,0.0,0.0,0.0,-3.6872,-3.6156,-3.522,-3.4527,-3.4104,-3.2606,-3.1052,-2.9482,-2.8007,-2.673,-2.5516,-2.4075,-2.3401,-2.3265,-2.2564,-2.231,-2.2293,-2.2226,-2.1886,-2.1308,-1.9878,-1.8667,-1.7779,0.0,0.0,0.0,0.0,0.0,0.0,0.0,-0.9706,-1.0457,-1.2801,-1.4431,-1.6265,-1.868,-2.0025,-2.0685,-2.0448,-1.8165,-1.6157,-1.4753,0.0,-1.6433,-1.6576,-1.8149,-1.9162,-1.9415,-1.9263,-1.9211,-1.9254,-1.8966,-1.875,-1.8619,-1.7321,-1.6791,-1.6872,-1.6958,-1.7216,-1.7609,-1.742,-1.7507,-1.7789,-1.7757,-1.8821,-2.04,-2.0094,-2.0307,-2.0779,-2.0895,-2.0796,-2.0524,-2.024,-2.0111,-2.0166,-2.0365,0.0,0.0,0.0,0.0,0.0,0.0,0.0,0.0,0.0,0.0,0.0,0.0,0.0,0.0,0.0,0.0,0.0,0.0,0.0,0.0,-3.3165,-3.7082,-4.0084,-4.0654,-4.0751,-4.1352,-4.2922,-4.3104,-4.2816,-4.2124,-4.2047,-4.1742,-4.0943,-4.0539,-3.9965,-3.9121,-3.8488,-3.775,-3.6883,-3.5966,-3.5422,-3.5247,-3.3807,-3.2867,-3.2462,-3.1495,0.0,-2.9074,-2.8129,-2.6905,-2.5462,-2.4289,-2.3453,-2.2806,-2.2439,-2.231,-2.2243,-2.1634,-2.1172,-2.0656,-1.9431,-1.8698,-1.813,0.0,0.0,0.0,0.0,0.0,0.0,0.0,-0.931,-1.001,-1.1738,-1.286,-1.4185,-1.5995,-1.6644,-1.6935,-1.6898,-1.5235,-1.3925,0.0,-1.4887,-1.6069,-1.6581,-1.7796,-1.844,-1.841,-1.8143,-1.7974,-1.7952,-1.7702,-1.7488,-1.7285,-1.6237,-1.5017,-1.376,-1.5001,-1.5641,-1.5811,-1.5754,-1.5697,-1.5591,-1.5567,-1.6097,-1.7075,-1.8605,-1.9762,-2.0557,-2.0687,-2.0715,-2.0803,-2.1769,-2.2177,-2.2306,-2.2314,-2.2741,-2.2124,0.0,0.0,0.0,0.0,0.0,0.0,0.0,0.0,0.0,0.0,0.0,0.0,0.0,0.0,-2.1714,-1.9122,0.0,-3.3418,-3.7103,-3.9188,-4.0452,-4.0758,-4.0801,-4.1063,-4.1709,-4.1797,-4.147,-4.0623,-4.0912,-4.0796,-3.995,-3.9778,-3.9447,-3.8823,-3.798,-3.7074,-3.6112,-3.5006,-3.4229,-3.378,-3.2596,-3.1887,-3.1692,-3.0883,-3.0062,-2.9247,-2.7665,-2.6427,-2.5411,-2.3946,-2.3076,-2.2669,-2.2398,-2.231,-2.2192,-2.1042,-2.0261,-1.9658,-1.8508,-1.7675,-1.7013,0.0,0.0,0.0,0.0,0.0,0.0,0.0,-0.8928,-0.9477,-1.0736,-1.1371,-1.2256,-1.3633,-1.3395,-1.3206,-1.3387,-1.2583,0.0,0.0,-1.4183,-1.549,-1.6523,-1.7027,-1.719,-1.7045,-1.6694,-1.655,-1.6583,-1.6436,-1.6274,-1.6061,-1.5441,-1.3908,-1.1703,-1.3361,-1.4069,-1.4048,-1.4152,-1.379,-1.3207,-1.3342,-1.3315,-1.3485,-1.601,-1.7989,-1.9257,-1.8355,-1.8419,-1.9093,-2.0355,-2.1418,-2.227,-2.2567,-2.3388,-2.35,-1.9847,-1.9193,0.0,0.0,0.0,0.0,0.0,0.0,0.0,0.0,-1.8314,-1.801,-2.1987,-2.4018,-2.3876,-1.9922,-2.705,-3.5212,-4.0318,-4.106,-4.0906,-4.063,-4.059,-4.0459,-4.0113,-4.0207,-4.0009,-3.9185,-3.9658,-3.976,-3.9124,-3.9056,-3.8853,-3.842,-3.7318,-3.6239,-3.5207,-3.4025,-3.3096,-3.2452,-3.1593,-3.1164,-3.1146,-3.0191,-2.9576,-2.9174,-2.697,-2.5798,-2.5383,-2.3568,-2.2772,-2.2669,-2.2398,-2.231,-2.2158,-2.0593,-1.9615,-1.8937,-1.7672,-1.6653,-1.5885,0.0,0.0,0.0,0.0,0.0,0.0,0.0,0.0,-0.8842,-1.0044,-1.0737,-1.1124,-1.1216,-1.1773,-1.1736,-1.0654,0.0,0.0,-1.3142,-1.4235,-1.5314,-1.6383,-1.5766,-1.5078,-1.4342,-1.3504,-1.3379,-1.4003,-1.3878,-1.3561,-1.3104,-1.3943,-1.3302,-1.1485,-1.2523,-1.2748,-1.2352,-1.207,-1.1615,-1.1094,-1.1689,-1.1612,-1.118,-1.1721,-1.3976,-1.6561,-1.4572,-1.4513,-1.553,-1.6516,-1.9109,-2.2175,-2.3566,-2.4082,-2.4109,-2.3593,0.0,-1.6863,-1.6874,-1.6675,-1.7202,-2.028,-1.9959,-1.9891,0.0,-2.3731,-2.4395,-2.9921,-3.2025,-3.2973,-3.3426,-3.5762,-3.8355,-4.0574,-4.0971,-4.0718,-3.9927,-3.9813,-3.9511,-3.8661,-3.9235,-3.9371,-3.8508,-3.8393,-3.8326,-3.8249,-3.8169,-3.7781,-3.6983,-3.5914,-3.492,-3.401,-3.2702,-3.1991,-3.1898,-3.0867,-3.0338,-3.032,-2.8778,-2.804,-2.7944,-2.624,-2.5452,-2.5335,-2.3812,-2.2972,-2.2669,-2.2398,-2.231,-2.2158,-2.0593,-1.9762,-1.9219,-1.7486,-1.6606,-1.6191,0.0,0.0,0.0,0.0,0.0,0.0,0.0,0.0,0.0,-0.7967,-0.8122,-0.8169,-0.8076,-0.8637,-0.8952,-0.8779,0.0,0.0,-1.1108,-1.2571,-1.3719,-1.4398,-1.4106,-1.3872,-1.3726,-1.2996,-1.2983,-1.3721,-1.3459,-1.3391,-1.347,-1.3397,-1.2386,-1.0622,-1.1281,-1.1101,-1.0291,-1.0214,-0.9941,-0.9539,-0.9593,-0.9325,-0.894,-0.8856,-1.0149,-1.2043,-1.2455,-1.1576,0.0,0.0,-1.578,-1.9075,-2.1912,-2.2116,-2.0771,-1.7844,-1.7294,0.0,-1.8601,-1.8678,-1.9034,-2.1104,-2.1472,-2.1948,-2.4313,-2.4817,-2.5858,-2.964,-3.283,-3.5065,-3.5535,-3.68,-3.8001,-3.8739,-3.9204,-3.9354,-3.8983,-3.8573,-3.7977,-3.7061,-3.6843,-3.6957,-3.7493,-3.7944,-3.7987,-3.745,-3.6899,-3.644,-3.6026,-3.4473,-3.341,-3.3048,-3.1336,-3.0621,-3.1105,-2.9119,-2.8576,-2.9494,-2.7879,-2.7346,-2.775,-2.6137,-2.5047,-2.4369,-2.3754,-2.3189,-2.2695,-2.2573,-2.2436,-2.213,-2.0391,-1.9615,-1.9273,-1.7484,-1.6581,-1.6184,0.0,0.0,0.0,0.0,0.0,0.0,0.0,0.0,0.0,0.0,-0.6331,-0.6135,-0.5933,-0.622,-0.6614,0.0,0.0,0.0,0.0,-1.0228,-1.1282,-1.1913,-1.1857,-1.1992,-1.2373,-1.1917,-1.2109,-1.2965,-1.2884,-1.3242,-1.4028,-1.341,-1.1378,-0.8297,-0.893,-0.8682,-0.7823,-0.7949,-0.7787,-0.7488,-0.7816,-0.7453,-0.6677,-0.6529,-0.7321,-0.8696,-1.0148,-0.8912,0.0,0.0,-1.2024,-1.4831,-1.8605,-1.8174,-1.5755,-1.3032,-1.4783,-1.7799,-1.8935,-1.9605,-2.0318,-2.1728,-2.2742,-2.3695,-2.4824,-2.5503,-2.6476,-2.8573,-3.1508,-3.3837,-3.429,-3.5299,-3.6267,-3.6802,-3.7507,-3.7917,-3.7702,-3.7223,-3.6476,-3.5363,-3.4679,-3.4726,-3.5848,-3.6537,-3.665,-3.5957,-3.53,-3.4893,-3.4821,-3.321,-3.2307,-3.2282,-3.0294,-2.9514,-3.0095,-2.7842,-2.7269,-2.839,-2.6946,-2.6576,-2.709,-2.5695,-2.4622,-2.3816,-2.3649,-2.33,-2.2822,-2.266,-2.2371,-2.1843,-2.0264,-1.9472,-1.9009,-1.7378,-1.6581,-1.6154,0.0,0.0,0.0,0.0,0.0,0.0,0.0,0.0,0.0,0.0,0.0,0.0,0.0,-0.5315,-0.5291,0.0,0.0,0.0,0.0,-0.7394,-0.8023,-0.9274,-0.8818,-0.8805,-0.9322,-0.9198,-0.9703,-1.0884,-1.1409,-1.2439,-1.3916,-1.3879,-1.0302,-0.3934,-0.5,-0.5239,-0.483,-0.4968,-0.4746,-0.4533,-0.6729,-0.6318,-0.4416,-0.46,-0.5934,-0.7657,-0.7067,0.0,0.0,0.0,-0.7975,-0.9774,-1.3535,-1.1925,0.0,-1.2423,-1.4227,-1.5545,-1.7149,-1.8338,-1.9776,-2.2405,-2.3708,-2.4785,-2.6451,-2.6835,-2.7266,-2.8705,-2.9117,-2.9671,-3.1235,-3.2182,-3.3382,-3.5329,-3.6377,-3.6696,-3.5989,-3.5866,-3.5204,-3.349,-3.3256,-3.3256,-3.3301,-3.3398,-3.3434,-3.3415,-3.3315,-3.3227,-3.3074,-3.228,-3.1786,-3.1737,-2.983,-2.8822,-2.8841,-2.7561,-2.6935,-2.6935,-2.5926,-2.5458,-2.5439,-2.4612,-2.4226,-2.4151,-2.35,-2.3189,-2.3159,-2.2544,-2.187,-2.117,-2.0306,-1.9344,-1.8308,-1.72,-1.6581,-1.6154,0.0,0.0,0.0,0.0,0.0,0.0,0.0,0.0,0.0,0.0,0.0,0.0,0.0,0.0,0.0,0.0,0.0,0.0,0.0,-0.5374,-0.5796,-0.6017,-0.5578,-0.5349,-0.5351,-0.4346,-0.4221,-0.5034,-0.476,-0.4853,-0.5265,-0.4685,-0.2869,-0.0123,-0.0066,-0.0024,0.0025,0.0053,-0.0135,-0.0564,-0.1455,-0.166,-0.1375,-0.14,-0.2506,-0.4055,0.0,0.0,0.0,-0.6813,-0.7441,-0.8166,-1.0765,-1.1621,-1.2082,-1.4077,-1.5724,-1.7266,-1.9027,-2.0182,-2.1395,-2.3455,-2.4588,-2.5496,-2.664,-2.6734,-2.6718,-2.7219,-2.7281,-2.74,-2.7962,-2.8746,-2.9882,-3.1661,-3.2725,-3.3409,-3.3702,-3.3333,-3.2812,-3.2202,-3.1639,-3.1282,-3.1282,-3.2498,-3.3281,-3.3236,-3.2723,-3.2357,-3.2264,-3.0916,-3.0102,-3.0037,-2.8198,-2.7445,-2.794,-2.6329,-2.604,-2.7076,-2.6079,-2.5319,-2.4782,-2.4376,-2.419,-2.417,-2.3714,-2.3414,-2.3165,-2.2738,-2.2046,-2.1083,-1.9816,-1.8806,-1.792,-1.6616,-1.5868,-1.5359,0.0,0.0,0.0,0.0,0.0,0.0,0.0,0.0,0.0,0.0,0.0,0.0,0.0,0.0,0.0,0.0,0.0,0.0,0.0,0.0,-0.3139,-0.2944,-0.2685,-0.2497,-0.2405,-0.1659,-0.1242,-0.1169,-0.0044,0.1394,0.3125,0.4161,0.4576,0.4463,0.4616,0.4865,0.5174,0.4838,0.3971,0.2839,0.3219,0.2781,0.1859,0.2005,0.1234,0.0,0.0,0.0,0.0,-0.7172,-0.7775,-0.818,-0.9607,-1.1857,-1.4155,-1.5066,-1.6529,-1.8192,-1.9636,-2.0672,-2.1758,-2.3495,-2.4302,-2.4801,-2.5297,-2.5239,-2.4947,-2.4495,-2.4371,-2.4271,-2.3954,-2.501,-2.6351,-2.7669,-2.9053,-3.026,-3.1162,-3.0887,-3.0681,-3.0902,-3.0436,-3.0079,-3.0079,-3.1083,-3.1763,-3.1844,-3.164,-3.1239,-3.0587,-2.981,-2.9193,-2.8775,-2.7305,-2.6706,-2.7172,-2.5646,-2.5357,-2.6324,-2.5606,-2.5016,-2.4495,-2.4284,-2.419,-2.417,-2.3714,-2.3254,-2.2758,-2.2339,-2.1386,-2.0107,-1.9176,-1.8189,-1.7192,-1.6118,-1.5301,-1.463,0.0,0.0,0.0,0.0,0.0,0.0,0.0,0.0,0.0,0.0,0.0,0.0,0.0,0.0,0.0,0.0,0.0,0.0,0.0,0.0,0.0,-0.0148,-0.0112,-0.0167,-0.032,-0.0752,-0.0378,0.0842,0.2782,0.5982,1.0321,1.1531,1.1138,0.9404,0.8738,0.907,1.0061,0.8995,0.733,0.5512,0.6969,0.6543,0.5098,0.5393,0.0,0.0,0.0,0.0,0.0,-0.7672,-0.8757,-0.9515,-0.9889,-1.2191,-1.4833,-1.5266,-1.6628,-1.8173,-1.9021,-1.9902,-2.0967,-2.2678,-2.3043,-2.2921,-2.2682,-2.2626,-2.2192,-2.0728,-2.0564,-2.0386,-1.9401,-2.1133,-2.2949,-2.3712,-2.5677,-2.7502,-2.8552,-2.877,-2.9026,-2.96,-2.9678,-2.9678,-2.9678,-2.9202,-2.8985,-2.9272,-3.0076,-2.9849,-2.8184,-2.8896,-2.8922,-2.7978,-2.7079,-2.6605,-2.6534,-2.5532,-2.4956,-2.4832,-2.4623,-2.4491,-2.4454,-2.4266,-2.4135,-2.4042,-2.3374,-2.2698,-2.2003,-2.1387,-2.0049,-1.8383,-1.8383,-1.7529,-1.6203,-1.5749,-1.4949,-1.4099,0.0,0.0,0.0,0.0,0.0,0.0,0.0,0.0,0.0,0.0,0.0,0.0,0.0,0.0,0.0,0.0,0.0,0.0,0.0,0.0,0.0,0.0,0.0,0.0,0.0,0.0,0.0,0.0,0.0,0.8806,1.0287,0.9725,0.9573,0.9756,0.9375,0.9188,0.9163,0.9209,0.8213,0.6673,0.0,0.7351,0.5962,0.0,0.0,0.0,0.0,0.0,0.0,0.0,-0.9803,-1.0088,-1.0182,-1.0776,-1.1933,-1.4504,-1.6484,-1.8176,-1.9692,-2.0731,-2.1669,-2.276,-2.297,-2.2726,-2.1982,-2.1541,-2.0689,-1.857,-1.7942,-1.7573,-1.6911,-1.8503,-2.0566,-2.2601,-2.4781,-2.6841,-2.8542,-2.879,-2.8962,-2.9418,-2.9493,-2.9493,-2.9493,-2.8957,-2.8365,-2.7796,-2.8373,-2.8571,-2.8119,-2.7719,-2.7376,-2.7112,-2.6253,-2.5777,-2.5704,-2.539,-2.5203,-2.516,-2.4981,-2.4568,-2.3973,-2.3677,-2.3167,-2.2508,-2.1808,-2.1387,-2.1167,-2.0556,-1.9537,-1.8383,-1.8134,-1.7105,-1.5721,-1.5345,-1.4687,-1.3839,0.0,0.0,0.0,0.0,0.0,0.0,0.0,0.0,0.0,0.0,0.0,0.0,0.0,0.0,0.0,0.0,0.0,0.0,0.0,0.0,0.0,0.0,0.0,0.0,0.0,0.0,0.0,0.0,0.0,0.0,0.0,0.8105,0.8437,0.892,0.8465,0.8406,0.8643,0.0,0.0,0.0,0.0,0.0,0.0,0.0,0.0,0.0,0.0,0.0,0.0,0.0,0.0,-1.2142,-1.2146,-1.2266,-1.2899,-1.5397,-1.7443,-1.9013,-1.9527,-2.0342,-2.1187,-2.1618,-2.1681,-2.1294,-2.0029,-1.9488,-1.8519,-1.5865,-1.5453,-1.5296,-1.4392,-1.6389,-1.8555,-1.977,-2.2139,-2.4498,-2.6387,-2.6545,-2.6918,-2.8109,-2.7954,-2.7716,-2.7716,-2.7321,-2.6859,-2.6374,-2.724,-2.7505,-2.6824,-2.6702,-2.6524,-2.6206,-2.5718,-2.5445,-2.5401,-2.4981,-2.4779,-2.4816,-2.4235,-2.3656,-2.3126,-2.2862,-2.2439,-2.1865,-2.1195,-2.0714,-2.0353,-1.9607,-1.8684,-1.7652,-1.7338,-1.6453,-1.5301,-1.4714,-1.3963,-1.3103,0.0,0.0,0.0,0.0,0.0,0.0,0.0,0.0,0.0,0.0,0.0,0.0,0.0,0.0,0.0,0.0,0.0,0.0,0.0,0.0,0.0,0.0,0.0,0.0,0.0,0.0,0.0,0.0,0.0,0.0,0.0,0.0,0.0,0.0,0.0,0.0,0.0,0.0,0.0,0.0,0.0,0.0,0.0,0.0,0.0,0.0,0.0,0.0,0.0,0.0,-1.2793,-1.4426,-1.4822,-1.4844,-1.502,-1.644,-1.8178,-1.945,-1.8686,-1.9261,-2.0037,-1.9938,-1.9847,-1.9354,-1.768,-1.71,-1.6068,-1.3192,-1.3266,-1.3458,-1.2235,-1.4682,-1.6828,-1.6778,0.0,-2.1713,-2.3605,-2.3696,-2.4284,-2.6322,-2.5906,-2.5472,-2.5585,-2.5226,-2.5038,-2.5077,-2.6174,-2.632,-2.5118,-2.5848,-2.6004,-2.5379,-2.5398,-2.5347,-2.5206,-2.4473,-2.4082,-2.4025,-2.308,-2.2498,-2.2186,-2.1976,-2.1752,-2.1504,-2.0908,-2.0258,-1.9575,-1.8667,-1.7722,-1.6763,-1.6351,-1.5679,-1.4813,-1.3947,-1.3058,-1.2084,0.0,0.0,0.0,0.0,0.0,0.0,0.0,0.0,0.0,0.0,0.1443,0.1252,0.0,0.0,0.0,0.0,0.0,0.0,0.0,0.0,0.0,0.0,0.0,0.0,0.0,0.0,0.0,0.0,0.0,0.0,0.0,0.0,0.0,0.0,0.0,0.0,0.0,0.0,0.0,0.0,0.0,0.0,0.0,0.0,0.0,0.0,0.0,0.0,0.0,0.0,-1.0583,-1.4015,-1.6456,-1.5006,-1.2674,-1.4077,-1.5256,-1.6276,-1.7144,-1.8079,-1.8821,-1.8839,-1.882,-1.8317,-1.6636,-1.5461,0.0,-1.1995,-1.2032,-1.2267,-1.1711,-1.3488,-1.5621,-1.7378,-1.9088,-2.1062,-2.3491,-2.3782,-2.4134,-2.5185,-2.4895,-2.4865,-2.5541,-2.4653,-2.4176,-2.451,-2.4159,-2.4208,-2.4823,-2.5106,-2.5224,-2.5153,-2.5308,-2.501,-2.4174,-2.412,-2.3773,-2.3127,-2.2994,-2.2514,-2.1714,-2.1397,-2.0842,-2.012,-1.9565,-1.9129,-1.876,-1.8095,-1.7427,-1.6738,-1.6001,-1.5008,-1.3891,-1.3303,-1.2319,-1.1118,0.0,0.0,0.0,0.0,0.0,0.0,0.0,0.3408,0.4281,0.3613,0.3988,0.4152,0.3737,0.3723,0.4055,0.0,0.0,0.0,0.0,0.0,0.0,0.0,0.0,0.0,0.0,0.0,0.854,0.781,0.0,0.0,0.0,1.0205,1.0185,0.0,0.0,0.0,0.0,0.0,0.0,0.0,0.0,0.0,0.0,0.0,0.0,0.0,0.0,0.0,0.0,0.0,-0.7932,-1.0717,-1.3026,-1.2624,-1.158,-1.2861,-1.3997,-1.5081,-1.6222,-1.7346,-1.8149,-1.7928,-1.7987,-1.754,-1.5481,0.0,0.0,-1.0785,-1.0581,-1.0702,-1.0546,-1.2103,-1.3786,-1.4938,-1.6799,-1.8843,-2.1006,-2.1408,-2.1986,-2.3324,-2.318,-2.3005,-2.3168,-2.3016,-2.2922,-2.2894,-2.2677,-2.2994,-2.4063,-2.4454,-2.4723,-2.4929,-2.4591,-2.425,-2.3895,-2.3095,-2.2541,-2.2226,-2.1823,-2.134,-2.0766,-2.0639,-2.018,-1.9476,-1.9075,-1.8699,-1.8275,-1.7042,-1.6328,-1.5945,-1.45,-1.3398,-1.2535,-1.1618,-1.0443,-0.9202,0.0,0.0,0.0,0.0,0.0,0.0,0.0,0.4733,0.5542,0.4601,0.6154,0.6899,0.5714,0.545,0.545,0.0,0.0,0.0,0.0,0.0,0.0,0.0,0.0,0.0,0.0,0.0,0.0,1.0273,1.0287,0.0,0.0,0.0,0.0,0.0,0.8692,0.8876,0.0,0.0,0.0,0.0,0.0,0.9918,0.0,0.0,0.0,0.0,0.0,0.0,0.0,0.0,-0.5038,-0.6629,-0.7935,-0.9172,-1.0354,-1.1456,-1.2622,-1.3769,-1.4743,-1.6093,-1.7005,-1.5989,-1.636,-1.6299,-1.3748,-1.257,-1.1531,-0.9872,-0.9351,-0.9278,-0.9515,-1.0676,-1.1772,0.0,-1.4051,-1.6012,-1.7874,-1.8495,-1.9346,-2.0983,-2.11,-2.0943,-2.0668,-2.1193,-2.148,-2.1238,-2.1427,-2.2078,-2.3311,-2.384,-2.4239,-2.4514,-2.3798,-2.3417,-2.3392,-2.2067,-2.1353,-2.1279,-2.0695,-2.0303,-2.008,-2.0076,-1.9811,-1.9323,-1.8988,-1.8466,-1.7717,-1.6038,-1.5152,-1.4655,-1.2834,-1.1777,-1.1141,-1.0184,-0.8946,-0.7556,0.0,0.0,0.0,0.0,0.0,0.0,0.0,0.4475,0.5199,0.6222,0.7437,0.8492,0.9305,0.828,0.7553,0.0,0.0,0.0,0.0,0.0,0.0,0.0,0.0,0.0,0.0,0.0,0.0,1.0212,1.0215,0.0,0.0,0.0,0.0,0.0,0.0,0.9848,1.0103,0.0,0.0,0.0,0.0,0.0,0.0,0.0,0.0,0.0,0.0,0.0,0.0,0.0,0.0,-0.2795,-0.295,-0.5171,-0.7901,-0.8796,0.0,0.0,-1.1586,-1.342,-1.4426,-1.1708,-1.2833,-1.3837,-1.0874,0.0,-0.9464,-0.957,-0.8871,-0.8485,-0.9267,-0.9351,-0.9827,0.0,-1.205,-1.3037,-1.5079,-1.6068,-1.6992,-1.8082,-1.8777,-1.9266,-1.9506,-1.9708,-1.9963,-2.0291,-2.0358,-2.1105,-2.2859,-2.3354,-2.3599,-2.3619,-2.3303,-2.2678,-2.1726,-2.151,-2.102,-2.0229,-2.0406,-2.0444,-2.0369,-2.0117,-1.995,-1.9808,-1.9231,-1.8146,-1.6678,-1.5635,-1.4344,-1.2924,-1.1695,-1.066,-0.9921,-1.0163,-0.9145,-0.7167,0.0,0.0,0.0,0.0,0.0,0.0,0.4297,0.5301,0.6317,0.7469,0.8655,0.972,1.0582,0.9892,0.9023,0.8156,0.0,0.0,0.0,0.0,0.0,0.0,0.0,0.0,0.0,0.0,1.0195,1.0191,1.0199,0.0,0.0,0.0,0.0,0.0,0.0,1.0052,1.0102,1.0238,0.0,0.0,0.0,0.0,0.0,0.0,0.0,0.0,0.0,0.0,0.1165,0.0,0.0,0.0,-0.1078,-0.2637,0.0,0.0,-0.7925,-0.8902,-0.9679,-1.0609,-1.0715,-0.801,-0.9178,-1.0121,-0.6822,0.0,-0.8072,-0.784,-0.7419,-0.7276,-0.7945,-0.7929,-0.8127,-0.9138,-0.9716,-1.0645,-1.2366,-1.3642,-1.4798,-1.5991,-1.7031,-1.7661,-1.7543,-1.7791,-1.7946,-1.7843,-1.8072,-1.8528,-1.9253,-2.0521,-2.1447,-2.1965,-2.1025,-2.045,-2.0297,-1.979,-1.9585,-1.9677,-1.9669,-1.9715,-1.9801,-1.9856,-1.9424,-1.8609,-1.8093,-1.7259,-1.6168,-1.4418,-1.3587,-1.2887,-0.7709,-0.5768,-0.5686,-0.3815,-0.2499,-0.1401,0.0,0.0,0.0,0.0,0.0,0.3374,0.4892,0.6267,0.7487,0.8439,0.947,1.0395,1.1139,1.0585,0.9826,0.8993,0.8734,0.0,0.0,0.0,0.0,0.0,0.0,0.0,0.0,0.0,1.0195,1.0209,1.0197,1.0194,0.0,0.0,1.0136,1.0061,0.0,0.0,0.0,0.0,0.0,0.0,0.0,0.0,0.0,0.0,0.0,0.0,0.0,0.0,0.0,0.0,0.0,0.0,0.0,0.0,0.0,0.0,-0.6074,-0.7079,-0.7827,-0.8305,-0.7762,-0.4406,-0.5882,-0.7232,0.0,0.0,-0.7044,-0.7015,-0.6571,-0.6365,-0.6892,-0.6815,-0.6806,-0.7336,-0.7861,-0.8623,-0.9882,-1.1115,-1.2336,-1.3529,-1.4662,-1.5356,-1.5433,-1.5894,-1.5976,-1.5512,-1.5727,-1.5899,-1.597,-1.675,-1.8,-1.9719,-1.8651,-1.8135,-1.8314,-1.7935,-1.7856,-1.8088,-1.8294,-1.8467,-1.8584,-1.7965,-1.7859,-1.8004,-1.4954,-1.4676,-1.5931,-1.0709,-0.9457,-1.0144,-0.3203,-0.0653,-0.0595,0.1634,0.2771,0.3379,0.0,0.0,0.0,0.0,0.0,0.0,0.5722,0.7201,0.8431,0.9109,0.9722,1.0414,1.1206,1.0301,0.9863,1.0524,0.9537,0.0,0.0,0.0,0.0,0.0,0.0,0.0,0.0,0.0,0.0,1.0207,1.019,1.0199,1.0208,1.0133,1.014,1.018,0.0,0.0,0.0,0.0,0.0,0.0,0.0,0.0,0.0,0.0,0.0,0.0,0.0,0.0,0.0,0.0,0.0,0.0,0.0,-0.0045,-0.0806,0.0,-0.4049,-0.4997,-0.5812,-0.6675,-0.6063,-0.0777,-0.3133,-0.5709,-0.1825,-0.3577,-0.6401,-0.77,-0.6775,-0.5864,-0.6414,-0.6114,-0.596,-0.6427,-0.6691,-0.7049,-0.7731,-0.8518,-0.9437,-1.0517,-1.1289,-1.2221,-1.3304,-1.409,-1.4225,-1.3602,-1.3545,-1.3628,-1.3807,-1.2226,-1.3048,-1.6814,-1.6551,-1.6054,-1.5533,-1.6114,-1.5965,-1.5071,-1.6185,-1.6737,-1.665,-1.3904,-1.5025,-1.8575,-0.946,-0.9849,-1.5947,-0.384,-0.0798,-0.3346,0.1405,0.4017,0.5054,0.464,0.4811,0.5772,0.0,0.0,0.0,0.0,0.0,0.0,0.0,0.7421,0.8526,0.9418,0.9877,1.0383,1.1157,1.0337,0.9998,1.0612,0.9802,0.0,0.0,0.0,0.0,0.0,0.0,0.0,0.0,0.0,0.0,1.1094,1.109,1.1383,1.1956,1.1341,1.1033,1.0984,1.0392,1.0135,0.0,0.0,0.0,0.0,0.0,0.0,0.0,0.0,0.0,0.0,0.0,0.0,0.0,0.0,0.0,0.0,0.0,0.0,0.0,-0.1446,-0.2374,-0.3251,-0.3694,-0.3683,-0.2747,0.0631,-0.1533,-0.3827,-0.1173,-0.3836,-0.6916,-0.7014,-0.6684,-0.6286,-0.5998,-0.5672,-0.5578,-0.5882,-0.6006,-0.6098,-0.6265,-0.7196,-0.7998,-0.8498,-0.9366,-1.0153,-1.0657,-1.0484,-1.0504,-1.0888,-1.0352,-0.9859,-0.9518,-0.892,-1.0004,-1.3114,-1.2283,-1.1822,-1.1874,-1.1648,-1.1603,-1.1704,-1.1483,-1.0834,-0.9843,-0.8766,-0.831,-0.8044,-0.3575,-0.2939,-0.4916,-0.2742,-0.0011,0.3434,0.9921,1.2004,1.1374,1.1651,1.1389,1.1087,0.0,0.0,0.0,0.0,0.0,0.0,0.0,0.7669,0.87,0.9657,0.999,1.0427,1.1165,1.0382,1.0118,1.0892,1.0051,0.0,0.0,0.0,0.0,0.0,0.0,0.0,0.0,0.0,0.0,0.0,1.1173,1.146,1.2287,1.1424,1.1005,1.096,1.0438,1.0181,0.0,0.0,0.0,0.0,0.0,0.0,0.2333,0.0,0.0,0.0,0.0,0.0,0.0,0.0,0.0,0.0,0.0,0.0,0.0,0.0,-0.1565,-0.2251,-0.2644,-0.2225,-0.1107,0.1144,-0.0923,-0.3117,-0.1462,0.0,-0.7616,-0.7514,-0.7147,-0.6622,-0.5883,-0.5156,-0.4782,-0.5194,-0.5061,-0.4966,-0.5158,-0.5584,-0.5945,-0.6024,-0.7425,-0.8172,-0.7643,-0.7589,-0.7517,-0.7366,-0.6872,-0.6239,-0.5539,-0.5257,-0.583,-0.7459,-0.7998,-0.8181,-0.7961,-0.7945,-0.769,-0.7303,-0.6881,-0.6089,-0.4973,-0.3591,-0.3093,-0.2992,0.1692,0.2134,0.0,0.2788,0.5187,0.7636,1.4339,1.6337,1.5434,1.5707,1.5196,1.4352,0.0,0.0,0.0,0.0,0.0,0.0,0.0,0.7965,0.8915,0.979,1.0075,1.0459,1.1142,1.0373,1.0201,1.119,0.0,0.0,0.0,0.0,0.0,0.0,0.0,0.0,0.0,1.0164,0.0,1.1581,1.078,1.086,1.1757,1.0872,1.0487,1.0464,1.0347,0.0,0.0,0.0,0.0,0.0,0.3484,0.2259,0.0,0.0,0.0,0.0,0.0,0.0,0.0,0.0,0.0,0.0,0.0,0.0,0.0,0.0,0.0,0.0,0.0,-0.2079,-0.1017,0.0731,-0.1303,-0.3529,-0.2726,0.0,0.0,-0.8966,-0.8115,-0.6964,-0.6029,-0.4676,-0.3871,-0.443,-0.3968,-0.3756,-0.4312,-0.3928,-0.3559,-0.347,-0.5503,-0.6173,-0.4418,-0.5245,-0.5166,-0.348,-0.328,-0.2881,-0.1983,-0.1382,-0.0907,-0.0611,-0.3559,-0.4757,-0.394,-0.4597,-0.3982,-0.2192,-0.227,-0.2048,-0.1467,0.1677,0.1198,-0.1635,0.6548,0.602,0.0275,1.1473,1.3481,1.0055,1.5385,1.7439,1.7406,1.7269,1.6588,1.5755,0.0,0.0,0.0,0.0,0.0,0.0,0.0,0.0,0.0,0.0,1.0136,1.0254,1.0371,1.008,0.9939,0.0,0.0,0.0,0.0,0.0,0.0,0.0,0.0,0.0,0.0,0.0,0.0,1.2425,1.2262,1.2949,1.4394,1.3565,1.2849,1.2172,1.1495,0.0,0.0,0.0,0.0,0.0,0.309,0.138,0.0,0.0,0.0,0.0,-0.1539,-0.164,0.0,0.0,0.0,0.0,0.0,0.0,0.0,0.0,-0.1759,-0.2038,-0.2368,0.0,-0.1731,-0.1243,-0.3142,-0.5283,0.0,0.0,0.0,0.0,0.0,-0.8262,-0.6819,-0.5359,-0.4402,-0.4558,-0.3899,-0.3323,-0.313,-0.3273,-0.3364,-0.3283,-0.3574,-0.3534,-0.2985,-0.2155,-0.1718,-0.1961,-0.1345,-0.0518,0.0558,0.0904,0.1505,0.2456,0.2103,0.1194,-0.0302,0.1169,0.1505,0.0821,0.3192,0.4464,0.4794,0.7481,0.867,0.8837,1.2285,1.2789,1.1451,1.4572,1.5778,1.5811,1.7443,1.7874,1.7716,1.9044,1.8053,1.6208,0.0,0.0,0.0,0.0,0.0,0.0,0.0,0.0,0.0,0.0,0.0,0.0,0.0,0.0,0.0,0.0,0.0,0.0,0.0,0.0,0.0,0.0,0.0,0.0,0.0,0.9861,1.0717,0.0,0.0,1.292,1.4624,1.3464,1.2662,1.2189,1.1548,0.0,0.0,0.0,0.0,0.0,0.2391,0.0,0.0,0.0,0.0,0.0,-0.1527,-0.1438,0.0,-0.1521,-0.1509,-0.1538,0.0,0.0,0.0,0.0,-0.2,-0.2202,-0.2464,-0.2475,-0.2447,-0.2635,-0.4385,-0.6291,-0.7234,0.0,0.0,0.0,0.0,-0.8229,-0.6878,-0.5304,-0.4169,-0.3988,-0.2962,-0.1936,-0.1104,-0.1537,-0.1857,-0.1682,-0.1317,-0.1048,-0.0964,0.0176,0.0986,0.1207,0.1533,0.2121,0.3008,0.3159,0.3626,0.4471,0.5039,0.4624,0.3269,0.4666,0.5328,0.5277,0.7266,0.8476,0.9059,1.0669,1.2033,1.3233,1.3855,1.4795,1.5897,1.6062,1.6712,1.7707,1.8659,1.8622,1.8235,1.9649,1.8759,1.6934,0.0,0.0,0.0,0.0,0.0,0.0,0.0,0.0,0.0,0.0,0.0,0.0,0.0,0.0,0.0,0.0,0.0,0.0,0.0,0.0,0.0,0.0,0.0,0.0,0.9512,0.9417,1.0209,1.1932,0.0,0.0,0.0,0.0,1.1622,0.0,0.0,0.0,0.0,0.0,0.0,0.0,0.163,0.0,0.0,0.0,0.0,0.0,0.0,0.0,0.0,-0.1609,-0.1717,-0.1686,-0.19,0.0,0.0,0.0,0.0,0.0,-0.2704,-0.303,-0.3325,-0.3603,-0.5097,-0.6696,-0.7419,0.0,0.0,0.0,0.0,0.0,-0.6548,-0.4889,-0.3599,-0.3211,-0.1794,-0.0359,0.0628,0.0253,-0.0043,0.0088,0.0701,0.1132,0.1266,0.2103,0.3131,0.4401,0.4202,0.4347,0.5004,0.5044,0.5403,0.616,0.6683,0.6936,0.6875,0.7232,0.8055,0.931,1.0238,1.0993,1.1611,1.2382,1.3381,1.4468,1.3785,1.4636,1.652,1.6463,1.6835,1.7584,1.9094,1.9237,1.8697,1.9625,1.8868,1.7374,0.0,0.0,0.0,0.0,0.0,0.0,0.0,0.0,0.0,0.0,0.0,0.0,0.0,0.0,0.0,0.0,0.0,0.0,0.0,0.0,0.0,0.0,0.0,0.8996,0.9093,0.8543,0.9043,1.0675,1.0455,0.0,1.2386,1.2531,1.2207,1.1462,0.0,0.0,0.0,0.0,0.0,0.3374,0.1297,0.0,0.0,0.0,0.0,0.0,0.0,0.0,0.0,-0.1041,-0.1036,-0.1083,-0.1268,0.0,0.0,0.0,0.0,0.0,-0.3062,-0.4005,-0.4701,-0.4157,-0.5078,-0.6248,0.0,0.0,0.0,0.0,0.0,0.0,0.0,-0.4541,-0.3224,-0.2996,-0.1277,0.0,-0.0183,0.0324,0.0504,-0.0134,0.1321,0.2555,0.2894,0.3861,0.4568,0.4815,0.4542,0.4762,0.5707,0.5745,0.6549,0.8282,0.8857,0.9663,1.0814,1.0449,0.9925,0.9349,1.2036,1.2653,1.1509,1.3674,1.4948,1.5397,1.5251,1.5436,1.5786,1.6109,1.6641,1.7349,1.8267,1.8587,1.861,1.95,1.8383,1.6349,0.0,0.0,0.0,0.0,0.0,0.0,0.0,0.0,0.0,0.0,0.0,0.0,0.0,0.0,0.0,0.0,0.0,0.0,0.0,0.0,0.0,0.0,0.5514,0.6039,0.6829,0.6758,0.7431,0.8939,0.932,1.0283,1.1784,1.2004,1.1859,1.1406,1.0592,0.955,0.8292,0.0,0.4687,0.2804,0.0,0.0,0.0,0.0,0.0,0.0,0.0,0.0,0.0,0.0,-0.0841,-0.0866,-0.1068,0.0,0.0,0.0,0.0,0.0,-0.3244,-0.4137,-0.486,-0.5027,-0.6156,0.0,0.0,0.0,0.0,0.0,0.0,0.0,0.0,-0.3656,-0.2376,-0.0946,0.0543,0.168,0.2048,0.2269,0.2295,0.1987,0.3318,0.4169,0.4126,0.523,0.5945,0.5945,0.5821,0.5935,0.6404,0.6639,0.7322,0.8471,0.9249,1.031,1.1688,1.1942,1.1814,1.125,1.2903,1.3223,1.2406,1.3875,1.4987,1.5718,1.5624,1.606,1.6778,1.683,1.7282,1.8009,1.8632,1.8906,1.8942,1.8971,1.8282,1.7183,0.0,0.0,0.0,0.0,0.0,0.0,0.0,0.0,0.0,0.0,0.0,0.0,0.0,0.0,0.0,0.0,0.0,0.0,0.0,0.0,0.4676,0.3401,0.2863,0.3278,0.4748,0.4966,0.5734,0.707,0.7926,0.9313,1.1124,1.1366,1.1351,1.1118,1.0798,0.9675,0.7918,0.6311,0.4352,0.219,0.0,0.0,0.0,0.0,0.0,0.0,0.0,0.0,0.0,0.0,0.0,0.0,0.0,0.0,0.0,-0.1672,-0.2025,-0.2443,-0.3366,-0.4063,-0.4691,-0.533,0.0,0.0,0.0,0.0,0.0,0.0,0.0,0.0,0.0,-0.25,-0.1246,0.1082,0.2051,0.2816,0.3745,0.3891,0.3868,0.3796,0.4913,0.5508,0.5064,0.6091,0.6759,0.6685,0.6773,0.6892,0.7077,0.7363,0.7913,0.8705,0.9552,1.066,1.1997,1.2796,1.3091,1.2917,1.3411,1.3487,1.3209,1.3937,1.4837,1.5807,1.5871,1.6582,1.7697,1.7706,1.7997,1.8538,1.9091,1.9305,1.9228,1.8554,1.8291,1.8124,0.0,0.0,0.0,0.0,0.0,0.0,0.0,0.0,0.0,0.0,0.0,0.0,0.0,0.0,0.0,0.0,0.0,0.0,0.0,0.0,0.4291,0.3265,0.2011,0.2214,0.4125,0.3711,0.4031,0.5202,0.6241,0.7892,1.0043,1.097,1.1005,1.0297,1.064,0.9238,0.6569,0.539,0.3673,0.1651,0.0424,0.0,0.0,0.0,0.0,0.0,0.0,0.0,0.0,0.0,0.0,0.0,0.0,0.0,-0.1288,-0.1671,-0.2064,-0.2578,-0.3452,-0.4146,-0.4568,-0.4383,0.0,0.0,0.0,0.0,0.0,0.0,0.0,0.0,0.0,-0.1239,0.0079,0.2222,0.2184,0.2142,0.2903,0.3773,0.4168,0.3592,0.509,0.6013,0.5688,0.6344,0.6663,0.636,0.6443,0.6855,0.7608,0.7666,0.8432,1.0015,1.0623,1.156,1.2896,1.3287,1.3283,1.2917,1.3694,1.3741,1.325,1.4281,1.5134,1.5831,1.6444,1.6984,1.7487,1.821,1.8359,1.8218,1.9014,1.9305,1.9228,1.8554,1.8291,1.8205,0.0,0.0,0.0,0.0,0.0,0.0,0.0,0.0,0.0,0.0,0.0,0.0,0.0,0.0,0.0,0.0,0.0,0.0,0.0,0.0,0.3039,0.1408,0.1204,0.153,0.2406,0.2438,0.2956,0.406,0.6448,0.871,1.0833,1.126,1.1598,0.0,0.0,0.9305,0.6426,0.5202,0.3083,0.0541,0.0,-0.0252,0.0,0.0,0.0,0.0,0.0,0.0,0.0,0.0,-0.1241,-0.1208,-0.1143,-0.1243,-0.1427,-0.1718,-0.2111,-0.2599,-0.3263,-0.3842,-0.428,-0.4555,0.0,0.0,0.0,0.0,0.0,0.0,0.0,0.0,0.0,0.0798,0.1791,0.2783,0.2984,0.3155,0.3535,0.4164,0.4633,0.4743,0.5616,0.6263,0.6384,0.687,0.707,0.6821,0.7088,0.7491,0.8042,0.8259,0.8784,0.9694,1.0436,1.1152,1.1889,1.2646,1.2816,1.2485,1.3433,1.3591,1.2986,1.4236,1.4919,1.5174,1.6319,1.6868,1.7055,1.7977,1.8294,1.8234,1.8873,1.9198,1.9268,1.9015,1.8933,1.8836,0.0,0.0,0.0,0.0,0.0,0.0,0.0,0.0,0.0,0.0,0.0,0.0,0.0,0.0,0.0,0.0,0.0,0.0,0.0,0.0,0.1255,-0.0089,0.0732,0.1314,0.1519,0.2194,0.288,0.3601,0.6654,0.9232,1.1334,1.1694,0.0,0.0,0.0,0.0,0.5431,0.3938,0.1669,-0.0906,-0.0746,-0.0623,0.0,0.0,0.0,0.0,0.0,0.0,0.0,0.0,-0.1282,-0.1274,-0.1143,-0.1276,-0.1528,-0.1758,-0.2071,-0.2447,-0.2906,-0.319,-0.3467,0.0,0.0,0.0,0.0,0.0,0.0,0.0,-0.1306,0.0,0.1128,0.0,0.2751,0.3364,0.3574,0.3887,0.4332,0.4848,0.5314,0.5676,0.6328,0.6753,0.6782,0.7301,0.756,0.7292,0.7676,0.8119,0.8617,0.8883,0.917,0.9555,1.0296,1.093,1.1415,1.2061,1.2394,1.241,1.3134,1.3121,1.2531,1.3965,1.4556,1.4469,1.5967,1.6693,1.6898,1.7676,1.8185,1.8587,1.8948,1.9182,1.9305,1.9305,1.9305,1.9231,0.0,0.0,0.0,0.0,0.0,0.0,0.0,0.0,0.0,0.0,0.0,0.0,0.0,0.0,0.0,0.0,0.0,0.0,0.0,-0.1968,-0.1023,-0.0877,0.0661,0.1609,0.181,0.3214,0.3902,0.3828,0.6645,0.9104,1.1213,1.2168,0.0,0.0,0.0,0.0,0.3241,0.1332,-0.0719,-0.2636,-0.1819,-0.1279,-0.0917,0.0,0.0,0.0,0.0,0.0,0.0,0.0,-0.1026,-0.0841,-0.1043,-0.1276,-0.154,-0.1811,-0.1947,-0.2062,-0.2319,-0.2247,-0.2018,0.0,0.0,0.0,0.0,0.0,0.0,0.0,0.0,0.1408,0.1748,0.2021,0.2675,0.4004,0.384,0.3938,0.5125,0.5825,0.6221,0.6179,0.7189,0.7601,0.6892,0.7648,0.8063,0.7715,0.807,0.8617,0.9354,0.9408,0.9567,0.9893,1.0433,1.1094,1.1897,1.1769,1.2046,1.2786,1.2786,1.2456,1.1871,1.3536,1.4081,1.379,1.5468,1.6538,1.7105,1.7382,1.821,1.9289,1.9289,1.9289,1.9289,1.9289,1.9289,1.9289,0.0,0.0,0.0,0.0,0.0,0.0,0.0,0.0,0.0,0.0,0.0,0.0,0.0,0.0,0.0,0.0,0.0,0.0,0.0,-0.2259,-0.0102,0.089,0.1844,0.2804,0.382,0.5266,0.6178,0.6541,0.8,0.9524,1.1081,0.0,0.0,0.9448,0.0,0.0,0.1129,0.1979,0.0199,-0.3144,-0.2528,-0.1865,-0.1219,0.0,0.0,0.0,0.0,0.0,0.0,0.0,0.0,0.0,-0.0706,-0.0874,-0.1142,-0.1406,-0.1625,-0.1784,-0.1784,-0.1667,-0.139,-0.0663,0.0,0.0,0.0,0.0,0.0,0.0,0.1662,0.2599,0.3181,0.3537,0.4049,0.4954,0.4899,0.4814,0.5012,0.5728,0.6222,0.6027,0.6896,0.748,0.7315,0.7798,0.8124,0.8121,0.8439,0.8883,0.9381,0.9408,0.9659,1.0235,1.0404,1.0811,1.1466,1.1457,1.1644,1.2089,1.2089,1.2224,1.2546,1.3513,1.3837,1.3695,1.4696,1.5489,1.6123,1.7264,1.8023,1.8531,1.8531,1.8643,1.8843,1.9017,1.9102,1.9101,0.0,0.0,0.0,0.0,0.0,0.0,0.0,0.0,0.0,0.0,0.9688,0.0,0.0,0.0,0.0,0.0,0.0,0.0,0.0,0.0,0.0588,0.1797,0.2812,0.4024,0.5501,0.6934,0.7679,0.7698,0.841,0.9341,0.0,0.0,0.0,0.9059,0.0,0.6203,0.1037,0.0842,-0.1009,-0.3716,-0.2941,-0.224,-0.1551,0.0,0.0,0.0,0.0,0.0,0.0,0.0,0.0,0.0,-0.0303,-0.0571,-0.0946,-0.1102,-0.1195,-0.1156,-0.0905,-0.0618,-0.0245,0.0588,0.1041,0.1449,0.2269,0.0,0.0,0.0,0.318,0.3708,0.4399,0.4642,0.4928,0.5497,0.5504,0.5509,0.5656,0.6156,0.6508,0.6483,0.7229,0.7662,0.7519,0.8068,0.844,0.851,0.8816,0.9197,0.9593,0.9607,0.979,1.0185,1.0335,1.064,1.1127,1.1242,1.1468,1.1805,1.1912,1.2173,1.2598,1.3382,1.3555,1.3263,1.4214,1.4888,1.5445,1.6915,1.7676,1.7953,1.8248,1.8528,1.877,1.8931,1.9052,1.9134,0.0,0.0,0.9009,0.9681,0.0,0.0,0.0,0.0,0.0,0.0,0.9801,0.973,0.0,0.0,0.0,0.0,0.0,0.0,0.0,0.0,0.1207,0.2286,0.3767,0.5332,0.6927,0.8107,0.8363,0.7678,0.8141,0.0,0.0,0.0,0.9709,0.9571,0.0,0.3751,0.2062,-0.1113,-0.3156,-0.4184,-0.3124,-0.241,-0.1835,-0.0512,0.0,0.0,0.0,0.0,0.0,0.0,0.0,0.0,0.0235,-0.0269,-0.0748,-0.0821,-0.0631,-0.0314,0.016,0.0688,0.1305,0.2029,0.2198,0.2511,0.3764,0.3587,0.3398,0.4035,0.4342,0.4743,0.5453,0.5444,0.5424,0.5745,0.5773,0.5974,0.6651,0.6781,0.6952,0.7327,0.7878,0.8045,0.7619,0.8396,0.8929,0.885,0.9235,0.9593,0.9867,0.9905,0.9919,0.9995,1.0285,1.0605,1.0991,1.1219,1.149,1.179,1.206,1.2149,1.22,1.3161,1.3255,1.2716,1.4091,1.476,1.4983,1.6529,1.7269,1.7489,1.8247,1.8678,1.8896,1.8914,1.9067,1.9243,0.0,0.0,0.8887,0.8952,0.0,0.0,0.0,0.0,0.0,0.0,0.0,0.0,0.0,0.0,0.0,0.0,0.0,0.0,0.0,0.0,0.2407,0.3988,0.5719,0.7152,0.82,0.8027,0.7813,0.7544,0.7866,0.0,0.0,0.0,0.0,0.6065,0.0,0.4618,0.0524,0.0282,-0.1204,-0.3332,-0.2883,-0.2346,-0.1695,-0.0474,0.0487,0.0,0.0,0.0,0.0,0.0,0.0,0.0,0.0738,0.0471,0.027,-0.0136,0.0,0.0359,0.0743,0.1887,0.3187,0.3813,0.4605,0.534,0.5604,0.5649,0.5558,0.5245,0.5232,0.5448,0.6094,0.5879,0.5769,0.6316,0.6239,0.6176,0.6387,0.6669,0.6934,0.7129,0.7808,0.8238,0.8146,0.8833,0.9298,0.9274,0.9581,0.9816,0.9893,0.9905,1.0148,1.0681,1.0739,1.1048,1.1593,1.1659,1.1725,1.1805,1.1869,1.1891,1.1912,1.2553,1.2851,1.3041,1.5258,1.56,1.4756,1.6795,1.7331,1.6952,1.7684,1.8014,1.8082,1.829,1.8529,1.8789,0.0,0.0,0.0,0.0,0.0,0.0,0.0,0.0,0.0,0.0,0.0,0.0,0.0,0.0,0.0,0.0,0.3907,0.2916,0.3108,0.2774,0.3417,0.5286,0.6644,0.7325,0.7256,0.7219,0.6865,0.0,0.0,0.0,0.0,0.0,0.0,0.5525,0.0,0.4096,0.1332,0.0387,-0.1005,-0.2547,-0.2355,-0.1969,-0.1375,-0.0027,0.0986,0.1815,0.2708,0.0,0.0,0.0,0.0,0.0,0.0,0.0,0.0943,0.0657,0.0753,0.1098,0.1594,0.2651,0.3879,0.4866,0.5814,0.6448,0.6342,0.6643,0.6789,0.6307,0.6234,0.6322,0.663,0.6543,0.6487,0.666,0.6593,0.6579,0.6658,0.6855,0.7099,0.7362,0.7937,0.829,0.829,0.8965,0.9408,0.9408,0.9712,0.9905,0.9905,0.9905,1.0046,1.0398,1.0729,1.1062,1.137,1.1659,1.1805,1.1805,1.1918,1.2234,1.2675,1.2617,1.2994,1.3792,1.5081,1.5409,1.5138,1.6644,1.7033,1.6783,1.7507,1.7883,1.8014,1.8146,1.8371,1.8604,0.0,0.0,0.0,0.0,0.0,0.0,0.0,0.0,0.0,0.0,0.0,0.0,0.0,0.0,0.4706,0.0,0.0,0.0,0.3252,0.3509,0.4474,0.6349,0.6982,0.6856,0.5907,0.6217,0.582,0.0,0.0,0.0,0.0,0.0,0.0,0.6032,0.0,0.3201,0.2491,0.0109,-0.1272,-0.1871,-0.1705,-0.1387,-0.0861,0.0554,0.1526,0.2263,0.3313,0.3727,0.3719,0.349,0.0,0.0,0.0,0.0,0.1419,0.1378,0.1488,0.1749,0.2395,0.3302,0.4419,0.581,0.656,0.6854,0.6641,0.7103,0.7497,0.7201,0.7063,0.6979,0.6979,0.7088,0.7062,0.6833,0.6807,0.6882,0.7065,0.7109,0.7275,0.7744,0.8138,0.8421,0.8477,0.9181,0.9584,0.9487,0.9923,1.0106,0.9905,0.9993,1.0045,1.0072,1.0594,1.0944,1.1062,1.1549,1.1805,1.1805,1.2146,1.2801,1.3701,1.3195,1.3557,1.4624,1.4857,1.5216,1.5663,1.6525,1.6817,1.6783,1.7507,1.7927,1.8125,1.8125,1.831,1.8528,0.0,0.0,0.0,0.0,0.0,0.0,0.0,0.0,0.0,0.0,0.5911,0.5434,0.0,0.3537,0.2961,0.1421,0.1286,0.1437,0.1769,0.0,0.0,0.7275,0.7037,0.6673,0.6241,0.553,0.4941,0.0,0.0,0.0,0.0,0.0,0.0,0.563,0.0,0.0,0.1606,0.0446,-0.062,-0.1442,-0.1082,-0.0647,-0.0113,0.0,0.0,0.0,0.0,0.4044,0.3956,0.3923,0.3499,0.0,0.0,0.0,0.1847,0.1623,0.1834,0.2215,0.2649,0.4095,0.5863,0.7283,0.753,0.7418,0.7379,0.7615,0.7839,0.7795,0.7363,0.6979,0.6979,0.6919,0.6841,0.6804,0.667,0.669,0.7059,0.7109,0.7384,0.8138,0.8523,0.8871,0.9209,1.0034,1.0326,0.9865,1.0781,1.0935,0.9956,1.0357,1.0663,1.0767,1.0849,1.1141,1.1659,1.1762,1.1805,1.1805,1.2434,1.3198,1.414,1.4329,1.4654,1.5093,1.6369,1.6425,1.5714,1.7101,1.727,1.6783,1.7507,1.7833,1.7839,1.7839,1.8035,1.8249,0.0,0.0,0.0,0.0,0.0,0.0,0.0,0.0,0.0,0.0,0.0,0.3064,0.1766,0.1245,0.0612,-0.0345,-0.0911,-0.0331,0.1748,0.4521,0.6382,0.7033,0.6209,0.5472,0.4919,0.4271,0.0,0.0,0.0,0.0,0.0,0.5438,0.5434,0.0,0.0,0.0,0.0,0.0,0.0,-0.0699,-0.0338,0.0048,0.0,0.0,0.0,0.0,0.0,0.0,0.0,0.3956,0.3635,0.3142,0.2643,0.0,0.0,0.0,0.2717,0.3186,0.4067,0.5003,0.6007,0.7139,0.7315,0.7308,0.7652,0.7807,0.7995,0.8275,0.8144,0.7931,0.7931,0.7928,0.7853,0.7619,0.758,0.7553,0.744,0.7442,0.7647,0.8233,0.8606,0.8953,0.9354,1.0177,1.0593,1.0383,1.1123,1.1224,1.0381,1.0748,1.103,1.1195,1.1503,1.199,1.2629,1.2841,1.2927,1.2942,1.36,1.4141,1.4556,1.5267,1.5639,1.5759,1.6603,1.6925,1.6881,1.754,1.7608,1.7354,1.7676,1.7811,1.7811,1.7811,1.7861,1.7971,0.0,0.0,0.0,0.0,0.0,0.0,0.0,0.0,0.0,0.0,0.0,0.0548,-0.0134,0.0,0.0,0.0,-0.1854,-0.0639,0.2884,0.5281,0.6645,0.6793,0.5716,0.4712,0.3805,0.0,0.0,0.0,0.0,0.0,0.5536,0.5258,0.5058,0.0,0.3886,0.0,0.0,0.0,0.0,0.0,0.0,0.0,0.0,0.0,0.0,0.0,0.0,0.0,0.0,0.0,0.37,0.334,0.3134,0.3068,0.0,0.0,0.0,0.4008,0.5108,0.5482,0.5824,0.6698,0.699,0.7258,0.7765,0.818,0.8567,0.898,0.9176,0.9258,0.9258,0.9023,0.871,0.8388,0.8474,0.8481,0.8238,0.8219,0.8399,0.8919,0.9197,0.951,0.9912,1.0681,1.1069,1.0931,1.16,1.1731,1.1115,1.1445,1.1722,1.1883,1.2323,1.2845,1.3403,1.3693,1.3899,1.4064,1.4558,1.4872,1.5079,1.5906,1.6271,1.6248,1.6686,1.7204,1.7811,1.7811,1.7811,1.7811,1.7811,1.7811,1.7811,1.7811,1.7811,1.7811,0.0,0.0,0.0,0.0,0.0,0.0,0.0,0.0,0.0,0.0,0.0,-0.2314,-0.2677,-0.1744,-0.1166,-0.1381,-0.0234,0.1956,0.5383,0.6519,0.7069,0.7077,0.6234,0.0,0.3729,0.0,0.0,0.0,0.0,0.0,0.5402,0.4686,0.4378,0.4429,0.4048,0.285,0.1156,0.0,0.0,0.0,0.0,0.0,0.0,0.0,0.0,0.0,0.0,0.0,0.0,0.0,0.0,0.0,0.0,0.3569,0.3602,0.0,0.0,0.0,0.4928,0.5219,0.5531,0.6389,0.6987,0.7459,0.7837,0.8981,0.9987,1.0029,1.0446,1.0787,1.0787,0.9681,0.88,0.8782,0.8887,0.9124,0.9548,0.9603,0.9928,1.0763,1.0886,1.104,1.144,1.2002,1.2102,1.1588,1.2509,1.2831,1.2166,1.2618,1.3,1.3202,1.324,1.3414,1.3784,1.3784,1.4124,1.4737,1.4767,1.5111,1.5754,1.612,1.6297,1.632,1.6987,1.7469,1.7811,1.7811,1.7811,1.7811,1.7811,1.7811,1.7811,1.7811,1.7811,1.7811,0.0,0.0,0.0,0.0,0.0,0.0,0.0,0.0,0.0,0.0,0.0,0.0,0.0,-0.1146,-0.0249,0.0412,0.2769,0.4691,0.579,0.7,0.7538,0.7239,0.6141,0.516,0.4352,0.0,0.0,0.0,0.0,0.514,0.5334,0.4896,0.4645,0.455,0.3739,0.2858,0.194,0.1959,0.0,0.0,0.0,0.0,0.0,0.0,0.0,0.0,0.0,0.0,0.0,0.0,0.0,0.0,0.0,0.0,0.0,0.0,0.0,0.0,0.0,0.0,0.6465,0.6973,0.747,0.7887,0.8373,0.9313,1.0182,1.0526,1.0997,1.124,1.0967,1.0272,0.9649,0.9374,0.9358,0.9342,0.9271,0.9522,0.9907,1.0487,1.0802,1.1155,1.1558,1.209,1.2328,1.2128,1.2785,1.2939,1.236,1.297,1.3391,1.3558,1.4018,1.4537,1.5094,1.5067,1.5214,1.5439,1.5439,1.5574,1.5799,1.6136,1.6301,1.6328,1.6773,1.7175,1.7502,1.7704,1.7811,1.7811,1.7811,1.7811,1.7811,1.7811,1.7811,1.7811,0.0,0.0,0.0,0.0,0.0,0.0,0.0,0.0,0.0,0.0,0.0,0.0,0.0,0.0,0.1419,0.2905,0.5116,0.6464,0.6539,0.737,0.7626,0.7084,0.6062,0.5295,0.4836,0.0,0.0,0.0,0.0,0.0,0.0,0.0,0.4785,0.4589,0.3683,0.2972,0.0,0.0,0.0,-0.0314,0.0,0.0,-0.0927,0.0,0.0,0.0,0.0,0.0,0.0,0.0,0.0,0.0,0.0,0.0,0.0,0.0,0.0,0.0,0.6241,0.0,0.0,0.7142,0.7594,0.8089,0.8672,0.9616,1.0522,1.101,1.1475,1.165,1.1211,1.0781,1.0352,0.9922,0.9955,1.0029,0.9959,1.0347,1.0878,1.1487,1.1856,1.2164,1.2416,1.2743,1.2881,1.2672,1.3195,1.3326,1.2922,1.3536,1.3991,1.4148,1.4659,1.5208,1.5799,1.5799,1.5799,1.5799,1.5799,1.5799,1.5799,1.6039,1.6136,1.6136,1.6474,1.6876,1.732,1.7549,1.7704,1.7811,1.7811,1.7811,1.7811,1.7811,1.7811,1.7811,0.0,0.0,0.0,0.0,0.0,0.0,0.0,0.0,0.0,0.0,0.0,0.0,0.0,0.0,0.0,0.5936,0.6607,0.7168,0.7755,0.7649,0.7269,0.6611,0.6,0.5502,0.5127,0.0,0.0,0.0,0.0,0.0,0.0,0.0,0.4696,0.0,0.3853,0.3241,0.2638,0.0,0.0496,-0.07,0.0,-0.0361,-0.1675,0.0,0.0,0.0,0.1713,0.2786,0.0,0.4654,0.0,0.0,0.0,0.0,0.0,0.0,0.0,0.0,0.0,0.0,0.0,0.0,0.7392,0.8018,0.8639,0.9873,1.1035,1.1498,1.1924,1.2109,1.1704,1.1263,1.0791,1.041,1.0697,1.1207,1.1737,1.2222,1.2902,1.3949,1.4097,1.411,1.411,1.411,1.3896,1.3286,1.3772,1.4085,1.3947,1.4435,1.4823,1.5088,1.5104,1.5329,1.5799,1.5799,1.5799,1.5799,1.5799,1.5799,1.5799,1.5799,1.5799,1.5827,1.6136,1.667,1.7256,1.728,1.7502,1.7811,1.7811,1.7811,1.7811,1.7811,1.7811,1.7811,0.0,0.0,0.0,0.0,0.0,0.0,0.0,0.0,0.0,0.0,0.0,0.0,0.0,0.0,0.0,0.6597,0.7116,0.7415,0.7431,0.6993,0.6498,0.5959,0.5457,0.5293,0.5534,0.0,0.0,0.0,0.0,0.0,0.0,0.0,0.0,0.0,0.3668,0.2987,0.2367,0.1616,0.0,0.0,-0.07,-0.0994,0.0,0.0,0.0,0.0,0.0,0.1506,0.2689,0.0,0.5027,0.5179,0.0,0.0,0.0,0.0,0.0,0.0,0.6901,0.0,0.0,0.0,0.0,0.0,0.8718,1.0002,1.1246,1.1366,1.2088,1.2568,1.2129,1.1977,1.1767,1.1367,1.1123,1.1207,1.1737,1.2535,1.3201,1.3494,1.4212,1.4676,1.4676,1.4676,1.4614,1.4425,1.4601,1.4651,1.4636,1.4657,1.4823,1.5088,1.5104,1.5329,1.5799,1.5799,1.5799,1.5799,1.5799,1.5799,1.5799,1.5799,1.5799,1.5799,1.5898,1.6191,1.6617,1.7085,1.7502,1.7811,1.7811,1.7811,1.7811,1.7811,1.7811,1.7811,0.0,0.0,0.0,0.0,0.0,0.0,0.0,0.0,0.0,0.0,0.0,0.0,0.0,0.0,0.0,0.7142,0.7325,0.7206,0.6679,0.5906,0.5232,0.4687,0.4411,0.4573,0.5178,0.0,0.0,0.0,0.0,0.0,0.0,0.0,0.0,0.0,0.0,0.0,0.0,0.0,0.0,0.0,-0.0817,0.0,0.0,-0.096,-0.0471,0.0,0.0,0.0,0.2868,0.4851,0.5539,0.0,0.0,0.0,0.0,0.0,0.0,0.0,0.0,0.0,0.0,0.0,0.0,0.0,0.8929,1.0041,1.1144,1.1408,1.2261,1.2868,1.2645,1.2668,1.2665,1.2718,1.2458,1.2328,1.241,1.3319,1.4045,1.4264,1.4858,1.5216,1.5216,1.5216,1.5155,1.4928,1.513,1.5216,1.5216,1.4761,1.4791,1.559,1.5114,1.5294,1.6174,1.5933,1.5799,1.5799,1.5799,1.5799,1.5799,1.5799,1.5799,1.5799,1.5799,1.5983,1.634,1.6876,1.7296,1.7612,1.7743,1.7811,1.7811,1.7811,1.7811,1.7811,0.0,0.0,-0.26,-0.175,-0.1005,0.0,0.0,0.0,0.0,0.0,0.0,0.0,0.0,0.0,0.0,0.0,0.7286,0.6613,0.5614,0.4493,0.3536,0.2818,0.2871,0.3318,0.424,0.4205,0.0,0.0,0.0,0.0,0.0,0.0,0.0,0.0,0.2762,0.2009,0.0,0.0,0.0,-0.0933,-0.0398,-0.06,0.0,0.0,0.0944,0.0481,0.1992,0.2887,0.3602,0.559,0.6597,0.0,0.0,0.0,0.0,0.0,0.6975,0.0,0.0,0.0,0.0,0.0,0.834,0.0,0.9169,1.004,1.0916,1.1439,1.2232,1.2847,1.297,1.3017,1.3174,1.3717,1.397,1.3961,1.3538,1.4333,1.518,1.563,1.5756,1.5781,1.5781,1.5781,1.558,1.509,1.5505,1.5756,1.5693,1.4841,1.4954,1.6247,1.5327,1.541,1.6681,1.6174,1.5873,1.5799,1.5799,1.5799,1.5799,1.5799,1.5799,1.5799,1.5799,1.5983,1.6274,1.6633,1.7002,1.7344,1.7681,1.7811,1.7811,1.7811,1.7811,1.7811,-0.3675,-0.3098,-0.2354,-0.1652,0.0,0.0,0.0,0.0,0.0,0.0,0.0,0.0,0.0,0.0,0.0,0.0,0.0,0.5664,0.4718,0.2809,0.1242,0.018,0.0371,0.1166,0.262,0.3195,0.0,0.0,0.0,0.0,0.0,0.0,0.0,0.0,0.2129,0.1469,0.0,0.0,0.0,-0.0217,-0.0201,0.0036,0.0506,0.1025,0.1317,0.1571,0.2392,0.2716,0.3123,0.4911,0.6159,0.6921,0.0,0.0,0.0,0.6661,0.0,0.0,0.0,0.0,0.0,0.0,0.8959,0.0,0.9084,1.0105,1.1081,1.0732,1.1237,1.173,1.1768,1.1791,1.1873,1.1978,1.3192,1.42,1.4536,1.5139,1.5567,1.568,1.6082,1.6358,1.6358,1.6358,1.6308,1.6208,1.6296,1.617,1.5718,1.5905,1.6091,1.6275,1.6491,1.6637,1.6681,1.6577,1.6293,1.5799,1.5799,1.5799,1.5799,1.5799,1.5799,1.5799,1.5799,1.5827,1.5926,1.6554,1.7002,1.7344,1.7681,1.7811,1.7811,1.7811,1.7811,1.7811,-0.3985,-0.3459,-0.2694,-0.146,0.0,0.0,0.0,0.0,0.0,0.0,0.0,0.0,0.0,0.0,0.0,0.0,0.0,0.0,0.0,0.0,-0.0883,-0.2198,-0.2156,-0.1262,0.0503,0.1381,0.245,0.0,0.0,0.0,0.0,0.0,0.0,0.0,0.0,0.0,0.0,0.0,0.0141,0.062,0.0278,0.0,0.0979,0.17,0.2053,0.2324,0.3013,0.3714,0.452,0.5672,0.6377,0.0,0.6848,0.7234,0.7598,0.0,0.778,0.8555,0.0,0.0,0.0,0.8688,0.9215,0.0,0.0,1.0426,1.1092,1.1216,1.153,1.1964,1.2551,1.2439,1.2399,1.282,1.3874,1.4663,1.4613,1.5484,1.6107,1.6107,1.6358,1.6522,1.6522,1.6522,1.6522,1.6522,1.6522,1.6396,1.612,1.6117,1.6454,1.7157,1.6866,1.7006,1.7682,1.704,1.6547,1.6263,1.5948,1.5799,1.5799,1.5799,1.5799,1.5799,1.5799,1.5799,1.5856,1.6528,1.6917,1.7101,1.7612,1.7811,1.7811,1.7811,1.7811,1.7811,-0.4151,-0.3743,-0.2988,-0.1248,0.0,0.0,0.0,0.0,0.0,0.0,0.0,0.0,0.0,0.0,0.0,0.0,0.0,0.0,0.0,0.0,-0.3252,-0.4818,-0.4714,-0.3824,-0.2093,-0.0898,0.0438,0.1913,0.0,0.0,0.0,0.0,0.0,0.0,0.0,0.0,0.0,0.0,0.0,0.1319,0.0,0.0842,0.1271,0.2435,0.2924,0.3099,0.3859,0.5004,0.615,0.6527,0.6635,0.67,0.7058,0.7514,0.0,0.0,0.0,0.0,0.0,0.0,0.0,0.0,0.9534,0.9829,0.0,0.0,0.0,1.164,1.1822,1.2157,1.3099,1.2856,1.2751,1.3465,1.4256,1.4578,1.3985,1.5184,1.6157,1.6157,1.6363,1.6471,1.6413,1.6313,1.6338,1.6509,1.6321,1.6338,1.6509,1.629,1.6757,1.8039,1.7339,1.7518,1.8702,1.7623,1.6965,1.6697,1.6219,1.5918,1.5799,1.5799,1.5799,1.5799,1.5799,1.5799,1.5856,1.6528,1.6789,1.6866,1.7542,1.7811,1.7811,1.7811,1.7811,1.7811,-0.4236,-0.3519,-0.2441,-0.0983,0.0,0.0,0.0,0.0,0.0,0.0,0.0,0.0,0.0,0.0,0.0,0.0,0.0,0.0,-0.5558,0.0,0.0,-0.8342,-0.7461,-0.6481,-0.5542,-0.3458,-0.1633,-0.0157,0.0,0.0,0.0,0.0,0.0,0.0,-0.0159,0.0,0.0,0.0,0.0575,0.0,0.116,0.1428,0.0,0.3135,0.3723,0.4161,0.4997,0.5841,0.647,0.6195,0.6357,0.6623,0.0,0.7114,0.8259,0.7397,0.0,0.0,0.0,0.0,0.0,0.9323,1.0193,1.0969,1.0229,0.0,1.0909,1.0729,0.0,1.0738,1.0857,0.0,0.0,1.0912,1.2287,1.3134,1.2522,1.3868,1.4922,1.4922,1.5847,1.6418,1.6184,1.5644,1.568,1.6446,1.5792,1.5665,1.6471,1.7328,1.7918,1.8092,1.8912,1.9105,1.8702,1.8553,1.7861,1.6712,1.6637,1.6338,1.5799,1.5799,1.5799,1.5799,1.5799,1.5799,1.5856,1.6528,1.6789,1.6866,1.7542,1.7811,1.7811,1.7811,1.7811,1.7811,-0.3531,-0.3055,-0.2225,-0.0768,0.0,0.0,0.0,0.0,0.0,0.0,0.0,0.0,0.0,0.0,0.0,0.0,0.0,-0.3383,-0.7603,0.0,0.0,0.0,-0.9583,-0.8704,-0.6844,-0.5332,-0.3596,-0.1673,-0.052,0.0,0.0,0.0,0.0,0.0,-0.0689,0.0,0.069,0.0,0.1207,0.0,0.0,0.2629,0.335,0.3246,0.3655,0.447,0.5515,0.6118,0.6411,0.6738,0.6708,0.6639,0.728,0.0,0.0,0.8431,0.0,0.0,0.0,0.0,1.0465,1.0136,1.0753,1.1268,1.0709,1.0651,1.0794,1.1131,0.0,0.0,0.0,0.0,0.0,0.0,1.2046,1.2557,1.1939,1.3192,1.4322,1.4651,1.5151,1.5634,1.6084,1.5998,1.6115,1.6484,1.6178,1.6115,1.6497,1.7229,1.7787,1.8106,1.8855,1.9236,1.9271,1.8897,1.8238,1.7279,1.6891,1.6368,1.5799,1.5799,1.5799,1.5799,1.5799,1.5799,1.5827,1.6313,1.6501,1.6581,1.7248,1.7635,1.7811,1.7811,1.7811,1.7862,-0.3333,0.0,0.0,0.0,0.0,0.0,0.0,0.0,0.0,0.0,0.0,0.0,-0.0883,-0.1124,0.0,0.0,-0.3817,-0.5277,-0.9399,-0.9168,-0.9209,0.0,-1.0614,-0.9911,-0.7692,-0.6525,-0.4948,-0.2878,-0.164,0.0,0.0,0.0,0.0,0.0,0.0,-0.0134,0.115,0.0,0.1785,0.3306,0.3174,0.3773,0.4628,0.4066,0.4439,0.5335,0.6153,0.6435,0.6496,0.7131,0.6997,0.6782,0.7978,0.8585,0.8891,0.0,0.0,0.0,1.0047,1.0605,1.1236,1.083,1.1136,1.1429,1.096,1.0859,1.0996,1.166,1.1688,0.0,0.0,0.0,0.0,0.0,0.0,1.2458,1.1865,1.2642,1.3538,1.4159,1.4572,1.5135,1.5906,1.6017,1.6122,1.6355,1.6241,1.625,1.6509,1.7146,1.7706,1.8106,1.8765,1.9332,1.969,1.9211,1.8642,1.7984,1.7294,1.6637,1.6024,1.5888,1.5799,1.5799,1.5799,1.5799,1.5827,1.6163,1.6301,1.6367,1.6952,1.7296,1.7542,1.7726,1.7929,1.8149,-0.4128,-0.3071,0.0,0.0,0.0,0.0,0.0,0.0,0.0,0.0,0.0,0.0,0.0,0.0,0.0,0.0,0.0,-0.8881,-1.1697,-1.0729,-0.9995,-0.9927,0.0,-0.9749,-0.8494,-0.6892,-0.5357,-0.386,-0.2512,-0.1452,0.0,0.0,0.0,0.0,-0.0555,0.0142,0.1087,0.0936,0.2251,0.4322,0.3942,0.4637,0.5985,0.6184,0.6768,0.7364,0.7078,0.6979,0.6981,0.7013,0.7012,0.7018,0.7334,0.8278,0.9234,0.9076,1.0207,1.1456,1.1074,1.1648,1.2088,1.1069,1.1357,1.1622,1.074,1.1116,1.1729,1.1948,1.249,1.2939,1.2967,0.0,0.0,0.0,0.0,0.0,0.0,1.2105,1.231,1.2982,1.4318,1.5316,1.5671,1.5148,1.5147,1.6059,1.5569,1.5604,1.6459,1.7504,1.8066,1.8106,1.9132,1.969,1.969,1.966,1.9331,1.8672,1.7981,1.7309,1.6652,1.6069,1.5799,1.5799,1.5799,1.5799,1.5827,1.6163,1.6301,1.6313,1.6686,1.6815,1.6917,1.7566,1.8251,1.8775,0.0,0.0,0.0,0.0,0.0,0.0,0.0,-0.3614,-0.4187,-0.5448,-0.5948,-0.5943,-0.5368,-0.5913,-0.6994,-0.8603,-0.8566,-0.9263,-1.1232,-1.1066,-1.0342,-0.9101,-0.9823,-0.9242,-0.7103,-0.6385,-0.5171,-0.3362,-0.2262,-0.139,0.0,0.0,0.0,0.0,0.0,0.0299,0.0,0.0,0.0,0.0,0.5515,0.597,0.6337,0.6893,0.702,0.6936,0.6956,0.6979,0.7049,0.745,0.7549,0.764,0.8524,0.9035,0.9375,0.9744,1.0508,1.1294,1.1754,1.267,1.3317,1.2397,1.249,1.2469,1.1294,1.1137,1.1389,1.1897,1.2386,1.283,1.3075,0.0,0.0,0.0,0.0,0.0,0.0,1.2199,1.2289,1.3031,1.4007,1.4666,1.4769,1.5273,1.5569,1.5531,1.583,1.6174,1.6497,1.7188,1.7747,1.8106,1.8817,1.9332,1.969,1.969,1.9346,1.8702,1.8478,1.7996,1.7354,1.7161,1.6832,1.6383,1.6383,1.6174,1.5799,1.5926,1.5983,1.6011,1.6581,1.6789,1.6841,1.7296,1.7629,1.7993,-0.6611,0.0,0.0,0.0,0.0,-0.3598,-0.4555,-0.4646,-0.5073,-0.6376,-0.6443,-0.6311,-0.6175,-0.6521,-0.7154,-0.8074,-0.8529,-0.9072,-0.9813,-1.0253,-0.9679,-0.7799,-0.8501,-0.7852,-0.5551,-0.5017,-0.4078,-0.2605,-0.1788,-0.1169,0.0,0.0,0.0,0.0,0.0,0.0839,0.2143,0.3067,0.4191,0.5472,0.6573,0.6955,0.6814,0.7165,0.7089,0.6799,0.7179,0.7321,0.744,0.8226,0.8399,0.8509,0.9476,0.9743,0.9734,1.0166,1.076,1.1411,1.219,1.3219,1.3958,1.3434,1.3438,1.3268,1.2082,1.199,1.2279,1.2621,1.3079,1.3653,1.4251,0.0,0.0,0.0,0.0,0.0,0.0,1.2281,1.2659,1.3243,1.3883,1.4422,1.4703,1.5278,1.5588,1.5518,1.5858,1.6149,1.6497,1.7188,1.7747,1.8106,1.8817,1.9369,1.969,1.969,1.9465,1.9046,1.8807,1.8478,1.8041,1.7802,1.7458,1.7055,1.7055,1.6697,1.6129,1.6368,1.6218,1.5871,1.6509,1.6639,1.6528,1.7224,1.7479,1.7726,-0.7924,-0.7587,-0.6757,-0.4979,-0.4605,-0.4815,-0.553,-0.5536,-0.5605,-0.6119,-0.6065,-0.6079,-0.6335,-0.7071,-0.7507,-0.7438,-0.8257,-0.8454,-0.7799,-0.859,-0.8172,-0.6089,-0.6375,-0.5688,-0.3882,-0.3004,0.0,0.0,0.0,0.0,0.0,0.0,0.0,0.0,0.1009,0.0,0.2934,0.357,0.4767,0.6304,0.7192,0.7513,0.7459,0.7128,0.7014,0.7085,0.7697,0.7912,0.8118,0.9159,0.9518,0.9597,1.0118,1.0283,1.0283,1.0322,1.1013,1.1882,1.2497,1.3344,1.4113,1.415,1.4257,1.4047,1.3013,1.357,1.423,1.4007,1.4538,1.5361,1.6333,1.6157,0.0,0.0,0.0,0.0,0.0,1.2388,1.3301,1.3524,1.403,1.4629,1.5338,1.504,1.5127,1.5944,1.5518,1.5565,1.6459,1.745,1.8037,1.8106,1.9132,1.969,1.969,1.969,1.969,1.9675,1.9046,1.8747,1.8732,1.8104,1.7772,1.7742,1.7742,1.7354,1.6756,1.7384,1.6922,1.5858,1.6473,1.6368,1.6039,1.7288,1.7783,1.8065,-0.884,-0.8184,-0.7568,-0.6981,-0.6055,-0.5605,-0.6255,-0.6969,-0.739,-0.7173,-0.8117,-0.8383,-0.7446,-0.7506,-0.7407,-0.6729,-0.7766,-0.801,-0.6966,-0.8192,-0.7728,-0.4937,-0.5444,-0.4497,-0.1735,-0.2011,-0.145,0.0,0.0,0.0,0.087,0.0,0.0,0.0,0.0,0.1882,0.294,0.3637,0.5116,0.7053,0.7573,0.7542,0.7128,0.7054,0.712,0.7346,0.774,0.816,0.8594,0.9279,0.9518,0.9597,1.0118,1.0283,1.0361,1.0725,1.1548,1.2581,1.3486,1.4462,1.5281,1.5264,1.5004,1.4588,1.4021,1.404,1.4319,1.4978,1.5483,1.5965,1.6424,1.6419,1.6278,0.0,0.0,0.0,0.0,1.3308,1.3671,1.4302,1.4771,1.4775,1.4095,1.4617,1.4843,1.4402,1.4911,1.5565,1.6459,1.652,1.7006,1.8078,1.8727,1.9281,1.969,1.969,1.969,1.969,1.951,1.9435,1.9435,1.9256,1.8912,1.8448,1.8448,1.7772,1.6726,1.6891,1.6518,1.5871,1.6514,1.6828,1.6935,1.7027,1.7715,1.8758,-0.9355,-0.8634,-0.8042,-0.782,-0.698,-0.6331,-0.6465,-0.6673,-0.6754,-0.6551,-0.7393,-0.7729,-0.709,-0.7092,-0.7108,-0.6985,-0.723,-0.7199,-0.6799,-0.703,-0.6204,-0.4118,-0.3927,-0.2835,-0.0556,-0.0639,-0.0152,0.1047,0.0819,0.0,0.1305,0.0,0.0,0.0,0.0,0.2237,0.3091,0.4394,0.5883,0.7435,0.7745,0.7779,0.0,0.7454,0.7777,0.8339,0.852,0.8797,0.9119,0.9686,0.9843,0.9922,1.0205,1.0283,1.039,1.0867,1.1768,1.281,1.3848,1.4869,1.5756,1.5994,1.5819,1.5482,1.5005,1.5144,1.543,1.5843,1.6361,1.6886,1.7452,1.704,1.6368,0.0,0.0,0.0,1.3629,1.3778,1.4133,1.4515,1.4898,1.4754,1.3816,1.4568,1.4782,1.3874,1.4514,1.5195,1.571,1.6148,1.6855,1.7897,1.8831,1.9461,1.969,1.9989,1.9989,1.969,1.969,1.969,1.969,1.969,1.948,1.9136,1.9136,1.8553,1.7593,1.7876,1.7475,1.6683,1.7039,1.7519,1.7977,1.7792,1.7909,1.8349,-0.9461,-0.8869,-0.8277,-0.7876,-0.7332,-0.6793,-0.6285,-0.5746,-0.5366,-0.5266,-0.5583,-0.5887,-0.6026,-0.615,-0.6492,-0.7145,-0.6476,-0.6198,-0.6636,-0.5571,-0.4502,-0.343,-0.2385,-0.1154,0.0223,0.077,0.1311,0.1837,0.1712,0.0,0.0,0.0,0.0,0.0,0.0,0.0,0.0,0.5387,0.6747,0.7564,0.7848,0.815,0.8401,0.808,0.8627,0.9591,0.9536,0.9558,0.9677,1.0118,1.0283,1.0283,1.0283,1.04,1.0595,1.1065,1.2026,1.3099,1.4046,1.502,1.5919,1.6396,1.6522,1.6396,1.5906,1.6388,1.69,1.6756,1.7233,1.7895,1.8613,1.7661,1.6262,1.4775,1.466,1.4414,1.3473,1.4256,1.4833,1.4601,1.4829,0.0,1.4084,1.4661,1.4735,1.3874,1.423,1.4598,1.4879,1.6036,1.7029,1.7735,1.9142,1.985,1.9824,2.0318,2.0318,1.9824,1.9735,1.969,1.969,1.969,1.969,1.969,1.969,1.9316,1.8747,1.9316,1.8856,1.7779,1.7715,1.8146,1.8821,1.8837,1.8221,1.7633,-0.8865,-0.8563,-0.8243,-0.754,-0.6701,-0.6018,-0.5674,-0.6413,-0.6573,-0.5298,-0.6299,-0.6615,-0.5405,-0.5336,-0.5077,-0.455,-0.4794,-0.4942,-0.4842,-0.5096,-0.4526,-0.2892,-0.2153,-0.075,0.1426,0.1583,0.2125,0.3152,0.2344,0.0,0.0,0.0,0.0,0.0,0.0,0.0,0.4504,0.5799,0.6867,0.7713,0.8163,0.8693,0.9144,0.8498,0.8942,0.9962,0.9636,0.9804,1.0157,1.0283,1.0283,1.0283,1.0283,1.0912,1.1725,1.2185,1.3408,1.4701,1.5262,1.5861,1.6396,1.6497,1.6522,1.6497,1.6396,1.6809,1.7316,1.7743,1.8295,1.8549,1.8136,1.7199,1.6219,1.5431,1.5993,1.6222,1.5358,1.6072,1.6376,1.5631,1.5597,1.5225,1.4112,1.4287,1.4289,1.3901,1.3512,1.4057,1.575,1.5723,1.6374,1.7963,1.9139,2.0005,2.0528,2.0094,2.0094,2.0528,1.9959,1.969,1.969,1.969,1.969,1.969,1.969,1.9316,1.8717,1.8837,1.8555,1.8099,1.7797,1.7973,1.833,1.8437,1.8296,1.8318,-0.8861,-0.8444,-0.8019,-0.7363,-0.6391,-0.5598,-0.5321,-0.5529,-0.5426,-0.4534,-0.5179,-0.5383,-0.4431,-0.4379,-0.4454,-0.4487,-0.4257,-0.4266,-0.4623,-0.4216,-0.346,-0.2268,-0.1643,-0.0488,0.1295,0.1619,0.2134,0.2843,0.2671,0.0,0.0,0.0,0.0,0.2719,0.0,0.4075,0.0,0.6378,0.7242,0.7885,0.86,0.9286,0.9802,0.9645,1.0153,1.087,1.0671,1.0772,1.092,1.043,1.0283,1.0283,1.0283,1.0801,1.1602,1.2357,1.3539,1.4716,1.5483,1.6095,1.6522,1.6522,1.6522,1.6522,1.6522,1.7105,1.7787,1.8066,1.8535,1.8579,1.7558,1.6775,1.6099,1.5684,1.5762,1.5828,1.5697,1.6194,1.6359,1.5811,1.5632,1.5196,1.4308,1.4019,1.3801,1.3478,1.3433,1.4012,1.5294,1.5148,1.5889,1.7824,1.8884,1.9651,2.0183,2.0213,2.0213,2.0183,1.9839,1.969,1.969,1.969,1.969,1.969,1.969,1.951,1.9211,1.9211,1.9105,1.8973,1.8801,1.8973,1.929,1.9353,1.9514,1.9766,-0.8668,-0.812,-0.755,-0.6934,-0.5879,-0.501,-0.4799,-0.4181,-0.3764,-0.3792,-0.3978,-0.3976,-0.3626,-0.3674,-0.4011,-0.4699,-0.4047,-0.3891,-0.4554,-0.3533,-0.263,-0.2008,-0.1294,-0.0402,0.067,0.1429,0.1976,0.2337,0.2742,0.2834,0.269,0.0,0.0,0.3056,0.3966,0.4934,0.5945,0.6914,0.7695,0.8373,0.9188,0.9919,1.0553,1.0793,1.1245,1.1734,1.1636,1.1606,1.1498,1.0822,1.0488,1.04,1.0312,1.0858,1.1686,1.2508,1.3638,1.4785,1.5661,1.6183,1.6522,1.6522,1.6522,1.6522,1.6522,1.7229,1.7947,1.7947,1.8263,1.8236,1.7131,1.651,1.6104,1.5834,1.5548,1.5485,1.5839,1.6173,1.6222,1.5847,1.5531,1.5185,1.465,1.4166,1.371,1.3259,1.3585,1.4151,1.4884,1.4897,1.5684,1.7506,1.85,1.9229,1.969,2.0228,2.0288,1.9899,1.975,1.969,1.969,1.969,1.969,1.969,1.969,1.969,1.969,1.969,1.969,1.969,1.969,1.9909,2.0193,2.028,2.0516,2.0847,-0.7606,-0.7132,-0.6662,-0.5797,-0.4601,-0.3748,-0.3748,-0.2867,-0.2596,-0.3672,-0.3808,-0.3778,-0.3598,-0.3598,-0.3653,-0.3746,-0.3636,-0.3629,-0.3732,-0.3585,-0.3262,-0.263,-0.151,-0.0577,0.0089,0.1203,0.2136,0.2823,0.2471,0.239,0.2614,0.2669,0.3201,0.4089,0.4733,0.5791,0.7136,0.7389,0.8315,0.9629,0.9703,1.0519,1.1617,1.128,1.1575,1.2109,1.1753,1.1606,1.1596,1.1508,1.1224,1.0781,1.04,1.1606,1.32,1.3286,1.4726,1.6286,1.6378,1.6471,1.6522,1.6522,1.6522,1.6522,1.6522,1.6951,1.7394,1.7394,1.7435,1.7343,1.6977,1.6662,1.6363,1.6123,1.6701,1.6986,1.6506,1.6941,1.6977,1.6162,1.5822,1.554,1.5247,1.4942,1.4563,1.4044,1.3714,1.4128,1.5528,1.5475,1.5951,1.7129,1.8064,1.8903,1.9675,1.975,2.0064,2.0617,1.9989,1.969,1.969,1.969,1.969,1.969,1.969,1.969,1.969,1.969,1.969,1.969,1.969,1.9711,1.9818,2.0158,2.0348,2.0467,-0.7071,-0.662,-0.607,-0.5053,-0.4189,-0.3508,-0.321,-0.2523,-0.2262,-0.3049,-0.2812,-0.2564,-0.2506,-0.2499,-0.2679,-0.3043,-0.3043,-0.322,-0.3578,-0.3262,-0.2943,-0.2719,-0.1552,-0.0787,-0.0556,0.0649,0.1363,0.1566,0.2123,0.2386,0.2384,0.3282,0.4354,0.5542,0.6136,0.6877,0.7698,0.8531,0.922,0.9865,1.0685,1.1334,1.1846,1.2108,1.2416,1.2598,1.2422,1.24,1.2361,1.2051,1.166,1.127,1.1145,1.187,1.2946,1.3636,1.4642,1.568,1.6333,1.6271,1.6107,1.6434,1.6271,1.6107,1.6446,1.6909,1.7312,1.7312,1.7312,1.7059,1.6308,1.6074,1.6099,1.6309,1.638,1.6409,1.6509,1.6722,1.6741,1.6372,1.5948,1.5646,1.5551,1.5143,1.5005,1.5274,1.4469,1.4114,1.4371,1.498,1.5821,1.6905,1.8198,1.9132,1.9686,2.0086,2.0228,2.0094,1.9824,1.969,1.969,1.969,1.969,1.969,1.969,1.969,1.969,1.969,1.969,1.969,1.969,1.969,1.9711,1.9874,1.9929,2.0035,-0.6196,-0.5898,-0.5457,-0.4295,-0.3565,-0.3049,-0.267,-0.194,-0.1524,-0.188,-0.1518,-0.1385,-0.1739,-0.1786,-0.2053,-0.2637,-0.2682,-0.286,-0.3306,-0.2943,-0.2627,-0.245,-0.147,-0.0894,-0.0904,0.0095,0.0802,0.1067,0.191,0.2357,0.2491,0.3825,0.5259,0.6679,0.7251,0.7721,0.8216,0.9322,0.9909,1.0167,1.1334,1.194,1.2187,1.2715,1.2881,1.2881,1.2881,1.2881,1.2832,1.2529,1.2335,1.2168,1.1744,1.2204,1.304,1.3842,1.4689,1.5492,1.6107,1.5994,1.5756,1.5969,1.5856,1.5793,1.6183,1.6552,1.6777,1.6649,1.6569,1.6423,1.5812,1.5693,1.5881,1.6421,1.6183,1.607,1.6459,1.6522,1.6459,1.638,1.5973,1.5734,1.5828,1.5381,1.5358,1.5924,1.5516,1.5006,1.4541,1.5441,1.6243,1.6903,1.8412,1.9302,1.9452,2.0283,2.0363,1.969,1.969,1.969,1.969,1.969,1.969,1.969,1.969,1.969,1.969,1.969,1.969,1.969,1.969,1.969,1.969,1.969,1.9782,1.9909,-0.4774,-0.4832,-0.4696,-0.334,-0.2628,-0.2186,-0.2055,-0.0874,-0.0045,-0.0045,-0.0045,-0.0493,-0.165,-0.1786,-0.2051,-0.263,-0.2719,-0.2719,-0.2719,-0.2719,-0.245,-0.183,-0.1207,-0.0913,-0.0903,-0.0286,0.068,0.1959,0.1886,0.2225,0.3122,0.4106,0.5565,0.7319,0.7726,0.825,0.885,0.951,1.0167,1.0864,1.1516,1.2236,1.2881,1.2881,1.2881,1.2881,1.2881,1.2881,1.2881,1.2871,1.3266,1.3516,1.2152,1.2813,1.4084,1.4104,1.5237,1.6384,1.5856,1.5706,1.5567,1.5067,1.5291,1.5693,1.5706,1.5706,1.5583,1.5041,1.4928,1.5092,1.5593,1.5693,1.5881,1.6421,1.6509,1.6509,1.6522,1.6522,1.6405,1.616,1.5868,1.5815,1.6083,1.5856,1.568,1.5693,1.671,1.7219,1.6866,1.7449,1.7601,1.7212,1.8686,1.9254,1.8798,2.0062,2.0363,1.969,1.969,1.969,1.969,1.969,1.969,1.969,1.969,1.969,1.969,1.969,1.969,1.969,1.969,1.969,1.969,1.969,1.9929,2.028,-0.3815,-0.3433,-0.2823,-0.1915,-0.1592,-0.1413,-0.1283,-0.0516,-0.0135,-0.0538,0.009,0.0313,-0.0493,-0.0583,-0.0806,-0.1429,-0.1474,-0.1652,-0.2051,-0.1697,-0.1563,-0.1784,-0.0828,-0.047,-0.0904,0.0195,0.0947,0.1411,0.2236,0.3587,0.5385,0.6206,0.7185,0.8313,0.8473,0.8631,0.8857,0.951,1.0167,1.0864,1.1516,1.2236,1.2881,1.2881,1.2881,1.2881,1.2881,1.2881,1.2968,1.3372,1.3637,1.3782,1.38,1.4159,1.4561,1.4595,1.4988,1.5354,1.5178,1.489,1.4664,1.4865,1.5041,1.5229,1.5618,1.5693,1.5429,1.4538,1.4651,1.4966,1.5103,1.5442,1.5881,1.6421,1.6522,1.6522,1.6522,1.6151,1.6034,1.6313,1.5579,1.5219,1.5697,1.5582,1.5506,1.5635,1.6242,1.6218,1.5172,1.7015,1.7727,1.696,1.8835,1.9925,2.0158,2.0524,2.0602,2.0378,1.9914,1.969,1.969,1.969,1.969,1.969,1.969,1.969,1.969,1.969,1.969,1.969,1.969,1.969,1.969,1.969,1.9782,1.9909,-0.2621,-0.2356,-0.1943,-0.1184,-0.1071,-0.1068,-0.0919,-0.0185,0.0135,-0.0493,0.0313,0.0672,0.0045,0.0,-0.0224,-0.0851,-0.0895,-0.1073,-0.1429,-0.1118,-0.085,-0.0803,0.0,0.0336,0.0194,0.1058,0.1654,0.1939,0.3341,0.484,0.6482,0.7217,0.7988,0.8804,0.8804,0.8804,0.8857,0.951,1.0167,1.0864,1.1516,1.2236,1.2881,1.2881,1.2881,1.2881,1.2881,1.2881,1.2968,1.36,1.3956,1.4228,1.4914,1.5265,1.5411,1.5205,1.5307,1.5392,1.5029,1.4664,1.4374,1.4274,1.4412,1.4689,1.5029,1.5229,1.5078,1.4009,1.4223,1.4664,1.4865,1.5329,1.5881,1.6421,1.6522,1.6423,1.6182,1.582,1.5676,1.5876,1.5141,1.4824,1.5309,1.5265,1.5434,1.5863,1.6527,1.6568,1.5802,1.7307,1.8012,1.7644,1.9347,2.0233,2.0116,2.0499,2.0469,2.0041,1.9811,1.969,1.969,1.969,1.969,1.969,1.969,1.969,1.969,1.969,1.969,1.969,1.969,1.969,1.969,1.969,1.969,1.969,-0.1396,-0.1613,-0.1794,-0.0972,-0.0956,-0.0978,-0.0818,0.0134,0.0672,0.0135,0.0583,0.0716,0.0135,0.0135,-0.0045,-0.0671,-0.076,-0.076,-0.076,-0.0716,-0.0223,0.0895,0.1072,0.1403,0.2002,0.2182,0.2692,0.3453,0.4882,0.5928,0.6696,0.745,0.8156,0.8804,0.8804,0.8804,0.8857,0.9465,1.0167,1.0864,1.1466,1.2187,1.2881,1.2881,1.2881,1.2881,1.2881,1.2881,1.3017,1.3647,1.4236,1.4789,1.5454,1.6051,1.6409,1.5856,1.6057,1.622,1.5155,1.4853,1.4563,1.3461,1.3647,1.4085,1.4085,1.4513,1.4576,1.3473,1.3722,1.4311,1.4865,1.5354,1.5786,1.6336,1.638,1.6194,1.5632,1.5499,1.532,1.4949,1.464,1.4569,1.4868,1.506,1.546,1.6267,1.7178,1.7845,1.8182,1.8204,1.8455,1.8958,2.0124,2.0233,1.912,2.0185,2.0122,1.904,1.9561,1.9794,1.975,1.975,1.975,1.975,1.9705,1.969,1.969,1.969,1.969,1.969,1.969,1.969,1.969,1.969,1.969,1.969,-0.1167,-0.0804,-0.0467,-0.0262,-0.0245,-0.0093,0.0421,0.032,0.0314,0.0627,0.1207,0.134,0.0761,0.1518,0.1828,0.1204,0.076,0.0492,0.0492,0.0893,0.1294,0.1563,0.172,0.1861,0.1973,0.2718,0.3708,0.4992,0.5873,0.6691,0.7456,0.8209,0.8646,0.8804,0.8804,0.8804,0.8804,0.8962,0.971,1.0813,1.0965,1.1792,1.2881,1.2881,1.2881,1.2881,1.2881,1.2881,1.3065,1.4107,1.456,1.488,1.5964,1.638,1.6409,1.5856,1.5781,1.5643,1.4576,1.4286,1.411,1.3361,1.3647,1.4085,1.4085,1.4513,1.4714,1.4035,1.4337,1.4878,1.5392,1.5237,1.5187,1.5736,1.5421,1.5062,1.4926,1.4503,1.4449,1.5155,1.4352,1.4063,1.497,1.4625,1.4686,1.5485,1.5773,1.6582,1.8144,1.8204,1.8455,1.8958,1.9674,2.0129,2.0351,2.0639,2.0628,2.0264,2.0938,2.0961,2.0468,2.0468,2.0468,2.0438,1.9914,1.969,1.969,1.969,1.969,1.969,1.969,1.969,1.969,1.969,1.969,1.969,-0.0651,-0.0265,0.0104,0.0424,0.0203,0.0341,0.1318,0.1134,0.0967,0.1334,0.1896,0.1962,0.1385,0.1873,0.214,0.183,0.1518,0.1295,0.1295,0.1607,0.1934,0.2292,0.2433,0.2654,0.3001,0.3588,0.4422,0.5487,0.6578,0.7289,0.7723,0.848,0.8804,0.8804,0.8804,0.8804,0.8804,0.9113,0.9865,1.0813,1.1116,1.194,1.2881,1.2881,1.2881,1.2881,1.2881,1.3055,1.3467,1.4387,1.488,1.5287,1.6207,1.6522,1.6409,1.5856,1.5693,1.5505,1.4689,1.4274,1.4009,1.3672,1.3852,1.4174,1.4412,1.489,1.509,1.4576,1.4903,1.5249,1.5303,1.5199,1.5191,1.5196,1.4676,1.4238,1.4297,1.392,1.3924,1.4641,1.4365,1.434,1.4891,1.5093,1.5351,1.567,1.6428,1.7379,1.852,1.8807,1.907,1.9371,1.966,1.9838,1.9997,2.0226,2.0485,2.072,2.1382,2.1515,2.1171,2.1171,2.0991,2.0692,2.0318,1.9974,1.969,1.969,1.969,1.972,2.0034,2.0154,2.0183,2.0498,2.0602,2.0602,-0.0106,0.0,0.0213,0.0849,0.0529,0.0627,0.1972,0.2006,0.1912,0.2089,0.2498,0.2537,0.2027,0.2084,0.2137,0.2137,0.2137,0.2086,0.1982,0.207,0.2386,0.3055,0.318,0.355,0.4194,0.4494,0.5058,0.581,0.7069,0.7777,0.7883,0.848,0.8804,0.8804,0.8804,0.8804,0.8857,0.951,1.0167,1.0864,1.1516,1.2236,1.2881,1.2881,1.2881,1.2881,1.2881,1.3238,1.3779,1.4468,1.5062,1.5588,1.6194,1.6318,1.6181,1.5711,1.5447,1.524,1.489,1.4437,1.4085,1.4085,1.4161,1.4347,1.4787,1.5291,1.5567,1.509,1.5389,1.5517,1.5012,1.5128,1.5141,1.4652,1.4003,1.3613,1.3679,1.3556,1.367,1.4033,1.4521,1.4805,1.4873,1.5808,1.6415,1.6405,1.7781,1.8766,1.9108,1.956,1.9798,1.9798,1.9798,1.9636,1.9294,1.9787,2.0311,2.0881,2.1524,2.1853,2.1844,2.1844,2.1545,2.1006,2.0902,2.0528,1.9989,1.9989,1.9989,2.0049,2.0632,2.0857,2.0932,2.1485,2.1695,2.1695,0.0,0.0,0.0053,0.016,0.0571,0.1167,0.1913,0.2103,0.2266,0.2716,0.2914,0.2975,0.2733,0.3291,0.3654,0.3654,0.3654,0.3408,0.2778,0.3193,0.3586,0.3831,0.3977,0.4066,0.4197,0.4973,0.6032,0.7343,0.7616,0.7996,0.8646,0.8752,0.8804,0.8804,0.8804,0.8804,0.8857,0.951,1.0167,1.0864,1.1516,1.2236,1.2881,1.2881,1.2881,1.2881,1.2881,1.2968,1.32,1.434,1.4744,1.4971,1.5543,1.5519,1.5199,1.4933,1.4252,1.368,1.4125,1.4148,1.4085,1.4085,1.445,1.4787,1.4864,1.5291,1.5668,1.558,1.5605,1.56,1.5469,1.4722,1.405,1.3956,1.3406,1.3024,1.3055,1.3333,1.3635,1.4072,1.4521,1.4922,1.5283,1.5751,1.6374,1.7332,1.7915,1.8651,1.9609,1.9761,1.9798,1.9798,1.9798,2.0016,2.0529,2.062,2.098,2.1557,2.2235,2.2541,2.2517,2.2517,2.2473,2.2338,2.1784,2.1485,2.138,2.138,2.138,2.1395,2.15,2.1545,2.156,2.1665,2.1695,2.1695,0.0,0.0,0.0266,0.1033,0.124,0.176,0.3139,0.2987,0.2882,0.3542,0.3574,0.3544,0.348,0.3778,0.4019,0.4019,0.4019,0.3873,0.3633,0.3736,0.386,0.4012,0.4036,0.4351,0.4889,0.6093,0.7009,0.7723,0.8103,0.848,0.8804,0.8804,0.8804,0.8804,0.9159,0.9361,0.9413,1.0415,1.1065,1.1416,1.2089,1.2608,1.2881,1.2881,1.2881,1.2881,1.2881,1.3104,1.3467,1.4014,1.4303,1.4451,1.497,1.485,1.4491,1.4338,1.4166,1.4075,1.4048,1.4083,1.4221,1.4813,1.4958,1.5097,1.5652,1.5957,1.6048,1.5727,1.5608,1.5398,1.4767,1.4179,1.3757,1.3638,1.3096,1.287,1.3496,1.3627,1.3854,1.4434,1.4863,1.5205,1.5391,1.6273,1.706,1.7556,1.8501,1.9267,1.9786,1.9798,1.9798,1.9798,1.9798,1.9952,2.0258,2.0597,2.0944,2.1244,2.2232,2.2685,2.2688,2.3048,2.2996,2.2667,2.2353,2.2024,2.1695,2.1695,2.1695,2.1739,2.2084,2.2218,2.2263,2.2592,2.2712,2.2712,0.0213,0.0267,0.0644,0.1997,0.2065,0.2456,0.4015,0.3767,0.3587,0.4144,0.4175,0.4111,0.4077,0.4104,0.4121,0.4121,0.4121,0.4223,0.4499,0.4293,0.4188,0.4264,0.4418,0.4939,0.59,0.7095,0.7777,0.7937,0.854,0.8804,0.8804,0.8804,0.8804,0.8804,0.951,0.9814,0.9865,1.1216,1.1814,1.1864,1.2608,1.2881,1.2881,1.2881,1.2881,1.2881,1.2881,1.32,1.36,1.3732,1.3906,1.4083,1.4404,1.4182,1.3817,1.3717,1.4105,1.4448,1.3906,1.4125,1.4639,1.5323,1.5396,1.5508,1.6151,1.6281,1.6107,1.5511,1.5357,1.5028,1.4116,1.3876,1.3828,1.3645,1.3208,1.3195,1.4126,1.4125,1.4289,1.4883,1.5215,1.5468,1.5642,1.6856,1.7688,1.7841,1.9044,1.9798,1.9798,1.9798,1.9798,1.9798,1.9798,1.9798,1.9798,2.0295,2.066,2.0795,2.1799,2.242,2.2694,2.3201,2.3197,2.2892,2.2892,2.2607,2.2143,2.2143,2.2143,2.2188,2.2697,2.2892,2.2951,2.343,2.3595,2.3595,0.088,0.1002,0.128,0.2063,0.2732,0.3234,0.3456,0.4006,0.4344,0.4214,0.4355,0.4379,0.4194,0.4351,0.4484,0.4484,0.4484,0.4758,0.5358,0.5291,0.5139,0.5039,0.5654,0.6391,0.7161,0.7495,0.8049,0.8699,0.8752,0.8804,0.8804,0.8804,0.8804,0.8804,0.951,0.9814,0.9865,1.1216,1.1814,1.1864,1.2608,1.2881,1.2881,1.2881,1.2881,1.2881,1.2881,1.2929,1.3065,1.36,1.3794,1.382,1.3852,1.3545,1.317,1.303,1.3416,1.3747,1.3213,1.4305,1.5467,1.4965,1.5648,1.6244,1.5764,1.5676,1.5499,1.488,1.462,1.4437,1.4398,1.4205,1.4053,1.4082,1.4009,1.4145,1.4678,1.4736,1.4893,1.5312,1.5391,1.57,1.6368,1.7146,1.7895,1.8555,1.9371,1.9798,1.9798,1.9798,1.9798,1.9798,1.9798,1.9798,1.9798,1.985,2.0207,2.0795,2.0894,2.1561,2.2694,2.2754,2.3039,2.3535,2.3535,2.3505,2.346,2.346,2.346,2.346,2.3505,2.3535,2.3535,2.358,2.3595,2.3595,0.1052,0.1732,0.24,0.2788,0.3511,0.407,0.407,0.4294,0.4498,0.4389,0.4429,0.4494,0.4389,0.4429,0.468,0.5109,0.5109,0.5437,0.615,0.6133,0.6029,0.5897,0.6606,0.7195,0.7518,0.8106,0.8533,0.8804,0.8804,0.8804,0.8804,0.8804,0.9008,0.9465,1.0115,1.0661,1.1116,1.2089,1.2501,1.2501,1.2774,1.2881,1.2881,1.2881,1.2881,1.2881,1.2881,1.2881,1.2929,1.3152,1.3057,1.2876,1.3148,1.2936,1.2563,1.284,1.3334,1.3648,1.3094,1.4272,1.5476,1.4875,1.5325,1.5776,1.5186,1.505,1.488,1.4283,1.427,1.4302,1.3932,1.4222,1.4531,1.4531,1.498,1.5381,1.5547,1.5811,1.6045,1.6211,1.6698,1.7111,1.7399,1.8621,1.9477,1.9701,2.0138,2.0338,2.0338,1.9999,1.9798,1.9798,1.9798,1.9798,1.9798,1.9798,1.9952,2.0207,2.0963,2.1526,2.206,2.2847,2.313,2.2994,2.3408,2.3377,2.3054,2.3465,2.3595,2.3595,2.3595,2.3595,2.3595,2.3595,2.3595,2.3595,0.1719,0.2512,0.3236,0.3624,0.4125,0.4519,0.4519,0.4519,0.4519,0.4519,0.4519,0.457,0.4787,0.4787,0.5113,0.576,0.5873,0.6145,0.6912,0.7182,0.7125,0.6678,0.7386,0.7833,0.7921,0.8488,0.8804,0.8804,0.8804,0.8804,0.8804,0.8804,0.9159,0.9814,1.0517,1.1166,1.1864,1.2608,1.2881,1.2881,1.2881,1.2881,1.2881,1.2881,1.2881,1.2881,1.2881,1.2881,1.2881,1.2881,1.2686,1.249,1.2783,1.2676,1.249,1.2793,1.319,1.342,1.3017,1.392,1.496,1.4514,1.4869,1.5141,1.456,1.4543,1.4406,1.3807,1.4133,1.4388,1.4001,1.4609,1.5186,1.5186,1.5801,1.6318,1.6455,1.6621,1.6841,1.7276,1.7719,1.8169,1.8704,1.9773,2.0493,2.0722,2.0841,2.097,2.097,2.0388,2.015,2.0326,2.0326,2.0326,2.0326,2.0162,2.0162,2.0338,2.1183,2.1681,2.1878,2.2789,2.3025,2.2862,2.3349,2.3409,2.3285,2.3699,2.403,2.4223,2.4223,2.4223,2.4208,2.3999,2.3924,2.3924,0.3154,0.3287,0.3566,0.4349,0.4519,0.4519,0.4519,0.4519,0.4519,0.4519,0.4519,0.4787,0.5433,0.5487,0.5814,0.6534,0.6588,0.6912,0.767,0.8374,0.8358,0.7353,0.8018,0.8377,0.8377,0.8657,0.8804,0.8804,0.8804,0.8804,0.8804,0.8811,0.9159,0.9814,1.0517,1.1166,1.1864,1.2608,1.2881,1.2881,1.2881,1.2881,1.2881,1.2881,1.2881,1.2881,1.2881,1.2881,1.2881,1.2881,1.2881,1.2881,1.2881,1.2881,1.2881,1.2881,1.2881,1.2881,1.2881,1.3334,1.3779,1.3779,1.4247,1.4525,1.392,1.4125,1.4212,1.3659,1.4189,1.4785,1.4785,1.5498,1.6135,1.6135,1.6445,1.6894,1.7324,1.7012,1.7203,1.8426,1.827,1.8654,2.0262,2.0435,2.0734,2.145,2.1493,2.1493,2.1493,2.102,2.097,2.1468,2.1493,2.1493,2.1493,2.0941,2.0941,2.1493,2.1493,2.1801,2.243,2.243,2.2777,2.3393,2.3393,2.3803,2.4468,2.4482,2.4936,2.5615,2.5615,2.5615,2.554,2.4821,2.4582,2.4582,0.3282,0.3735,0.4236,0.446,0.4519,0.4519,0.4519,0.4519,0.468,0.5164,0.5218,0.5492,0.6204,0.6258,0.6583,0.7289,0.7396,0.767,0.8427,0.8699,0.8659,0.8358,0.8567,0.8677,0.8677,0.8764,0.8804,0.8804,0.8804,0.8804,0.8804,0.9263,0.9865,1.0517,1.1216,1.1882,1.2608,1.2822,1.2881,1.2881,1.2881,1.2881,1.2881,1.2881,1.2881,1.2881,1.2881,1.2881,1.2881,1.2881,1.2881,1.2881,1.2881,1.2881,1.2881,1.2881,1.2881,1.2881,1.2881,1.3234,1.3531,1.3222,1.3838,1.4348,1.374,1.388,1.4136,1.3945,1.4629,1.5225,1.5225,1.6191,1.6885,1.6582,1.7148,1.7568,1.7402,1.8026,1.8692,1.9078,2.0054,2.0912,2.1414,2.1957,2.2399,2.2589,2.2284,2.1895,2.1506,2.133,2.1317,2.1481,2.1493,2.1681,2.2071,2.1518,2.133,2.1493,2.1882,2.2173,2.2331,2.2812,2.2701,2.2105,2.2989,2.3363,2.3301,2.4134,2.4936,2.5615,2.5615,2.5615,2.554,2.4821,2.4582,2.4507,0.379,0.4181,0.4519,0.4519,0.4732,0.4893,0.4893,0.5117,0.5496,0.5873,0.5928,0.6199,0.6966,0.6966,0.7235,0.8049,0.8156,0.8321,0.8752,0.8804,0.8804,0.8804,0.8804,0.8804,0.8804,0.8804,0.8804,0.8804,0.9061,0.9211,0.9211,0.9865,1.0559,1.1216,1.1616,1.2187,1.2881,1.2881,1.2881,1.2881,1.2881,1.2881,1.2881,1.2881,1.2881,1.2881,1.2881,1.2881,1.2881,1.2881,1.2881,1.2881,1.2881,1.2881,1.2881,1.2881,1.2998,1.3135,1.3135,1.3437,1.3691,1.3437,1.3851,1.4185,1.3802,1.4092,1.4394,1.4394,1.5078,1.5674,1.5674,1.6611,1.7295,1.7031,1.7568,1.8055,1.8111,1.8812,1.9562,2.0268,2.1239,2.2013,2.2322,2.2823,2.3078,2.3078,2.2623,2.2259,2.2146,2.1933,2.192,2.2133,2.2133,2.2297,2.2636,2.2297,2.2133,2.2146,2.2472,2.2636,2.2636,2.3019,2.2828,2.2191,2.2946,2.3487,2.382,2.4559,2.5445,2.6378,2.6378,2.6378,2.6273,2.536,2.5016,2.4911,0.4519,0.4519,0.4519,0.4519,0.5054,0.5487,0.5487,0.6145,0.6642,0.6696,0.6696,0.6966,0.7723,0.7616,0.7889,0.8699,0.8804,0.8804,0.8804,0.8804,0.8804,0.8804,0.8804,0.8804,0.891,0.8857,0.8804,0.891,0.951,0.9814,0.9917,1.0568,1.1216,1.1814,1.1864,1.2295,1.2881,1.2881,1.2881,1.2881,1.2881,1.2881,1.2881,1.2881,1.2881,1.2881,1.2881,1.2881,1.2881,1.2881,1.29,1.2939,1.2939,1.2959,1.2998,1.2998,1.3262,1.3564,1.3564,1.3877,1.4145,1.4184,1.4223,1.4287,1.4155,1.4561,1.4902,1.4902,1.5576,1.6243,1.6243,1.6875,1.7441,1.7441,1.7764,1.8269,1.9177,1.9365,2.0009,2.169,2.1939,2.2347,2.308,2.319,2.3203,2.3153,2.2749,2.2661,2.3053,2.2661,2.2623,2.3053,2.3078,2.3078,2.3078,2.3078,2.3078,2.3078,2.3078,2.3078,2.3078,2.3078,2.3053,2.3062,2.3173,2.4008,2.5315,2.5425,2.6322,2.7625,2.7625,2.7625,2.7425,2.6153,2.5689,2.56,0.4519,0.4519,0.4519,0.4519,0.5054,0.5487,0.5487,0.6145,0.6804,0.7402,0.7348,0.7563,0.848,0.854,0.8586,0.8811,0.8804,0.8804,0.8804,0.8804,0.8804,0.8804,0.8804,0.9061,0.9562,0.9061,0.9061,0.9562,0.9718,1.0064,1.0618,1.1266,1.1665,1.1814,1.2393,1.2764,1.2881,1.2881,1.2881,1.2881,1.2881,1.2881,1.2881,1.2881,1.2881,1.2881,1.2881,1.2881,1.2881,1.2881,1.3096,1.3369,1.3369,1.3603,1.3857,1.3857,1.3873,1.3941,1.3941,1.4316,1.4727,1.5049,1.5391,1.5469,1.4795,1.5234,1.5841,1.5841,1.6484,1.71,1.71,1.7529,1.7871,1.7871,1.7949,1.8269,1.9177,1.9879,2.0719,2.1753,2.2445,2.3058,2.3766,2.4205,2.428,2.3841,2.3703,2.3489,2.309,2.2965,2.2952,2.3078,2.3078,2.3078,2.3078,2.3078,2.3078,2.3078,2.3078,2.3078,2.3078,2.3078,2.2899,2.251,2.3573,2.4286,2.4801,2.5856,2.6774,2.7625,2.7625,2.7625,2.752,2.6677,2.6378,2.6288,0.4519,0.4732,0.5003,0.5003,0.5873,0.6573,0.6573,0.7176,0.7777,0.8156,0.8156,0.8268,0.8752,0.8804,0.8804,0.8804,0.8804,0.8804,0.8804,0.8804,0.8804,0.8804,0.9113,0.9465,0.9814,0.9762,0.9917,1.0261,1.0618,1.0914,1.1316,1.1981,1.2344,1.2344,1.2715,1.2881,1.2881,1.2881,1.2881,1.2881,1.2881,1.2881,1.29,1.3105,1.3184,1.3184,1.3184,1.3184,1.3213,1.3408,1.3623,1.3809,1.3809,1.3902,1.4077,1.4077,1.4369,1.4697,1.4502,1.4912,1.5449,1.5664,1.5889,1.6006,1.5771,1.6064,1.6387,1.6387,1.6914,1.7383,1.7383,1.7725,1.8076,1.8281,1.8144,1.8532,1.9983,2.0676,2.1468,2.2773,2.3517,2.4054,2.4356,2.4657,2.4695,2.4406,2.4393,2.4255,2.3954,2.3941,2.3941,2.3941,2.3941,2.3941,2.3941,2.3678,2.3552,2.354,2.3263,2.3078,2.3078,2.3078,2.2975,2.2723,2.3813,2.4549,2.4983,2.6087,2.693,2.7625,2.7625,2.7408,2.7012,2.635,2.5859,2.56,0.4716,0.5242,0.5706,0.5706,0.6825,0.7788,0.7788,0.8429,0.8958,0.8958,0.8871,0.8804,0.8804,0.8804,0.8804,0.8804,0.8804,0.8804,0.8804,0.8804,0.8857,0.8962,0.951,0.9917,1.0167,1.0777,1.1032,1.0965,1.1516,1.1864,1.1972,1.2608,1.2881,1.2881,1.2881,1.2881,1.2881,1.2959,1.2949,1.2891,1.2959,1.2988,1.3027,1.3379,1.3555,1.3613,1.3613,1.3613,1.3662,1.4014,1.4126,1.4248,1.4248,1.4297,1.4365,1.4443,1.4961,1.5459,1.5195,1.5635,1.6201,1.6331,1.6351,1.6406,1.6855,1.6894,1.6846,1.6846,1.7187,1.749,1.749,1.7908,1.834,1.8765,1.8675,1.9313,2.1297,2.1708,2.2325,2.3941,2.4619,2.4958,2.4958,2.5046,2.5059,2.4958,2.4958,2.4921,2.4833,2.482,2.482,2.482,2.482,2.482,2.482,2.4368,2.4142,2.413,2.3653,2.3265,2.3078,2.3078,2.3078,2.3125,2.3943,2.4624,2.5287,2.6014,2.6654,2.724,2.724,2.6864,2.6226,2.5683,2.5134,2.4753,0.5592,0.605,0.648,0.648,0.7406,0.8114,0.8114,0.894,0.9566,0.9566,0.9118,0.8804,0.8804,0.8804,0.8804,0.8804,0.8804,0.8804,0.8804,0.8804,0.9061,0.9666,0.9762,1.0364,1.1516,1.2022,1.2082,1.1665,1.1765,1.2129,1.2764,1.2832,1.2881,1.2881,1.2881,1.2881,1.29,1.3271,1.3213,1.291,1.3271,1.3418,1.3428,1.3486,1.374,1.4,1.4,1.4,1.4009,1.4058,1.4385,1.4697,1.4697,1.4941,1.5312,1.5693,1.5879,1.6045,1.6377,1.6553,1.6728,1.7109,1.7207,1.7314,1.7734,1.7559,1.7295,1.7295,1.7627,1.793,1.793,1.8556,1.9323,1.9839,2.046,2.1464,2.2979,2.3195,2.3604,2.4578,2.5172,2.5485,2.5485,2.5937,2.6025,2.5523,2.5485,2.5297,2.4845,2.482,2.482,2.482,2.482,2.482,2.482,2.4745,2.4707,2.4707,2.4632,2.4079,2.3078,2.3078,2.3078,2.3125,2.3943,2.435,2.4509,2.5231,2.5618,2.5728,2.5728,2.5618,2.555,2.5466,2.541,2.5473,0.6216,0.692,0.7494,0.7494,0.8321,0.9023,0.9023,0.9426,0.9686,0.9686,0.9365,0.9051,0.8831,0.9098,0.9252,0.9145,0.9132,0.9038,0.8824,0.9372,0.9885,1.0196,1.1112,1.1911,1.2491,1.3113,1.327,1.3072,1.2846,1.2903,1.3232,1.2988,1.2881,1.2891,1.3125,1.3232,1.3262,1.3682,1.375,1.3603,1.3779,1.3857,1.3887,1.4131,1.4336,1.4561,1.5039,1.4902,1.4609,1.5342,1.5547,1.5547,1.5791,1.5996,1.6191,1.6377,1.6611,1.6787,1.6748,1.708,1.7432,1.7393,1.7734,1.8135,1.832,1.8408,1.8379,1.8135,1.8232,1.8437,1.8682,1.9473,2.0291,2.0744,2.1432,2.232,2.3668,2.3931,2.4389,2.5632,2.5937,2.6076,2.6076,2.6314,2.642,2.6101,2.6076,2.5975,2.5749,2.5737,2.5737,2.5737,2.5737,2.5737,2.5737,2.5423,2.5259,2.5247,2.4958,2.4393,2.3627,2.3941,2.3666,2.315,2.4281,2.4596,2.435,2.5119,2.5398,2.5398,2.5398,2.5398,2.5398,2.5398,2.5655,2.6174]},{"header":{"parameterUnit":"m.s-1","parameterCategory":1,"la1":30.6,"la2":28.766,"lo1":-90.7593,"lo2":-88.6598,"dy":0.0162,"dx":0.0183,"nx":116,"ny":114,"refTime":"2024-03-19T18:00:00:Z","depth":0,"parameterNumber":3,"parameterNumberName":"V-component_of_WINDS"},"data":[0.0,0.0,0.0,0.0,0.0,0.0,0.0,0.0,0.0,0.0,0.0,0.0,0.0,0.0,0.0,0.0,0.0,0.0,0.0,0.0,0.0,0.0,0.0,0.0,0.0,0.0,0.0,0.0,0.0,0.0,0.0,0.0,0.0,0.0,0.0,0.0,0.0,0.0,0.0,0.0,0.0,0.0,0.0,0.0,0.0,0.0,0.0,0.0,0.0,0.0,0.0,0.0,0.0,0.0,0.0,0.0,0.0,0.0,0.0,0.0,0.0,0.0,0.0,0.0,0.0,0.0,0.0,0.0,0.0,0.0,0.0,0.0,0.0,0.0,0.0,0.0,0.0,0.0,0.0,0.0,0.0,0.0,0.0,0.0,0.0,0.0,0.0,0.0,0.0,0.0,0.0,0.0,0.0,0.0,0.0,0.0,0.0,0.0,0.0,0.0,0.0,0.0,0.0,0.0,0.0,0.0,0.0,0.0,0.0,0.0,0.0,0.0,0.0,0.0,0.0,0.0,0.0,0.0,0.0,0.0,0.0,0.0,0.0,0.0,0.0,0.0,0.0,0.0,0.0,0.0,0.0,0.0,0.0,0.0,0.0,0.0,0.0,0.0,0.0,0.0,0.0,0.0,0.0,0.0,0.0,0.0,0.0,0.0,0.0,0.0,0.0,0.0,0.0,0.0,0.0,0.0,0.0,0.0,0.0,0.0,0.0,0.0,0.0,0.0,0.0,0.0,0.0,0.0,0.0,0.0,0.0,0.0,0.0,0.0,0.0,0.0,0.0,0.0,0.0,0.0,0.0,0.0,0.0,0.0,0.0,0.0,0.0,0.0,0.0,0.0,0.0,0.0,0.0,0.0,0.0,0.0,0.0,0.0,0.0,0.0,0.0,0.0,0.0,0.0,0.0,0.0,0.0,0.0,0.0,0.0,0.0,0.0,0.0,0.0,0.0,0.0,0.0,0.0,0.0,0.0,0.0,0.0,0.0,0.0,0.0,0.0,0.0,0.0,0.0,0.0,0.0,0.0,0.0,0.0,0.0,0.0,0.0,0.0,0.0,0.0,0.0,0.0,0.0,0.0,0.0,0.0,0.0,0.0,0.0,0.0,0.0,0.0,0.0,0.0,0.0,0.0,0.0,0.0,0.0,0.0,0.0,0.0,0.0,0.0,0.0,0.0,0.0,0.0,0.0,0.0,0.0,0.0,0.0,0.0,0.0,0.0,0.0,0.0,0.0,0.0,0.0,0.0,0.0,0.0,0.0,0.0,0.0,0.0,0.0,0.0,0.0,0.0,0.0,0.0,0.0,0.0,0.0,0.0,0.0,0.0,0.0,0.0,0.0,0.0,0.0,0.0,0.0,0.0,0.0,0.0,0.0,0.0,0.0,0.0,0.0,0.0,0.0,0.0,0.0,0.0,0.0,0.0,0.0,0.0,0.0,0.0,0.0,0.0,0.0,0.0,0.0,0.0,0.0,0.0,0.0,0.0,0.0,0.0,0.0,0.0,0.0,0.0,0.0,0.0,0.0,0.0,0.0,0.0,0.0,0.0,0.0,0.0,0.0,0.0,0.0,0.0,0.0,0.0,0.0,0.0,0.0,0.0,0.0,0.0,0.0,0.0,0.0,0.0,0.0,0.0,0.0,0.0,0.0,0.0,0.0,0.0,0.0,0.0,0.0,0.0,0.0,0.0,0.0,0.0,0.0,0.0,0.0,0.0,0.0,0.0,0.0,0.0,0.0,0.0,0.0,0.0,0.0,0.0,0.0,0.0,0.0,0.0,0.0,0.0,0.0,0.0,0.0,0.0,0.0,0.0,0.0,0.0,0.0,0.0,0.0,0.0,0.0,0.0,0.0,0.0,0.0,0.0,0.0,0.0,0.0,0.0,0.0,0.0,0.0,0.0,0.0,0.0,0.0,0.0,0.0,0.0,0.0,0.0,0.0,0.0,0.0,0.0,0.0,0.0,0.0,0.0,0.0,0.0,0.0,0.0,0.0,0.0,0.0,0.0,0.0,0.0,0.0,0.0,0.0,0.0,0.0,0.0,0.0,0.0,0.0,0.0,0.0,0.0,0.0,0.0,0.0,0.0,0.0,0.0,0.0,0.0,0.0,0.0,0.0,0.0,0.0,0.0,0.0,0.0,0.0,0.0,0.0,0.0,0.0,0.0,0.0,0.0,0.0,0.0,0.0,0.0,0.0,0.0,0.0,0.0,0.0,0.0,0.0,0.0,0.0,0.0,0.0,0.0,0.0,0.0,0.0,0.0,0.0,0.0,0.0,0.0,0.0,0.0,0.0,0.0,0.0,0.0,0.0,0.0,0.0,0.0,0.0,0.0,0.0,0.0,0.0,0.0,0.0,0.0,0.0,0.0,0.0,0.0,0.0,0.0,0.0,0.0,0.0,0.0,0.0,0.0,0.0,0.0,0.0,0.0,0.0,0.0,0.0,0.0,0.0,0.0,0.0,0.0,0.0,0.0,0.0,0.0,0.0,0.0,0.0,0.0,0.0,0.0,0.0,0.0,0.0,0.0,0.0,0.0,0.0,0.0,0.0,0.0,0.0,0.0,0.0,0.0,0.0,0.0,0.0,0.0,0.0,0.0,0.0,0.0,0.0,0.0,0.0,0.0,0.0,0.0,0.0,0.0,0.0,0.0,0.0,0.0,0.0,0.0,0.0,0.0,0.0,0.0,0.0,0.0,0.0,0.0,0.0,0.0,0.0,0.0,0.0,0.0,0.0,0.0,0.0,0.0,0.0,0.0,0.0,0.0,0.0,0.0,0.0,0.0,0.0,0.0,0.0,0.0,0.0,0.0,0.0,0.0,0.0,0.0,0.0,0.0,0.0,0.0,0.0,0.0,0.0,0.0,0.0,0.0,0.0,0.0,0.0,0.0,0.0,0.0,0.0,0.0,0.0,0.0,0.0,0.0,0.0,0.0,0.0,0.0,0.0,0.0,0.0,0.0,0.0,0.0,0.0,0.0,0.0,0.0,0.0,0.0,0.0,0.0,0.0,0.0,0.0,0.0,0.0,0.0,0.0,0.0,0.0,0.0,0.0,0.0,0.0,0.0,0.0,0.0,0.0,0.0,0.0,0.0,0.0,0.0,0.0,0.0,0.0,0.0,0.0,0.0,0.0,0.0,0.0,0.0,0.0,0.0,0.0,0.0,0.0,0.0,0.0,0.0,0.0,0.0,0.0,0.0,0.0,0.0,0.0,0.0,0.0,0.0,0.0,0.0,0.0,0.0,0.0,0.0,0.0,0.0,0.0,0.0,0.0,0.0,0.0,0.0,0.0,0.0,0.0,0.0,0.0,0.0,0.0,0.0,0.0,0.0,0.0,0.0,0.0,0.0,0.0,0.0,0.0,0.0,0.0,0.0,0.0,0.0,0.0,0.0,0.0,0.0,0.0,0.0,0.0,0.0,0.0,0.0,0.0,0.0,0.0,0.0,0.0,0.0,0.0,0.0,0.0,0.0,0.0,0.0,0.0,0.0,0.0,0.0,0.0,0.0,0.0,0.0,0.0,0.0,0.0,0.0,0.0,0.0,0.0,0.0,0.0,0.0,0.0,0.0,0.0,0.0,0.0,0.0,0.0,0.0,0.0,0.0,0.0,0.0,0.0,0.0,0.0,0.0,0.0,0.0,0.0,0.0,0.0,0.0,0.0,0.0,0.0,0.0,0.0,0.0,0.0,0.0,0.0,0.0,0.0,0.0,0.0,0.0,0.0,0.0,0.0,0.0,0.0,0.0,0.0,0.0,0.0,0.0,0.0,0.0,0.0,0.0,0.0,0.0,0.0,0.0,0.0,0.0,0.0,0.0,0.0,0.0,0.0,0.0,0.0,0.0,0.0,0.0,0.0,0.0,0.0,0.0,0.0,0.0,0.0,0.0,0.0,0.0,0.0,0.0,0.0,0.0,0.0,0.0,0.0,0.0,0.0,0.0,0.0,0.0,0.0,0.0,0.0,0.0,0.0,0.0,0.0,0.0,0.0,0.0,0.0,0.0,0.0,0.0,0.0,0.0,0.0,0.0,0.0,0.0,0.0,0.0,0.0,0.0,0.0,0.0,0.0,0.0,0.0,0.0,0.0,0.0,0.0,0.0,0.0,0.0,0.0,0.0,0.0,0.0,0.0,0.0,0.0,0.0,0.0,0.0,0.0,0.0,0.0,0.0,0.0,0.0,0.0,0.0,0.0,0.0,0.0,0.0,0.0,0.0,0.0,0.0,0.0,0.0,0.0,0.0,0.0,0.0,0.0,0.0,0.0,0.0,0.0,0.0,0.0,0.0,0.0,0.0,0.0,0.0,0.0,0.0,0.0,0.0,0.0,0.0,0.0,0.0,0.0,0.0,0.0,0.0,0.0,0.0,0.0,0.0,0.0,0.0,0.0,0.0,0.0,0.0,0.0,0.0,0.0,0.0,0.0,0.0,0.0,0.0,0.0,0.0,0.0,0.0,0.0,0.0,0.0,0.0,0.0,0.0,0.0,0.0,0.0,0.0,0.0,0.0,0.0,0.0,0.0,0.0,0.0,0.0,0.0,0.0,0.0,0.0,0.0,0.0,0.0,0.0,0.0,0.0,0.0,0.0,0.0,0.0,0.0,0.0,0.0,0.0,0.0,0.0,0.0,0.0,0.0,0.0,0.0,0.0,0.0,0.0,0.0,0.0,0.0,0.0,0.0,0.0,0.0,0.0,0.0,0.0,0.0,0.0,0.0,0.0,0.0,0.0,0.0,0.0,0.0,0.0,0.0,0.0,0.0,0.0,0.0,0.0,0.0,0.0,0.0,0.0,0.0,0.0,0.0,0.0,0.0,0.0,0.0,0.0,0.0,0.0,0.0,0.0,0.0,0.0,0.0,0.0,0.0,0.0,0.0,0.0,0.0,0.0,0.0,0.0,0.0,0.0,0.0,0.0,0.0,0.0,0.0,0.0,0.0,0.0,0.0,0.0,0.0,0.0,0.0,0.0,0.0,0.0,0.0,0.0,0.0,0.0,0.0,0.0,0.0,0.0,0.0,0.0,0.0,0.0,0.0,0.0,0.0,0.0,0.0,0.0,0.0,0.0,0.0,0.0,0.0,0.0,0.0,0.0,0.0,0.0,0.0,0.0,0.0,0.0,0.0,0.0,0.0,0.0,0.0,0.0,0.0,0.0,0.0,0.0,0.0,0.0,0.0,0.0,0.0,0.0,0.0,0.0,0.0,0.0,0.0,0.0,0.0,0.0,0.0,0.0,0.0,0.0,0.0,0.0,0.0,0.0,0.0,0.0,0.0,0.0,0.0,0.0,0.0,0.0,0.0,0.0,0.0,0.0,0.0,0.0,0.0,0.0,0.0,0.0,0.0,0.0,0.0,0.0,0.0,0.0,0.0,0.0,0.0,0.0,0.0,0.0,0.0,0.0,0.0,0.0,0.0,0.0,0.0,0.0,0.0,0.0,0.0,0.0,0.0,0.0,0.0,0.0,0.0,0.0,0.0,0.0,0.0,0.0,0.0,0.0,0.0,0.0,0.0,0.0,0.0,0.0,0.0,0.0,0.0,0.0,0.0,0.0,0.0,0.0,0.0,0.0,0.0,0.0,0.0,0.0,0.0,0.0,0.0,0.0,0.0,0.0,0.0,0.0,0.0,0.0,0.0,0.0,0.0,0.0,0.0,0.0,0.0,0.0,0.0,0.0,0.0,0.0,0.0,0.0,0.0,0.0,0.0,0.0,0.0,0.0,0.0,0.0,0.0,0.0,0.0,0.0,0.0,0.0,0.0,0.0,0.0,0.0,0.0,0.0,0.0,0.0,0.0,0.0,0.0,0.0,0.0,0.0,0.0,0.0,0.0,0.0,0.0,0.0,0.0,0.0,0.0,0.0,0.0,0.0,0.0,0.0,0.0,0.0,0.0,0.0,0.0,0.0,0.0,0.0,0.0,0.0,0.0,0.0,0.0,0.0,0.0,0.0,0.0,0.0,0.0,0.0,0.0,0.0,0.0,0.0,0.0,0.0,0.0,0.0,0.0,0.0,0.0,0.0,0.0,0.0,0.0,0.0,0.0,0.0,0.0,0.0,0.0,0.0,0.0,0.0,0.0,0.0,0.0,0.0,0.0,0.0,-1.1386,-1.0149,0.0,0.0,0.0,0.0,0.0,0.0,0.0,0.0,0.0,0.0,0.0,0.0,0.0,0.0,0.0,0.0,0.0,0.0,0.0,0.0,0.0,0.0,0.0,0.0,0.0,0.0,0.0,0.0,0.0,0.0,0.0,0.0,0.0,0.0,-0.3317,-0.3296,-0.3272,-0.3198,-0.3817,-0.4527,-0.5314,-0.5619,-0.5553,-0.5206,0.0,0.0,0.0,0.0,0.0,0.0,0.0,0.0,0.0,0.0,0.0,0.0,0.0,0.0,0.0,0.0,0.0,0.0,0.0,0.0,0.0,0.0,0.0,0.0,0.0,0.0,0.0,0.0,0.0,0.0,0.0,0.0,0.0,0.0,0.0,0.0,0.0,0.0,0.0,0.0,0.0,0.0,0.0,0.0,0.0,0.0,0.0,0.0,0.0,0.0,0.0,0.0,0.0,0.0,0.0,0.0,0.0,0.0,0.0,0.0,0.0,0.0,0.0,0.0,0.0,0.0,0.0,0.0,0.0,0.0,-1.2383,-1.1531,0.0,0.0,0.0,0.0,0.0,0.0,0.0,0.0,0.0,0.0,0.0,0.0,0.0,0.0,0.0,0.0,0.0,0.0,0.0,0.0,0.0,0.0,0.0,-0.2638,-0.2579,-0.2549,-0.2912,-0.3207,-0.3343,-0.371,-0.3884,-0.3808,-0.3717,-0.3541,-0.3254,-0.3232,-0.3321,-0.355,-0.4614,-0.5757,-0.709,-0.7881,-0.7787,0.0,0.0,0.0,0.0,0.0,0.0,0.0,0.0,0.0,0.0,0.0,0.0,0.0,0.0,0.0,0.0,0.0,0.0,0.0,0.0,0.0,0.0,0.0,0.0,0.0,0.0,0.0,0.0,0.0,0.0,0.0,0.0,0.0,0.0,0.0,0.0,0.0,0.0,0.0,0.0,0.0,0.0,0.0,0.0,0.0,0.0,0.0,0.0,0.0,0.0,0.0,0.0,0.0,0.0,0.0,0.0,0.0,0.0,0.0,0.0,0.0,0.0,0.0,0.0,0.0,-1.3815,-1.4102,-1.4687,-1.4526,-1.4765,-1.5184,-1.3382,-1.3112,-1.3811,-1.217,0.0,0.0,0.0,0.0,0.0,0.0,0.0,0.0,0.0,0.0,0.0,0.0,0.0,0.0,0.0,0.0,0.0,0.0,0.0,0.0,0.0,-0.2075,-0.2307,-0.2658,-0.2829,-0.3109,-0.3541,-0.3566,-0.3633,-0.3787,-0.3415,-0.3153,-0.3041,-0.2918,-0.3298,-0.4181,-0.6143,-0.7729,-0.8878,-0.8706,-0.8962,-0.9475,-0.9241,0.0,0.0,0.0,0.0,0.0,0.0,0.0,0.0,0.0,0.0,0.0,0.0,0.0,0.0,0.0,0.0,0.0,0.0,0.0,0.0,0.0,0.0,0.0,0.0,0.0,0.0,0.0,0.0,0.0,0.0,0.0,0.0,0.0,0.0,0.0,0.0,0.0,0.0,0.0,0.0,0.0,0.0,0.0,-0.4459,-0.4528,0.0,0.0,0.0,0.0,0.0,0.0,0.0,0.0,0.0,0.0,0.0,0.0,0.0,-1.2822,-1.4649,-1.5846,-1.634,-1.6257,-1.7002,-1.7197,-1.6943,-1.6504,-1.6572,-1.6982,-1.5988,0.0,-1.4385,-1.3339,0.0,0.0,0.0,0.0,0.0,0.0,0.0,0.0,0.0,0.0,0.0,0.0,0.0,0.0,0.0,0.0,0.0,0.0,0.0,0.0,0.0,-0.1778,-0.2227,-0.2399,-0.3162,-0.3591,-0.3491,-0.3656,-0.3633,-0.3306,-0.3105,-0.2928,-0.2778,-0.339,-0.4563,-0.6343,-0.747,-0.8577,-0.9726,-1.0009,-1.0321,-1.0675,-1.1481,-1.0889,-0.9229,-0.8898,0.0,0.0,0.0,0.0,0.0,0.0,0.0,0.0,0.0,0.0,0.0,0.0,0.0,0.0,0.0,0.0,0.0,0.0,0.0,0.0,0.0,0.0,0.0,0.0,0.0,0.0,0.0,0.0,0.0,0.0,0.0,0.0,0.0,0.0,0.0,0.0,0.0,0.0,0.0,-0.4368,-0.4999,-0.505,-0.5571,-0.5788,0.0,0.0,0.0,0.0,0.0,0.0,0.0,0.0,0.0,-1.2506,-1.3512,-1.4698,-1.6147,-1.7608,-1.827,-1.8174,-1.8555,-1.8506,-1.8086,-1.7891,-1.7646,-1.7344,-1.6719,-1.6037,-1.5345,-1.4142,-1.3164,-1.2372,0.0,0.0,0.0,0.0,-1.2495,-1.3211,0.0,0.0,0.0,0.0,0.0,0.0,0.0,0.0,0.0,0.0,0.0,0.0,-0.0536,-0.121,-0.1837,-0.2307,-0.3221,-0.3749,-0.3553,-0.3788,-0.3718,-0.3154,-0.2959,-0.29,-0.3012,-0.4335,-0.5964,-0.7882,-0.8377,-0.9118,-1.0114,-1.0611,-1.095,-1.1135,-1.2123,-1.185,-1.051,-1.0144,-0.9751,0.0,0.0,0.0,0.0,0.0,0.0,0.0,0.0,0.0,0.0,0.0,0.0,0.0,0.0,0.0,0.0,0.0,0.0,0.0,0.0,0.0,0.0,0.0,0.0,0.0,0.0,0.0,0.0,0.0,0.0,0.0,0.0,0.0,0.0,0.0,0.0,0.0,0.0,-0.4875,-0.5534,-0.548,-0.5918,-0.611,0.0,0.0,0.0,0.0,0.0,0.0,-1.0909,-1.1073,-1.192,-1.3707,-1.4838,-1.6156,-1.7483,-1.862,-1.9329,-1.9443,-1.9336,-1.9053,-1.8633,-1.8525,-1.8076,-1.7363,-1.6924,-1.6475,-1.5998,-1.4596,-1.362,-1.2872,-1.2232,-1.1725,-1.1512,-1.254,-1.3451,-1.4381,0.0,0.0,0.0,0.0,0.0,0.0,0.0,0.0,0.0,0.0,0.0,0.0711,-0.0141,-0.0163,-0.0818,-0.252,-0.2752,-0.3106,-0.3916,-0.3855,-0.3792,-0.3742,-0.3095,-0.3151,-0.4093,-0.5786,-0.708,-0.7882,-0.8732,-0.9512,-1.0107,-0.9892,-1.0194,-1.0963,-1.0228,-1.0738,-1.2175,-1.2356,-1.1655,-1.0351,0.0,0.0,0.0,0.0,0.0,0.0,0.0,0.0,0.0,0.0,0.0,0.0,0.0,0.0,0.0,0.0,0.0,0.0,0.0,0.0,0.0,0.0,0.0,0.0,0.0,0.0,0.0,0.0,0.0,0.0,0.0,0.0,0.0,0.0,0.0,0.0,0.0,0.0,0.0,-0.5723,-0.663,0.0,0.0,0.0,0.0,-0.8567,-0.8807,-0.9869,-1.2179,-1.2534,-1.3486,-1.514,-1.5486,-1.6726,-1.8867,-1.8973,-1.926,-1.9883,-1.9473,-1.9053,-1.8623,-1.8223,-1.7803,-1.7363,-1.6924,-1.6475,-1.6017,-1.4648,-1.4046,-1.3851,-1.2959,-1.2562,-1.2595,-1.3885,-1.4421,-1.4674,0.0,0.0,0.0,0.0,0.0,0.0,0.0,0.0,0.1481,0.1484,0.171,0.1524,0.0595,0.0142,-0.0576,-0.1704,-0.2448,-0.2797,-0.2716,-0.3135,-0.3134,-0.2521,-0.2856,-0.3743,-0.5327,-0.6324,-0.7419,-0.8718,-0.903,-0.9446,-0.984,-0.9728,-0.9853,-1.0217,-1.0806,-1.1471,-1.2044,-1.1851,-1.1822,-1.1739,-1.0535,-0.9454,0.0,0.0,0.0,0.0,0.0,0.0,0.0,0.0,0.0,0.0,0.0,0.0,0.0,0.0,0.0,0.0,0.0,0.0,0.0,0.0,0.0,0.0,0.0,0.0,0.0,0.0,0.0,0.0,0.0,0.0,0.0,0.0,0.0,0.0,0.0,0.0,0.0,-0.6149,-0.6822,0.0,-0.6396,-0.713,-0.817,-0.9552,-1.0444,-1.1805,-1.3615,-1.3838,-1.42,-1.4775,-1.6087,-1.709,-1.7908,-1.9353,-2.0024,-1.9912,-1.9756,-1.9316,-1.8623,-1.8203,-1.7627,-1.6943,-1.6494,-1.5898,-1.5186,-1.4443,-1.4096,-1.4004,-1.3422,-1.3034,-1.2882,-1.4035,-1.4713,-1.5269,0.0,0.0,0.0,0.0,0.0,0.0,0.0,0.0,0.1956,0.1998,0.2385,0.2338,0.1607,0.1148,0.0458,-0.0764,-0.1488,-0.198,-0.2175,-0.2618,-0.2635,-0.2049,-0.3246,-0.4536,-0.5879,-0.684,-0.7913,-0.9044,-0.9044,-0.9198,-0.9392,-0.9392,-0.9451,-0.9566,-1.0682,-1.1482,-1.1868,-1.1609,-1.1972,-1.2613,-1.1434,-1.0481,-0.9561,0.0,0.0,0.0,0.0,0.0,0.0,0.0,0.0,0.0,0.0,0.0,0.0,0.0,0.0,0.0,0.0,0.0,0.0,0.0,0.0,0.0,0.0,0.0,0.0,0.0,0.0,0.0,0.0,0.0,0.0,0.0,0.0,0.0,0.0,-0.5926,-0.6682,-0.6591,-0.707,-0.7261,-0.676,-0.7473,-0.8638,-1.0333,-1.1237,-1.2499,-1.4562,-1.4576,-1.4522,-1.4522,-1.5742,-1.648,-1.6764,-1.8091,-1.8939,-1.9164,-1.9022,-1.8745,-1.8203,-1.793,-1.7324,-1.6484,-1.6035,-1.5439,-1.4746,-1.4307,-1.4,-1.3887,-1.3457,-1.3125,-1.3008,-1.4115,-1.4799,-1.5332,0.0,0.0,0.0,0.0,0.0,0.0,0.0,0.1529,0.2262,0.2419,0.2989,0.3191,0.2759,0.298,0.2335,0.0254,0.0062,-0.0654,-0.2291,-0.2287,-0.2319,-0.2519,-0.4278,-0.538,-0.568,-0.7433,-0.8504,-0.8738,-0.8798,-0.8791,-0.8784,-0.8798,-0.8917,-0.9201,-0.9629,-1.0563,-1.1856,-1.18,-1.2227,-1.2851,-1.2193,-1.1366,-1.0416,0.0,0.0,0.0,0.0,0.0,0.0,0.0,0.0,0.0,0.0,0.0,0.0,0.0,0.0,0.0,0.0,0.0,0.0,0.0,0.0,0.0,0.0,0.0,0.0,0.0,0.0,0.0,0.0,0.0,0.0,0.0,0.0,0.0,-0.5369,-0.6338,-0.6962,-0.6929,-0.7451,-0.7564,-0.7078,-0.7351,-0.8548,-1.087,-1.0865,-1.2042,-1.4764,-1.4683,-1.4522,-1.4522,-1.4502,-1.4935,-1.5688,-1.544,-1.6124,-1.7683,-1.737,-1.7274,-1.7383,-1.7373,-1.6875,-1.6076,-1.5586,-1.5146,-1.4717,-1.4287,-1.3867,-1.3447,-1.3057,-1.2891,-1.3017,-1.4247,-1.4698,-1.488,0.0,0.0,0.0,0.0,0.0,0.0,0.0,0.1811,0.2812,0.3463,0.4073,0.4201,0.3571,0.3846,0.3377,0.1732,0.1391,0.0978,0.0156,-0.0447,-0.1391,-0.2713,-0.3873,-0.4792,-0.5376,-0.6743,-0.7536,-0.771,-0.8229,-0.8383,-0.8134,-0.8146,-0.819,-0.8333,-0.9619,-1.0442,-1.0874,-1.1724,-1.2388,-1.2832,-1.2322,-1.1885,-1.1386,0.0,0.0,0.0,0.0,0.0,0.0,0.0,0.0,0.0,0.0,0.0,0.0,0.0,0.0,0.0,0.0,0.0,0.0,0.0,0.0,0.0,0.0,0.0,0.0,0.0,0.0,0.0,0.0,0.0,0.0,0.0,-0.3767,-0.4638,-0.5714,-0.6513,-0.7166,-0.7358,-0.7715,-0.7797,-0.7423,-0.7664,-0.8298,-0.9723,-1.0648,-1.1855,-1.358,-1.4229,-1.4522,-1.4522,-1.4838,-1.5205,-1.5433,-1.5866,-1.6506,-1.7352,-1.7234,-1.7274,-1.7373,-1.7061,-1.6426,-1.5566,-1.5137,-1.4541,-1.3848,-1.373,-1.3437,-1.3076,-1.3262,-1.3154,-1.2968,-1.3779,-1.4595,-1.5407,0.0,0.0,0.0,0.0,0.0,0.0,0.0,0.2155,0.328,0.4326,0.5092,0.5444,0.5187,0.5303,0.4751,0.3163,0.2495,0.1807,0.1007,0.02,0.0,0.0,0.0,-0.4303,-0.5125,-0.6428,-0.7121,-0.7227,-0.7882,-0.8032,-0.7734,-0.7734,-0.7746,-0.7814,-0.9275,-0.9989,-1.0193,-1.1412,-1.2227,-1.2609,-1.2348,-1.2273,-1.2238,-1.1404,-1.1015,-1.0899,-1.0858,-1.0452,-1.0001,-1.0345,0.0,0.0,0.0,0.0,0.0,0.0,0.0,0.0,0.0,0.0,0.0,0.0,0.0,0.0,0.0,0.0,0.0,0.0,0.0,0.0,0.0,0.0,0.0,0.0,-0.3896,-0.4792,-0.6276,-0.6439,-0.6712,-0.747,-0.775,-0.7787,-0.7614,-0.7675,-0.8208,-0.9287,-1.0031,-1.1136,-1.295,-1.3417,-1.3748,-1.407,-1.4461,-1.4524,-1.4395,-1.4749,-1.5233,-1.5928,-1.569,-1.5869,-1.6468,-1.5946,-1.5492,-1.5117,-1.4512,-1.3965,-1.3496,-1.332,-1.3105,-1.29,0.0,0.0,0.0,0.0,-1.4702,-1.5288,0.0,0.0,0.0,0.0,0.0,0.0,0.0,0.2517,0.3714,0.503,0.5976,0.6664,0.6929,0.6912,0.6154,0.4481,0.3385,0.2209,0.0955,0.0142,0.0,-0.1987,-0.2893,-0.379,-0.4687,-0.6132,-0.6866,-0.6866,-0.7442,-0.76,-0.7362,-0.7348,-0.7373,-0.7491,-0.8642,-0.9322,-0.9674,-1.0861,-1.1656,-1.2142,-1.2152,-1.2491,-1.2954,-1.2371,-1.2175,-1.2191,-1.1968,-1.1802,-1.1719,-1.1708,0.0,0.0,0.0,0.0,0.0,0.0,0.0,0.0,0.0,0.0,0.0,0.0,0.0,0.0,0.0,0.0,0.0,0.0,0.0,0.0,0.0,0.0,0.0,0.0,-0.4058,-0.4891,-0.6511,-0.5802,-0.5806,-0.7373,-0.76,-0.7594,-0.7577,-0.7573,-0.8023,-0.9183,-0.9125,-0.9999,-1.219,-1.2324,0.0,0.0,0.0,-1.342,-1.316,-1.2819,-1.3167,-1.4126,-1.3506,-1.3906,-1.5103,-1.4425,-1.4212,-1.4436,-1.369,-1.3375,-1.3297,-1.3027,-1.2881,-1.2871,-1.2832,-1.3215,-1.3772,-1.4376,-1.4716,-1.4787,0.0,0.0,0.0,0.0,0.0,0.0,0.0,0.2783,0.3988,0.5533,0.6387,0.682,0.6753,0.6993,0.6621,0.5336,0.4319,0.3067,0.1453,0.0,-0.0646,-0.1669,-0.2349,-0.2992,-0.3598,-0.4847,-0.5418,-0.534,-0.6346,-0.6732,-0.6457,-0.6433,-0.6614,-0.6988,-0.7953,-0.863,-0.9021,-0.9706,-1.0416,-1.1116,-1.1204,-1.2222,-1.3695,-1.3554,-1.3762,-1.4214,-1.4631,-1.4293,-1.3649,-1.3652,-1.2998,-1.2057,-1.164,0.0,0.0,0.0,0.0,0.0,0.0,0.0,0.0,0.0,0.0,0.0,0.0,0.0,0.0,0.0,0.0,0.0,0.0,0.0,0.0,-0.1593,-0.1862,-0.2715,-0.4094,-0.4103,-0.4894,-0.7279,-0.76,-0.755,-0.7428,-0.7414,-0.7454,-0.7588,-0.8432,-0.9135,-0.9482,-1.1036,-1.1993,-1.2073,-1.2648,-1.2893,-1.2916,-1.2305,-1.2534,-1.3446,-1.3126,0.0,-1.3946,-1.3568,-1.305,-1.2487,-1.2644,-1.247,-1.219,-1.2695,-1.2881,-1.2842,-1.249,-1.2659,-1.316,-1.3417,-1.3773,-1.4165,0.0,0.0,0.0,0.0,0.0,0.0,0.0,0.3138,0.4457,0.5916,0.6766,0.7266,0.729,0.7323,0.6885,0.5695,0.4477,0.3151,0.0,0.127,0.0421,-0.0833,-0.1401,-0.206,-0.2875,-0.3981,-0.4607,-0.4768,-0.5624,-0.6022,-0.5952,-0.6152,-0.6259,-0.6307,-0.7643,-0.8317,-0.8496,-0.9466,-1.0291,-1.107,-1.1104,-1.213,-1.3643,-1.3767,-1.3966,-1.4261,-1.4553,-1.417,-1.351,-1.3145,-1.2483,-1.1674,-1.1186,-1.0847,-1.0553,0.0,0.0,0.0,0.0,0.0,0.0,0.0,0.0,0.0,0.0,0.0,0.0,0.0,0.0,-0.1661,-0.1211,0.0,-0.1605,-0.1377,-0.154,-0.212,-0.3387,-0.357,-0.4497,-0.7073,-0.737,-0.7312,-0.7163,-0.7214,-0.7193,-0.7044,-0.7552,-0.8115,-0.8696,-1.0088,-1.107,-1.1473,-1.2139,-1.2458,-1.2378,-1.1864,-1.1922,-1.2324,-1.2087,-1.2299,-1.2869,-1.2245,-1.1904,-1.1917,-1.207,-1.2013,-1.1864,-1.2608,-1.2881,-1.2812,-1.2148,-1.2355,-1.3011,-1.3202,-1.338,-1.3594,0.0,0.0,0.0,0.0,0.0,0.0,0.0,0.3338,0.4673,0.6012,0.69,0.7474,0.7713,0.754,0.6948,0.5752,0.4487,0.0,0.0,0.2342,0.1731,0.0144,-0.0372,-0.1127,-0.2206,-0.3169,-0.3935,-0.4443,-0.5025,-0.5406,-0.5609,-0.6044,-0.612,-0.6027,-0.7559,-0.8287,-0.8399,-0.9546,-1.0486,-1.1181,-1.1295,-1.2095,-1.3252,-1.3614,-1.3741,-1.38,-1.3644,-1.326,-1.2697,-1.193,-1.1388,-1.0922,-1.0344,-1.023,-1.0218,-0.952,-0.9257,0.0,0.0,0.0,0.0,0.0,0.0,0.0,0.0,-0.2127,-0.1655,-0.1393,-0.1469,-0.1199,-0.0087,-0.0118,-0.0461,-0.1056,-0.1075,-0.1607,-0.3019,-0.3284,-0.4074,-0.6174,-0.6458,-0.6337,-0.6294,-0.6548,-0.6653,-0.6547,-0.6711,-0.7289,-0.8254,-0.9045,-0.9795,-1.0429,-1.1385,-1.1801,-1.1571,-1.1421,-1.1343,-1.1336,-1.0989,-1.1132,-1.1787,-1.0828,-1.0752,-1.1368,-1.1559,-1.1665,-1.1864,-1.2608,-1.2881,-1.2793,-1.1949,-1.2138,-1.2894,-1.2958,-1.3011,-1.3094,0.0,0.0,0.0,0.0,0.0,0.0,0.0,0.0,0.4053,0.5568,0.6324,0.6817,0.7077,0.7179,0.6742,0.5546,0.0,0.0,0.3552,0.3286,0.2563,0.1182,0.0688,-0.0099,-0.1223,-0.2139,-0.2997,-0.3883,-0.4309,-0.4769,-0.5261,-0.574,-0.6274,-0.6901,-0.7749,-0.8518,-0.9182,-0.9644,-1.0186,-1.0808,-1.1288,-1.192,-1.2692,-1.3543,-1.3976,-1.4082,-1.347,-1.2953,-1.2353,-1.114,-1.0647,-1.0399,-0.9761,-1.0098,-1.0483,-0.9592,0.0,-0.9014,-0.7381,-0.5499,-0.3892,-0.3303,-0.2672,-0.2266,0.0,-0.192,-0.0958,-0.0196,0.0629,0.1512,0.2704,0.2893,0.2514,0.1594,0.1431,0.0622,-0.1656,-0.1999,-0.2503,-0.3808,-0.3951,-0.3964,-0.3962,-0.4799,-0.5301,-0.529,-0.6216,-0.6747,-0.6771,-0.7552,-0.7982,-0.793,-0.9532,-1.0317,-1.0287,-1.0779,-1.1042,-1.1035,-1.0474,-1.0275,-1.0309,-0.968,-0.939,-0.9535,-1.0478,-1.1266,-1.1864,-1.2608,-1.2881,-1.2793,-1.1949,-1.1933,-1.2362,-1.2074,-1.2232,-1.265,0.0,0.0,0.0,0.0,0.0,0.0,0.0,0.0,0.0,0.46,0.51,0.5458,0.5629,0.6019,0.6181,0.595,0.0,0.0,0.4772,0.4857,0.4358,0.3093,0.2329,0.1427,0.0329,-0.0909,-0.2056,-0.3168,-0.3796,-0.4481,-0.5238,-0.6571,-0.7296,-0.7576,-0.8973,-0.9736,-0.9981,-1.0717,-1.1285,-1.1727,-1.206,-1.2488,-1.2886,-1.2825,-1.2816,-1.2858,-1.2898,-1.2252,0.0,0.0,-0.8837,-0.8393,-0.7867,-0.8049,-0.8392,-0.8226,-0.8203,0.0,-0.5954,-0.4269,-0.293,-0.2311,-0.1973,-0.1679,-0.1434,-0.0596,0.0226,0.0711,0.1649,0.2529,0.3031,0.3139,0.3074,0.2624,0.2055,0.1288,0.034,-0.0337,-0.0912,-0.1456,-0.1528,-0.2018,-0.328,-0.3904,-0.4412,-0.493,-0.535,-0.5772,-0.6352,-0.7092,-0.7483,-0.7402,-0.8838,-0.9728,-0.9882,-1.0098,-1.0401,-1.0735,-1.0147,-0.9953,-1.01,-0.9449,-0.9302,-0.9599,-1.0022,-1.0813,-1.1814,-1.2129,-1.2501,-1.2841,-1.2252,-1.2138,-1.2278,-1.1905,-1.2102,-1.2531,0.0,0.0,0.0,0.0,0.0,0.0,0.0,0.0,0.0,0.0,0.427,0.4581,0.4869,0.5289,0.5699,0.0,0.0,0.0,0.0,0.5995,0.5779,0.5026,0.4199,0.3241,0.2154,0.0625,-0.098,-0.2697,-0.3816,-0.5017,-0.6283,-0.8058,-0.8849,-0.882,-1.0456,-1.1112,-1.1069,-1.1953,-1.2522,-1.2839,-1.3008,-1.3107,-1.3104,-1.2543,-1.2006,-1.1593,-1.1778,-1.1054,0.0,0.0,-0.7404,-0.6876,-0.6497,-0.666,-0.7015,-0.7187,-0.6933,-0.6259,-0.4546,-0.3193,-0.2135,-0.1472,-0.1192,-0.0879,-0.0162,0.0501,0.1214,0.2123,0.2895,0.3556,0.3907,0.4022,0.3972,0.3544,0.287,0.2319,0.1976,0.13,0.0796,0.0772,0.0757,0.0152,-0.1487,-0.2475,-0.3287,-0.3938,-0.4178,-0.4749,-0.5749,-0.623,-0.6573,-0.6788,-0.7905,-0.8603,-0.8772,-0.9181,-0.959,-1.0053,-0.9741,-0.9673,-0.986,-0.9352,-0.9267,-0.9562,-0.9917,-1.0618,-1.1566,-1.1922,-1.2337,-1.2675,-1.2236,-1.2108,-1.211,-1.1888,-1.2102,-1.2507,0.0,0.0,0.0,0.0,0.0,0.0,0.0,0.0,0.0,0.0,0.0,0.0,0.0,0.5456,0.5479,0.0,0.0,0.0,0.0,0.6259,0.6354,0.6707,0.6203,0.5369,0.4224,0.2572,0.0275,-0.2688,-0.4609,-0.6684,-0.8908,-1.027,-1.0903,-1.0956,-1.1924,-1.2417,-1.2581,-1.3114,-1.359,-1.395,-1.395,-1.3626,-1.3104,-1.3082,-1.21,-1.0636,-0.9953,0.0,0.0,0.0,-0.6812,-0.65,-0.642,-0.6885,0.0,-0.6957,-0.582,-0.4458,-0.3489,-0.2414,-0.1383,-0.088,-0.0362,0.0162,0.0866,0.1054,0.1787,0.429,0.4807,0.5165,0.6355,0.6694,0.6262,0.473,0.4547,0.4181,0.299,0.2823,0.2771,0.2636,0.2617,0.2617,0.2548,0.0,-0.1679,-0.1678,-0.2622,-0.3566,-0.4501,-0.4393,-0.468,-0.5596,-0.6205,-0.6522,-0.6526,-0.7903,-0.8622,-0.8687,-0.9054,-0.9203,-0.9196,-0.8958,-0.8818,-0.891,-1.0218,-1.0813,-1.0922,-1.2304,-1.2627,-1.2161,-1.1783,-1.1681,-1.172,-1.1766,-1.2102,-1.2507,0.0,0.0,0.0,0.0,0.0,0.0,0.0,0.0,0.0,0.0,0.0,0.0,0.0,0.0,0.0,0.0,0.0,0.0,0.0,0.7004,0.7319,0.7139,0.7043,0.6576,0.5639,0.393,0.2127,0.022,-0.1593,-0.4447,-0.8225,-0.9449,-0.9763,-0.9374,-1.0136,-1.0898,-1.1641,-1.2187,-1.2343,-1.2311,-1.2769,-1.2606,-1.207,-1.1615,-1.1188,-1.0703,0.0,0.0,0.0,-0.6666,-0.5735,-0.5103,-0.4681,-0.4813,-0.5128,-0.5124,-0.4177,-0.2967,-0.2252,-0.1456,-0.07,-0.0307,0.0268,0.0779,0.1047,0.2339,0.3696,0.4311,0.4995,0.5512,0.5689,0.6045,0.6147,0.5797,0.5256,0.4919,0.4662,0.4019,0.3593,0.3598,0.3535,0.3564,0.3564,0.1632,0.0073,-0.0653,-0.1429,-0.2334,-0.3391,-0.3318,-0.3563,-0.4355,-0.4972,-0.5584,-0.6258,-0.6932,-0.7467,-0.7892,-0.8348,-0.841,-0.8232,-0.8632,-0.8804,-0.8857,-0.9762,-1.0364,-1.0864,-1.1774,-1.2157,-1.2233,-1.2443,-1.2388,-1.2201,-1.2578,-1.3022,-1.3293,0.0,0.0,0.0,0.0,0.0,0.0,0.0,0.0,0.0,0.0,0.0,0.0,0.0,0.0,0.0,0.0,0.0,0.0,0.0,0.0,0.7218,0.7152,0.7087,0.6677,0.5916,0.4238,0.2589,0.0946,-0.1269,-0.4291,-0.7984,-0.8532,-0.8561,-0.8178,-0.8915,-0.9599,-1.0209,-1.0866,-1.0984,-1.0785,-1.1511,-1.1364,-1.0679,-1.0315,-1.0238,0.0,0.0,0.0,0.0,-0.6098,-0.5097,-0.4123,-0.364,-0.3569,-0.3694,-0.3756,-0.2989,-0.1992,-0.1416,-0.0677,0.0,0.0256,0.0849,0.1463,0.1935,0.3267,0.4511,0.5095,0.5571,0.5827,0.564,0.6178,0.6448,0.5944,0.5713,0.5745,0.5916,0.5238,0.4928,0.5379,0.5435,0.5439,0.5439,0.3748,0.2151,0.0834,0.0069,-0.0818,-0.1871,-0.2085,-0.2682,-0.3788,-0.4142,-0.4769,-0.5652,-0.6039,-0.6558,-0.7177,-0.7767,-0.7888,-0.7723,-0.848,-0.8804,-0.8857,-0.9762,-1.0292,-1.0673,-1.1567,-1.1977,-1.2081,-1.2393,-1.2501,-1.249,-1.2994,-1.336,-1.3465,0.0,0.0,0.0,0.0,0.0,0.0,0.0,0.0,0.0,0.0,0.0,0.0,0.0,0.0,0.0,0.0,0.0,0.0,0.0,0.0,0.0,0.6795,0.6405,0.5877,0.5225,0.3654,0.1856,-0.0169,-0.3145,-0.5727,-0.7884,-0.7382,-0.7199,-0.7347,-0.8184,-0.8458,-0.8368,-0.9234,-0.9467,-0.9357,-1.0188,-0.9886,-0.8964,-0.9155,0.0,0.0,0.0,0.0,0.0,-0.5523,-0.4705,-0.344,-0.3189,-0.3096,-0.3018,-0.2726,-0.2079,-0.135,-0.0914,-0.013,0.0641,0.0891,0.1409,0.2207,0.3491,0.3837,0.4465,0.6486,0.6484,0.6135,0.621,0.7071,0.7236,0.5474,0.6164,0.6921,0.6987,0.6576,0.6768,0.7931,0.8091,0.8091,0.8091,0.634,0.4526,0.2883,0.1905,0.0912,0.0,-0.0757,-0.1896,-0.3559,-0.3505,-0.3798,-0.4619,-0.5194,-0.5819,-0.648,-0.7235,-0.7605,-0.7593,-0.8355,-0.8725,-0.881,-1.0163,-1.0524,-1.026,-1.1612,-1.1987,-1.1711,-1.1711,-1.2047,-1.2603,-1.2982,-1.311,-1.309,0.0,0.0,0.0,0.0,0.0,0.0,0.0,0.0,0.0,0.0,0.0,0.0,0.0,0.0,0.0,0.0,0.0,0.0,0.0,0.0,0.0,0.0,0.0,0.0,0.0,0.0,0.0,0.0,0.0,-0.0231,-0.2328,-0.2245,-0.3087,-0.468,-0.4959,-0.5412,-0.6008,-0.663,-0.671,-0.6529,0.0,-0.7481,-0.6799,0.0,0.0,0.0,0.0,0.0,0.0,0.0,-0.2581,-0.044,-0.0511,-0.0329,-0.0156,-0.0475,-0.0072,0.0516,0.0774,0.1132,0.1468,0.1542,0.2111,0.274,0.3285,0.4529,0.5495,0.5457,0.596,0.6137,0.5211,0.6552,0.7792,0.7672,0.8775,0.9571,0.955,0.9424,0.9271,0.8994,0.8947,0.8947,0.8947,0.7691,0.6679,0.6099,0.3547,0.1873,0.1597,0.1392,0.0597,-0.0947,-0.0917,-0.1802,-0.3613,-0.4363,-0.4842,-0.5062,-0.571,-0.6012,-0.5977,-0.7126,-0.7639,-0.764,-0.9257,-0.9916,-0.9927,-1.1219,-1.1739,-1.1711,-1.2059,-1.2542,-1.3017,-1.3517,-1.406,-1.452,0.0,0.0,0.0,0.0,0.0,0.0,0.0,0.0,0.0,0.0,0.0,0.0,0.0,0.0,0.0,0.0,0.0,0.0,0.0,0.0,0.0,0.0,0.0,0.0,0.0,0.0,0.0,0.0,0.0,0.0,0.0,-0.0567,-0.1412,-0.2621,-0.2832,-0.3227,-0.378,0.0,0.0,0.0,0.0,0.0,0.0,0.0,0.0,0.0,0.0,0.0,0.0,0.0,0.0,0.2526,0.1842,0.1833,0.1957,0.1483,0.1411,0.1622,0.2182,0.2273,0.2274,0.2463,0.3047,0.3516,0.3262,0.441,0.5354,0.4888,0.551,0.5987,0.5669,0.7555,0.905,0.8802,0.9915,1.0907,1.1065,1.0523,1.0265,1.0649,1.0451,1.0363,1.0363,0.9075,0.8212,0.8126,0.5418,0.356,0.3175,0.2865,0.2029,0.0515,0.0505,-0.0444,-0.2334,-0.2791,-0.3317,-0.3875,-0.4601,-0.519,-0.5659,-0.6718,-0.7291,-0.7529,-0.9051,-0.9604,-0.9545,-1.1037,-1.1675,-1.1795,-1.2253,-1.2854,-1.3478,-1.3661,-1.4209,-1.4746,0.0,0.0,0.0,0.0,0.0,0.0,0.0,0.0,0.0,0.0,0.0,0.0,0.0,0.0,0.0,0.0,0.0,0.0,0.0,0.0,0.0,0.0,0.0,0.0,0.0,0.0,0.0,0.0,0.0,0.0,0.0,0.0,0.0,0.0,0.0,0.0,0.0,0.0,0.0,0.0,0.0,0.0,0.0,0.0,0.0,0.0,0.0,0.0,0.0,0.0,0.7055,0.5251,0.4145,0.3839,0.378,0.3345,0.2838,0.2647,0.3463,0.3353,0.3084,0.3561,0.4038,0.4202,0.3317,0.3987,0.4759,0.4639,0.5225,0.6027,0.6852,0.9085,1.0516,0.9493,0.0,1.1667,1.2223,1.1112,1.0812,1.2274,1.2149,1.1878,1.1727,1.0449,0.9549,0.9501,0.7567,0.5895,0.4769,0.3978,0.2963,0.1608,0.1275,0.0498,-0.066,-0.0962,-0.1684,-0.2897,-0.3604,-0.4526,-0.5635,-0.6405,-0.7068,-0.7615,-0.8929,-0.9286,-0.918,-1.0832,-1.1619,-1.1847,-1.2378,-1.3098,-1.3813,-1.3646,-1.3942,-1.4337,0.0,0.0,0.0,0.0,0.0,0.0,0.0,0.0,0.0,0.0,0.584,0.5704,0.0,0.0,0.0,0.0,0.0,0.0,0.0,0.0,0.0,0.0,0.0,0.0,0.0,0.0,0.0,0.0,0.0,0.0,0.0,0.0,0.0,0.0,0.0,0.0,0.0,0.0,0.0,0.0,0.0,0.0,0.0,0.0,0.0,0.0,0.0,0.0,0.0,0.0,0.8532,0.7296,0.707,0.6681,0.6182,0.5616,0.5365,0.521,0.4835,0.4508,0.4345,0.461,0.4605,0.4355,0.346,0.4324,0.0,0.4277,0.5483,0.6835,0.7389,0.9098,1.0686,1.1502,1.2634,1.3613,1.4185,1.4079,1.3585,1.2694,1.296,1.2806,1.1775,1.1693,1.1467,1.0977,1.0317,0.8811,0.6362,0.5508,0.4732,0.3871,0.2047,0.1201,0.1479,-0.0263,-0.1298,-0.1617,-0.2265,-0.2864,-0.3488,-0.4548,-0.5293,-0.5864,-0.751,-0.8417,-0.8848,-0.9979,-1.0995,-1.1884,-1.2671,-1.322,-1.3591,-1.3897,-1.4109,-1.4166,0.0,0.0,0.0,0.0,0.0,0.0,0.0,0.57,0.5919,0.6795,0.6604,0.6363,0.6344,0.5988,0.5792,0.0,0.0,0.0,0.0,0.0,0.0,0.0,0.0,0.0,0.0,0.0,0.0504,0.0205,0.0,0.0,0.0,-0.1005,-0.1183,0.0,0.0,0.0,0.0,0.0,0.0,0.0,0.0,0.0,0.0,0.0,0.0,0.0,0.0,0.0,0.0,0.0,1.0062,0.8953,0.8379,0.8316,0.8184,0.7093,0.6676,0.6558,0.6513,0.6015,0.5635,0.6305,0.6193,0.5488,0.3788,0.0,0.0,0.4113,0.5685,0.7598,0.8732,1.0429,1.1827,1.2369,1.3362,1.4264,1.4846,1.4782,1.4484,1.4084,1.3791,1.3551,1.3309,1.2824,1.251,1.256,1.2058,1.0722,0.8344,0.7186,0.6279,0.5584,0.4391,0.357,0.3146,0.2021,0.0886,-0.0145,-0.0762,-0.168,-0.2826,-0.3639,-0.4798,-0.6234,-0.737,-0.8325,-0.9262,-1.0909,-1.1918,-1.2457,-1.3404,-1.3996,-1.4231,-1.3784,-1.3921,-1.4238,0.0,0.0,0.0,0.0,0.0,0.0,0.0,0.5818,0.6048,0.6886,0.6864,0.6576,0.6048,0.6,0.5947,0.0,0.0,0.0,0.0,0.0,0.0,0.0,0.0,0.0,0.0,0.0,0.0,0.009,-0.0359,0.0,0.0,0.0,0.0,0.0,-0.165,-0.1625,0.0,0.0,0.0,0.0,0.0,0.0281,0.0,0.0,0.0,0.0,0.0,0.0,0.0,0.0,1.1183,1.0111,0.925,0.9334,0.9487,0.8323,0.7811,0.7711,0.813,0.759,0.7175,0.8412,0.8201,0.7087,0.4767,0.5175,0.5718,0.4525,0.6219,0.8464,1.0248,1.1754,1.279,0.0,1.351,1.4354,1.5401,1.5178,1.5115,1.574,1.5051,1.4664,1.5016,1.416,1.3684,1.4057,1.3585,1.2301,1.0015,0.8736,0.7817,0.7261,0.6712,0.5947,0.5025,0.4189,0.3001,0.1441,0.0587,-0.062,-0.2155,-0.309,-0.4574,-0.6512,-0.7432,-0.8415,-0.957,-1.1652,-1.2601,-1.2852,-1.3883,-1.4414,-1.4519,-1.37,-1.3776,-1.421,0.0,0.0,0.0,0.0,0.0,0.0,0.0,0.6451,0.6595,0.6643,0.6268,0.5919,0.5674,0.6016,0.6282,0.0,0.0,0.0,0.0,0.0,0.0,0.0,0.0,0.0,0.0,0.0,0.0,-0.0245,-0.0894,0.0,0.0,0.0,0.0,0.0,0.0,-0.1736,-0.151,0.0,0.0,0.0,0.0,0.0,0.0,0.0,0.0,0.0,0.0,0.0,0.0,0.0,0.0,1.0433,1.0288,0.9881,0.9458,0.9557,0.0,0.0,0.9341,0.9094,0.9235,1.087,1.0253,0.8815,0.6995,0.0,0.7461,0.6097,0.7477,0.9548,1.1495,1.2077,1.2522,0.0,1.3382,1.4227,1.6673,1.6494,1.6481,1.7461,1.7206,1.6747,1.6223,1.6102,1.5879,1.536,1.5271,1.3903,1.0781,0.9913,0.9475,0.9423,0.791,0.7314,0.7747,0.5114,0.3612,0.3249,0.1606,0.0446,-0.0311,-0.2515,-0.3923,-0.4756,-0.6952,-0.8317,-0.915,-1.0595,-1.1615,-1.2372,-1.3513,-1.3706,-1.3408,-1.3861,-1.3949,-1.3841,0.0,0.0,0.0,0.0,0.0,0.0,0.5834,0.5685,0.5564,0.5731,0.5461,0.5141,0.485,0.515,0.5611,0.6118,0.0,0.0,0.0,0.0,0.0,0.0,0.0,0.0,0.0,0.0,0.0044,-0.0289,-0.0847,0.0,0.0,0.0,0.0,0.0,0.0,-0.1705,-0.1759,-0.1234,0.0,0.0,0.0,0.0,0.0,0.0,0.0,0.0,0.0,0.0,1.0227,0.0,0.0,0.0,1.0256,0.9929,0.0,0.0,0.9918,1.0377,1.0067,1.0796,1.1745,1.2218,1.0238,0.8233,0.8424,0.0,0.6449,0.7571,0.9496,1.1367,1.2654,1.2939,1.307,1.3295,1.3558,1.4062,1.5068,1.6114,1.6949,1.7375,1.7791,1.8051,1.8166,1.7868,1.7712,1.7843,1.7528,1.6756,1.5452,1.3263,1.1705,1.1011,0.986,0.9051,0.8668,0.7301,0.6081,0.5043,0.4315,0.3476,0.2519,0.052,-0.106,-0.245,-0.5618,-0.7326,-0.8105,-1.1366,-1.295,-1.3403,-1.3837,-1.4458,-1.491,-1.3758,-1.3322,-1.3325,0.0,0.0,0.0,0.0,0.0,0.4622,0.5292,0.4985,0.4678,0.4678,0.4416,0.4147,0.3944,0.4196,0.4713,0.5511,0.5484,0.0,0.0,0.0,0.0,0.0,0.0,0.0,0.0,0.0,0.0111,-0.0334,-0.087,-0.1274,0.0,0.0,-0.1673,-0.1978,0.0,0.0,0.0,0.0,0.0,0.0,0.0,0.0,0.0,0.0,0.0,0.0,0.0,0.0,0.0,0.0,0.0,0.0,0.0,0.0,0.0,0.0,1.0159,1.0797,1.0923,1.1972,1.3177,1.3662,1.136,0.8971,0.0,0.0,0.7262,0.9142,1.1045,1.2627,1.3454,1.3669,1.3651,1.3441,1.3684,1.4072,1.4514,1.5727,1.6748,1.7239,1.7629,1.822,1.9144,1.9196,1.9381,1.9854,1.9508,1.9116,1.8698,1.6533,1.4641,1.3238,1.2054,1.1113,1.0467,0.9536,0.8613,0.7724,0.7114,0.6359,0.5549,0.4148,0.2153,-0.0354,-0.3009,-0.5305,-0.7429,-1.0945,-1.278,-1.3461,-1.3873,-1.4243,-1.4343,-1.2846,-1.2369,-1.2501,0.0,0.0,0.0,0.0,0.0,0.0,0.4696,0.4654,0.4319,0.352,0.3135,0.2937,0.3003,0.3248,0.3737,0.4549,0.4859,0.0,0.0,0.0,0.0,0.0,0.0,0.0,0.0,0.0,0.0,-0.0401,-0.1139,-0.1524,-0.1594,-0.1809,-0.1765,-0.1521,0.0,0.0,0.0,0.0,0.0,0.0,0.0,0.0,0.0,0.0,0.0,0.0,0.0,0.0,0.0,0.0,0.0,0.0,0.0,1.0254,1.0242,0.0,1.0412,1.0535,1.205,1.2488,1.3077,1.5469,1.4429,1.197,0.8677,0.9631,1.1144,1.0845,1.1853,1.3018,1.3754,1.406,1.4126,1.3941,1.3795,1.4294,1.5939,1.5688,1.5862,1.7332,1.6816,1.6976,1.8651,1.9937,2.0795,2.1046,2.1059,2.0492,1.918,1.919,1.8378,1.6523,1.4451,1.3531,1.3864,1.1547,1.0769,1.1512,0.9581,0.8666,0.8621,0.8027,0.5432,0.1462,0.1162,-0.2138,-0.7394,-0.8574,-1.0144,-1.1963,-1.3364,-1.2454,-1.0421,-1.0931,-1.1198,-1.1329,0.0,0.0,0.0,0.0,0.0,0.0,0.0,0.372,0.3294,0.2656,0.228,0.216,0.2371,0.2698,0.3297,0.4234,0.4441,0.0,0.0,0.0,0.0,0.0,0.0,0.0,0.0,0.0,0.0,0.0,-0.097,-0.1524,-0.1654,-0.1543,-0.1624,-0.1813,-0.1414,-0.156,0.0,0.0,0.0,0.0,0.0,0.0,0.0,0.0,0.0,0.0,0.0,0.0,0.0,0.0,0.0,0.0,0.0,0.0,0.0,1.0289,1.0597,1.0974,1.1368,1.2435,1.3652,1.4459,1.2268,1.01,1.0933,0.9677,0.8972,1.1117,1.2439,1.3404,1.4046,1.4307,1.4344,1.4201,1.4149,1.428,1.476,1.655,1.7754,1.752,1.8682,1.9926,2.1028,2.1615,2.2147,2.27,2.2326,2.1886,2.1503,2.0273,1.8814,1.7091,1.6153,1.5547,1.5335,1.4643,1.4076,1.3583,1.3386,1.2912,1.221,1.1021,0.9311,0.7148,0.4113,0.1225,-0.1491,-0.3283,-0.4961,-0.6492,-0.7442,-0.9253,-1.108,-0.9103,-0.8739,-0.918,0.0,0.0,0.0,0.0,0.0,0.0,0.0,0.3021,0.2536,0.2009,0.1471,0.1303,0.1793,0.2349,0.3045,0.3938,0.4061,0.0,0.0,0.0,0.0,0.0,0.0,0.0,0.0,0.0,0.0,0.0,-0.0634,-0.1205,-0.1536,-0.1352,-0.14,-0.1589,-0.1028,-0.1048,0.0,0.0,0.0,0.0,0.0,0.0,1.0206,0.0,0.0,0.0,0.0,0.0,0.0,0.0,0.0,0.0,0.0,0.0,0.0,0.0,1.047,1.0823,1.1015,1.2003,1.298,1.3075,1.1408,1.0117,1.1489,0.0,0.9238,1.1515,1.2697,1.3503,1.4116,1.446,1.4608,1.4467,1.4493,1.4629,1.4873,1.6935,1.8297,1.8003,1.9598,2.088,2.1287,2.1885,2.2467,2.301,2.2653,2.2308,2.2009,2.0892,1.9682,1.8346,1.7754,1.7347,1.717,1.6941,1.6585,1.6118,1.6112,1.5759,1.508,1.4141,1.2293,0.9787,0.8047,0.512,0.0,0.0164,-0.1055,-0.2208,-0.3442,-0.5705,-0.8207,-0.7492,-0.7248,-0.7195,0.0,0.0,0.0,0.0,0.0,0.0,0.0,0.2473,0.2017,0.1485,0.0682,0.0457,0.1245,0.211,0.2901,0.3609,0.0,0.0,0.0,0.0,0.0,0.0,0.0,0.0,0.0,0.1496,0.0,0.0177,-0.0165,-0.064,-0.1184,-0.1191,-0.1125,-0.0961,-0.0701,0.0,0.0,0.0,0.0,0.0,0.8788,0.9982,0.0,0.0,0.0,0.0,0.0,0.0,0.0,0.0,0.0,0.0,0.0,0.0,0.0,0.0,0.0,0.0,0.0,1.1215,1.1341,1.1539,1.1666,1.1543,1.0733,0.0,0.0,1.1952,1.2616,1.3307,1.3948,1.4499,1.4835,1.4719,1.481,1.5207,1.6092,1.7013,1.7892,1.8724,1.9675,2.0191,1.9926,2.1036,2.1939,2.2288,2.2279,2.1881,2.1079,2.1088,2.0781,2.001,1.9204,1.8903,1.915,1.8439,1.8342,1.8877,1.7844,1.7301,1.7203,1.7027,1.4423,1.0182,1.2445,0.9225,0.2367,0.2386,0.1895,0.0924,-0.0874,-0.1871,-0.2718,-0.5694,-0.6161,-0.5233,0.0,0.0,0.0,0.0,0.0,0.0,0.0,0.0,0.0,0.0,0.0088,-0.0022,0.0634,0.1394,0.2272,0.0,0.0,0.0,0.0,0.0,0.0,0.0,0.0,0.0,0.0,0.0,0.0,0.1829,0.075,0.0113,-0.0094,-0.0889,-0.1039,-0.0611,-0.0452,0.0,0.0,0.0,0.0,0.0,1.0431,1.1657,0.0,0.0,0.0,0.0,1.496,1.5283,0.0,0.0,0.0,0.0,0.0,0.0,0.0,0.0,1.0102,1.0129,1.0258,0.0,1.0483,1.1122,1.133,1.1264,0.0,0.0,0.0,0.0,0.0,1.2543,1.3601,1.424,1.4625,1.468,1.4808,1.5467,1.7099,1.8561,1.9576,1.9887,2.0015,2.0042,1.9973,2.0944,2.1827,2.2414,2.199,2.1576,2.1321,2.0703,2.0257,2.0006,1.9594,1.9514,1.9783,1.9105,1.9121,1.9788,1.8575,1.807,1.8208,1.7001,1.5403,1.3544,1.3644,1.1069,0.6881,0.7953,0.6255,0.3002,0.3509,0.1839,-0.0812,-0.0831,-0.1381,-0.2134,0.0,0.0,0.0,0.0,0.0,0.0,0.0,0.0,0.0,0.0,0.0,0.0,0.0,0.0,0.0,0.0,0.0,0.0,0.0,0.0,0.0,0.0,0.0,0.0,0.0,0.2665,0.2548,0.0,0.0,0.0875,0.0383,-0.0588,-0.0913,-0.0665,0.058,0.0,0.0,0.0,0.0,0.0,1.0673,0.0,0.0,0.0,0.0,0.0,1.4529,1.4931,0.0,1.4785,1.4354,1.3762,0.0,0.0,0.0,0.0,1.0057,1.0035,0.9974,1.0212,1.06,1.0977,1.135,1.1586,1.1301,0.0,0.0,0.0,0.0,1.2611,1.3572,1.4573,1.516,1.4885,1.56,1.6665,1.8052,1.9,1.9737,2.0243,2.0094,1.9992,2.0074,2.0175,2.0523,2.1255,2.0627,2.0182,2.0128,1.967,1.9331,1.9173,1.8971,1.9076,1.9533,1.9066,1.8892,1.9028,1.8213,1.777,1.7589,1.6196,1.486,1.3585,1.3206,1.1455,0.8948,0.9367,0.7926,0.5413,0.5218,0.3789,0.1957,0.263,0.2013,0.0813,0.0,0.0,0.0,0.0,0.0,0.0,0.0,0.0,0.0,0.0,0.0,0.0,0.0,0.0,0.0,0.0,0.0,0.0,0.0,0.0,0.0,0.0,0.0,0.0,0.3723,0.3591,0.3466,0.3309,0.0,0.0,0.0,0.0,-0.066,0.0,0.0,0.0,0.0,0.0,0.0,0.0,1.044,0.0,0.0,0.0,0.0,0.0,0.0,0.0,0.0,1.5306,1.4783,1.3981,1.3105,0.0,0.0,0.0,0.0,0.0,1.0093,1.0834,1.1502,1.1007,1.1584,1.2143,1.1646,0.0,0.0,0.0,0.0,0.0,1.3885,1.5046,1.5746,1.5271,1.672,1.8258,1.9189,1.9315,1.9551,2.0234,2.0085,1.9929,1.9979,1.9202,1.8962,1.965,1.8954,1.846,1.8354,1.8343,1.824,1.8019,1.7874,1.807,1.8636,1.8479,1.8199,1.7789,1.7294,1.6848,1.6428,1.5155,1.3796,1.2412,1.2303,1.118,0.9394,0.8892,0.812,0.7104,0.5475,0.4707,0.4532,0.4848,0.4226,0.3142,0.0,0.0,0.0,0.0,0.0,0.0,0.0,0.0,0.0,0.0,0.0,0.0,0.0,0.0,0.0,0.0,0.0,0.0,0.0,0.0,0.0,0.0,0.0,0.4961,0.5572,0.5235,0.5274,0.5676,0.3883,0.0,0.1823,0.0438,-0.0053,0.025,0.0,0.0,0.0,0.0,0.0,0.9869,1.0959,0.0,0.0,0.0,0.0,0.0,0.0,0.0,0.0,1.5375,1.5297,1.502,1.4142,0.0,0.0,0.0,0.0,0.0,1.0947,1.2417,1.3461,1.1269,1.1678,1.2533,0.0,0.0,0.0,0.0,0.0,0.0,0.0,1.4971,1.5169,1.5971,1.7708,1.9492,2.0976,2.1189,2.099,2.0449,2.0152,1.9738,1.9079,1.8767,1.8668,1.8787,1.805,1.7468,1.7182,1.717,1.7172,1.717,1.6924,1.6906,1.7056,1.7305,1.7543,1.7769,1.6192,1.5765,1.6285,1.4728,1.3638,1.2977,1.2968,1.1318,0.8705,0.9207,0.7938,0.5637,0.5585,0.533,0.503,0.5179,0.4583,0.3587,0.0,0.0,0.0,0.0,0.0,0.0,0.0,0.0,0.0,0.0,0.0,0.0,0.0,0.0,0.0,0.0,0.0,0.0,0.0,0.0,0.0,0.0,0.6719,0.6678,0.6537,0.6469,0.6545,0.6798,0.506,0.3896,0.3185,0.0419,-0.0621,-0.0124,0.1536,0.3219,0.4933,0.0,0.8678,1.0025,0.0,0.0,0.0,0.0,0.0,0.0,0.0,0.0,0.0,0.0,1.5407,1.5249,1.4374,0.0,0.0,0.0,0.0,0.0,1.122,1.2456,1.3819,1.3446,1.468,0.0,0.0,0.0,0.0,0.0,0.0,0.0,0.0,1.5994,1.6904,1.8843,1.9152,1.9694,2.1269,2.0716,2.0143,2.0176,1.9564,1.9001,1.8611,1.7945,1.7514,1.7514,1.6669,1.6088,1.595,1.5832,1.5701,1.5602,1.5701,1.5801,1.594,1.6213,1.6186,1.5918,1.4844,1.4242,1.4085,1.3635,1.2857,1.1952,1.2765,1.1722,0.9493,0.9717,0.8758,0.7094,0.6598,0.628,0.6109,0.5755,0.5329,0.4765,0.0,0.0,0.0,0.0,0.0,0.0,0.0,0.0,0.0,0.0,0.0,0.0,0.0,0.0,0.0,0.0,0.0,0.0,0.0,0.0,0.7557,0.8062,0.8434,0.8323,0.7673,0.772,0.7784,0.7852,0.6193,0.4694,0.3295,0.0124,-0.1118,-0.0583,0.1326,0.3214,0.5093,0.7324,0.8873,0.9877,0.0,0.0,0.0,0.0,0.0,0.0,0.0,0.0,0.0,0.0,0.0,0.0,0.0,0.0,0.0,1.2486,1.2434,1.2717,1.1835,1.2788,1.433,1.5702,0.0,0.0,0.0,0.0,0.0,0.0,0.0,0.0,0.0,1.7242,1.8395,2.0655,1.9934,1.9722,2.1512,2.0255,1.9443,2.0233,1.9347,1.8596,1.8418,1.732,1.6522,1.6342,1.5392,1.4781,1.4671,1.453,1.4349,1.4136,1.457,1.4876,1.5015,1.5116,1.4861,1.4283,1.3766,1.3081,1.221,1.2659,1.2123,1.0966,1.2234,1.1665,0.981,0.9714,0.912,0.8109,0.7328,0.6979,0.6904,0.6163,0.5899,0.5715,0.0,0.0,0.0,0.0,0.0,0.0,0.0,0.0,0.0,0.0,0.0,0.0,0.0,0.0,0.0,0.0,0.0,0.0,0.0,0.0,0.9098,1.0049,0.9776,0.9591,0.9601,0.9244,0.9216,0.9532,0.7307,0.4375,0.0835,-0.0383,-0.0818,-0.0562,0.0721,0.2715,0.5202,0.6868,0.8498,1.0001,1.0226,0.0,0.0,0.0,0.0,0.0,0.0,0.0,0.0,0.0,0.0,0.0,0.0,0.0,1.5101,1.412,1.3811,1.3745,1.3471,1.4578,1.6062,1.7103,0.0,0.0,0.0,0.0,0.0,0.0,0.0,0.0,0.0,1.8298,1.8183,1.9129,1.9173,1.9963,2.243,2.1131,2.0259,2.1182,2.0229,1.9218,1.846,1.7312,1.6287,1.5546,1.4556,1.3824,1.3446,1.3413,1.3363,1.329,1.3907,1.4212,1.4197,1.394,1.3997,1.4283,1.3457,1.2757,1.2195,1.236,1.1877,1.0931,1.1622,1.0561,0.8388,0.8686,0.7983,0.6766,0.6921,0.6979,0.6904,0.6163,0.5899,0.5784,0.0,0.0,0.0,0.0,0.0,0.0,0.0,0.0,0.0,0.0,0.0,0.0,0.0,0.0,0.0,0.0,0.0,0.0,0.0,0.0,0.8951,1.0019,0.9986,0.9942,0.9927,0.9779,0.9594,0.9394,0.6561,0.3675,0.0758,-0.0467,-0.0989,0.0,0.0,0.232,0.5735,0.6841,0.8646,1.0768,1.0977,1.156,0.0,0.0,0.0,0.0,0.0,0.0,0.0,0.0,1.4929,1.5343,1.5387,1.536,1.5167,1.4252,1.4338,1.4555,1.3859,1.5266,1.7009,1.7301,0.0,0.0,0.0,0.0,0.0,0.0,0.0,0.0,0.0,1.9241,1.9488,1.9805,2.027,2.1113,2.2636,2.1674,2.0899,2.1175,2.0251,1.8994,1.7422,1.6793,1.588,1.4382,1.3837,1.3445,1.3123,1.2964,1.278,1.2576,1.3061,1.3232,1.2974,1.3039,1.2872,1.2485,1.2255,1.1814,1.1289,1.2052,1.1708,1.0576,1.1427,1.0746,0.9068,0.916,0.8873,0.8358,0.7769,0.7321,0.6965,0.6687,0.6565,0.6486,0.0,0.0,0.0,0.0,0.0,0.0,0.0,0.0,0.0,0.0,0.0,0.0,0.0,0.0,0.0,0.0,0.0,0.0,0.0,0.0,0.9074,1.0253,1.0149,1.015,1.0318,0.9896,0.9495,0.9141,0.6124,0.336,0.0867,-0.0332,0.0,0.0,0.0,0.0,0.5087,0.6036,0.839,1.1507,1.1773,1.2406,0.0,0.0,0.0,0.0,0.0,0.0,0.0,0.0,1.4651,1.5338,1.5387,1.5357,1.5177,1.4582,1.4975,1.5452,1.4776,1.5854,1.7233,0.0,0.0,0.0,0.0,0.0,0.0,0.0,2.2149,0.0,1.987,0.0,1.9889,1.9834,2.0531,2.1229,2.178,2.1211,2.0736,2.064,1.9917,1.868,1.6787,1.6397,1.5501,1.3642,1.3362,1.3121,1.2776,1.2569,1.2336,1.2066,1.2546,1.2574,1.2135,1.2327,1.2021,1.1174,1.1267,1.101,1.0468,1.1461,1.122,1.0084,1.0974,1.0584,0.9318,0.9104,0.8918,0.8618,0.7897,0.7363,0.6979,0.6979,0.6979,0.6952,0.0,0.0,0.0,0.0,0.0,0.0,0.0,0.0,0.0,0.0,0.0,0.0,0.0,0.0,0.0,0.0,0.0,0.0,0.0,0.8044,0.9732,1.1137,1.0428,1.0305,1.0965,0.9675,0.8974,0.8963,0.6305,0.3586,0.0907,0.0027,0.0,0.0,0.0,0.0,0.2996,0.429,0.7642,1.2139,1.2545,1.3278,1.3993,0.0,0.0,0.0,0.0,0.0,0.0,0.0,1.4671,1.5407,1.5394,1.5357,1.5294,1.5303,1.5857,1.6493,1.6498,1.6508,1.6734,0.0,0.0,0.0,0.0,0.0,0.0,0.0,0.0,2.1477,2.0492,1.9642,1.9032,1.8837,1.9528,2.0027,1.9817,1.9663,1.9582,1.9596,1.9227,1.8351,1.6742,1.6217,1.5245,1.343,1.3105,1.2776,1.2246,1.2205,1.2081,1.179,1.2433,1.2429,1.1691,1.182,1.1481,1.0681,1.0681,1.0406,0.9917,1.0528,1.0325,0.9522,1.0141,0.979,0.8762,0.8244,0.7636,0.7021,0.7021,0.7021,0.7021,0.7021,0.7021,0.7021,0.0,0.0,0.0,0.0,0.0,0.0,0.0,0.0,0.0,0.0,0.0,0.0,0.0,0.0,0.0,0.0,0.0,0.0,0.0,0.7111,0.9335,1.0176,0.9948,0.97,0.9516,0.8386,0.7462,0.6744,0.5146,0.3584,0.2054,0.0,0.0,-0.4035,0.0,0.0,0.4287,0.6277,0.9138,1.238,1.3158,1.3702,1.3931,0.0,0.0,0.0,0.0,0.0,0.0,0.0,0.0,0.0,1.5394,1.5385,1.5368,1.5307,1.5462,1.566,1.566,1.693,1.817,1.7878,0.0,0.0,0.0,0.0,0.0,0.0,2.236,2.0795,2.0971,2.0319,1.9466,1.865,1.929,1.9673,1.9039,1.8734,1.8328,1.7755,1.7394,1.6702,1.551,1.5141,1.4433,1.3188,1.2871,1.2569,1.2226,1.2205,1.1982,1.1468,1.1657,1.1443,1.0786,1.0825,1.0623,1.0144,1.0144,1.0257,1.0481,1.1089,1.0714,0.9589,1.01,0.982,0.8983,0.9422,0.9283,0.874,0.874,0.8545,0.8144,0.778,0.7621,0.7572,0.0,0.0,0.0,0.0,0.0,0.0,0.0,0.0,0.0,0.0,-0.2916,0.0,0.0,0.0,0.0,0.0,0.0,0.0,0.0,0.0,0.8965,0.9579,0.9495,0.9091,0.8351,0.7633,0.6854,0.6041,0.5078,0.4134,0.0,0.0,0.0,-0.2259,0.0,0.2258,0.4631,0.6508,0.9399,1.2751,1.3132,1.3566,1.3878,0.0,0.0,0.0,0.0,0.0,0.0,0.0,0.0,0.0,1.5407,1.54,1.5459,1.5762,1.5618,1.5563,1.6577,1.7684,1.869,1.9229,2.0736,2.2101,2.2051,0.0,0.0,0.0,2.2274,2.0765,2.1149,2.0516,1.9585,1.8558,1.8882,1.8901,1.7938,1.7628,1.7292,1.6779,1.6429,1.5885,1.4998,1.4554,1.3909,1.2918,1.2591,1.2316,1.206,1.2024,1.1876,1.1512,1.1378,1.1066,1.0605,1.0483,1.0235,0.9905,0.9776,0.9858,1.0202,1.0597,1.0214,0.9287,0.9453,0.9123,0.8474,0.9328,0.9399,0.8902,0.9098,0.8837,0.8357,0.8036,0.7746,0.7489,0.0,0.0,-0.1146,-0.2346,0.0,0.0,0.0,0.0,0.0,0.0,-0.2263,-0.2224,0.0,0.0,0.0,0.0,0.0,0.0,0.0,0.0,0.8726,0.9253,0.9094,0.8575,0.7693,0.7429,0.7049,0.6558,0.5807,0.0,0.0,0.0,0.3702,0.0858,0.0,0.3623,0.4275,0.5792,0.8973,1.2975,1.2647,1.3001,1.3706,1.3037,0.0,0.0,0.0,0.0,0.0,0.0,0.0,0.0,1.5408,1.5408,1.5568,1.6347,1.6062,1.6013,1.8339,1.8542,1.8665,2.1074,2.2314,2.2929,2.2797,2.2647,2.2736,2.3484,2.2336,2.1175,2.1084,2.0318,1.9393,1.8503,1.8311,1.7855,1.6671,1.6471,1.6378,1.6171,1.5888,1.5453,1.4794,1.4254,1.3554,1.2639,1.2312,1.206,1.1811,1.1805,1.1768,1.1703,1.1423,1.1127,1.0801,1.0508,1.021,0.9893,0.9593,0.9449,0.9446,0.9431,0.9196,0.8739,0.8593,0.8139,0.7634,0.8559,0.861,0.8202,0.8654,0.8561,0.8118,0.8077,0.7655,0.7147,0.0,0.0,-0.0836,-0.1944,0.0,0.0,0.0,0.0,0.0,0.0,0.0,0.0,0.0,0.0,0.0,0.0,0.0,0.0,0.0,0.0,0.9142,0.9064,0.8977,0.8911,0.891,0.8349,0.7985,0.7812,0.6455,0.0,0.0,0.0,0.0,0.2238,0.0,0.444,0.4265,0.7592,0.9986,1.1621,1.2243,1.2656,1.2877,1.2765,1.3116,0.0,0.0,0.0,0.0,0.0,0.0,0.0,1.5373,1.5403,1.5447,1.5624,1.5996,1.6461,1.7015,1.8341,1.9843,2.1084,2.2383,2.3362,2.3341,2.2243,2.1298,2.1639,2.1381,2.1065,2.0907,1.9688,1.8578,1.8213,1.7619,1.6853,1.5809,1.5523,1.5127,1.4298,1.3871,1.3575,1.3425,1.2912,1.2509,1.2307,1.2045,1.1854,1.179,1.1805,1.1571,1.1108,1.1024,1.0715,1.0122,1.0046,0.997,0.9905,0.9828,0.9802,0.9776,0.9205,0.875,0.8428,0.9077,0.8916,0.8306,0.9502,0.9706,0.93,0.9752,0.9883,0.9716,0.9319,0.8788,0.8267,0.0,0.0,0.0,0.0,0.0,0.0,0.0,0.0,0.0,0.0,0.0,0.0,0.0,0.0,0.0,0.0,0.4208,0.5572,0.6372,0.8113,0.896,0.8626,0.8737,0.8769,0.8725,0.8603,0.8515,0.0,0.0,0.0,0.0,0.0,0.0,0.513,0.0,0.713,0.6266,0.8859,1.044,1.1258,1.132,1.1612,1.207,1.248,1.2892,1.3334,1.4098,0.0,0.0,0.0,0.0,0.0,0.0,0.0,1.542,1.5846,1.5685,1.5704,1.7349,1.8285,1.9282,2.1287,2.2281,2.2675,2.2299,2.1395,2.0589,2.0313,2.0233,2.0206,2.0107,1.9003,1.7945,1.7464,1.6631,1.5688,1.4695,1.4453,1.416,1.356,1.3209,1.3013,1.3013,1.251,1.2205,1.2205,1.194,1.1805,1.1805,1.1805,1.1659,1.1347,1.1062,1.0729,1.0373,1.0046,0.9905,0.9905,0.9738,0.9688,0.9726,0.9083,0.8642,0.8369,0.8839,0.8896,0.874,0.9609,0.9834,0.9641,1.0107,1.0118,0.9883,0.9597,0.9159,0.8675,0.0,0.0,0.0,0.0,0.0,0.0,0.0,0.0,0.0,0.0,0.0,0.0,0.0,0.0,0.525,0.0,0.0,0.0,0.8417,0.863,0.8549,0.82,0.8546,0.8697,0.8595,0.8879,0.9005,0.0,0.0,0.0,0.0,0.0,0.0,0.834,0.0,1.0152,0.9058,0.996,1.0745,1.1331,1.0468,1.0534,1.1256,1.2077,1.2426,1.2671,1.4209,1.4812,1.4914,1.497,0.0,0.0,0.0,0.0,1.5443,1.6152,1.5456,1.5055,1.7887,1.8259,1.8583,2.1494,2.1971,2.1574,2.0904,2.0483,2.0051,1.9389,1.9274,1.9305,1.9305,1.8346,1.7369,1.6703,1.5654,1.4591,1.3717,1.3584,1.354,1.3346,1.3086,1.2906,1.2869,1.2522,1.2266,1.2143,1.2145,1.2044,1.1805,1.191,1.1866,1.1637,1.1164,1.0849,1.0729,1.0173,0.9905,0.9905,0.9705,0.969,0.9818,0.9282,0.8888,0.8614,0.8795,0.8918,0.9043,0.9541,0.9661,0.9641,1.0107,1.004,0.9637,0.9637,0.9279,0.8837,0.0,0.0,0.0,0.0,0.0,0.0,0.0,0.0,0.0,0.0,0.0297,0.2086,0.0,0.6414,0.6976,0.796,0.8121,0.8473,0.9207,0.0,0.0,0.8115,0.8652,0.9442,1.0491,1.0132,1.002,0.0,0.0,0.0,0.0,0.0,0.0,1.0588,0.0,0.0,1.1431,1.1358,1.135,1.1334,1.0511,1.0214,1.037,0.0,0.0,0.0,0.0,1.4221,1.4894,1.4902,1.5008,0.0,0.0,0.0,1.5319,1.5442,1.5792,1.6276,1.6725,1.8097,1.9794,2.1454,2.1265,2.0662,2.0551,1.9839,1.9162,1.9053,1.9182,1.9305,1.9305,1.7909,1.6721,1.6631,1.516,1.3947,1.3632,1.3584,1.3459,1.3086,1.2815,1.2553,1.2332,1.2558,1.2471,1.1915,1.2906,1.3032,1.1865,1.2343,1.2159,1.1052,1.0944,1.0619,1.0046,0.9957,0.9905,0.9905,1.0341,1.064,1.0801,1.0316,0.9884,0.9569,1.0328,1.0016,0.9072,0.9873,0.9971,0.9641,1.0107,1.0244,1.0196,1.0196,0.9843,0.9399,0.0,0.0,0.0,0.0,0.0,0.0,0.0,0.0,0.0,0.0,0.0,0.4316,0.7148,0.8088,0.8748,0.931,0.9252,0.892,0.8314,0.7831,0.7572,0.7542,0.8429,0.9289,1.003,0.9942,0.0,0.0,0.0,0.0,0.0,1.0907,1.1018,0.0,0.0,0.0,0.0,0.0,0.0,1.1424,1.1069,1.0918,0.0,0.0,0.0,0.0,0.0,0.0,0.0,1.4894,1.4995,1.5106,1.5182,0.0,0.0,0.0,1.5407,1.5835,1.6619,1.7888,1.9199,2.016,2.0097,1.9808,1.9678,1.9322,1.8949,1.8807,1.8843,1.8912,1.8912,1.7807,1.6746,1.6338,1.512,1.4056,1.3562,1.3494,1.3379,1.3049,1.2759,1.2494,1.2246,1.2568,1.2681,1.2373,1.3256,1.3376,1.2426,1.2473,1.225,1.1643,1.1255,1.1084,1.1075,1.0919,1.0847,1.086,1.1412,1.1709,1.1787,1.1609,1.1002,1.0088,1.0174,1.0019,0.9746,1.0127,1.0166,1.002,1.0205,1.0283,1.0283,1.0283,1.0157,0.9961,0.0,0.0,0.0,0.0,0.0,0.0,0.0,0.0,0.0,0.0,0.0,0.5441,0.7675,0.0,0.0,0.0,0.9648,0.8864,0.705,0.6977,0.6941,0.6852,0.8014,0.8909,0.9417,0.0,0.0,0.0,0.0,0.0,1.1164,1.1211,1.1495,0.0,1.2516,0.0,0.0,0.0,0.0,0.0,0.0,0.0,0.0,0.0,0.0,0.0,0.0,0.0,0.0,0.0,1.4979,1.5064,1.5068,1.5082,0.0,0.0,0.0,1.5223,1.6452,1.7256,1.7925,1.8783,1.8947,1.8909,1.8981,1.904,1.9019,1.8827,1.8711,1.867,1.867,1.7805,1.6912,1.6375,1.5445,1.4543,1.3916,1.3814,1.3705,1.3349,1.3135,1.2911,1.263,1.3014,1.325,1.3086,1.3825,1.3919,1.2956,1.2823,1.257,1.2146,1.1643,1.1566,1.191,1.1695,1.1663,1.1801,1.2215,1.2479,1.2597,1.2539,1.193,1.0908,1.0225,1.0083,1.0283,1.0283,1.0283,1.0283,1.0283,1.0283,1.0283,1.0283,1.0283,1.0283,0.0,0.0,0.0,0.0,0.0,0.0,0.0,0.0,0.0,0.0,0.0,0.3597,0.6796,0.8116,0.8711,0.8601,0.8923,0.8147,0.5849,0.6519,0.6738,0.6179,0.7364,0.0,0.9468,0.0,0.0,0.0,0.0,0.0,1.0267,1.0463,1.1479,1.3141,1.4118,1.4329,1.3917,0.0,0.0,0.0,0.0,0.0,0.0,0.0,0.0,0.0,0.0,0.0,0.0,0.0,0.0,0.0,0.0,1.5011,1.5003,0.0,0.0,0.0,1.5751,1.5945,1.6294,1.7794,1.7967,1.8008,1.8803,1.9151,1.9287,1.9265,1.9041,1.8873,1.8873,1.7924,1.7086,1.7051,1.6199,1.5412,1.506,1.5002,1.4789,1.4218,1.4123,1.4004,1.3755,1.4303,1.4423,1.381,1.4974,1.4957,1.3277,1.371,1.3403,1.2045,1.1974,1.1868,1.1618,1.1618,1.1851,1.2366,1.2391,1.268,1.316,1.2708,1.2449,1.2354,1.135,1.0705,1.0283,1.0283,1.0283,1.0283,1.0283,1.0283,1.0283,1.0283,1.0283,1.0283,0.0,0.0,0.0,0.0,0.0,0.0,0.0,0.0,0.0,0.0,0.0,0.0,0.0,0.8418,0.8786,0.8994,0.7929,0.6825,0.5866,0.6058,0.6269,0.6349,0.7618,0.8588,0.9176,0.0,0.0,0.0,0.0,0.9321,1.0192,1.0323,1.1077,1.2415,1.3597,1.4367,1.4736,1.4162,0.0,0.0,0.0,0.0,0.0,0.0,0.0,0.0,0.0,0.0,0.0,0.0,0.0,0.0,0.0,0.0,0.0,0.0,0.0,0.0,0.0,0.0,1.5608,1.673,1.7283,1.7611,1.7753,1.8578,1.925,1.9087,1.9338,1.9469,1.8995,1.8155,1.7407,1.6912,1.654,1.6099,1.5506,1.5238,1.4968,1.4567,1.4335,1.4087,1.3835,1.4408,1.4692,1.4453,1.5304,1.5353,1.4281,1.397,1.3567,1.2979,1.2511,1.2361,1.2609,1.2642,1.271,1.2897,1.2897,1.301,1.3198,1.272,1.2508,1.2473,1.1799,1.1207,1.0725,1.0428,1.0283,1.0283,1.0283,1.0283,1.0283,1.0283,1.0283,1.0283,0.0,0.0,0.0,0.0,0.0,0.0,0.0,0.0,0.0,0.0,0.0,0.0,0.0,0.0,0.8595,0.8811,0.7409,0.6352,0.6018,0.6075,0.6286,0.6722,0.783,0.8598,0.8953,0.0,0.0,0.0,0.0,0.0,0.0,0.0,1.044,1.1501,1.2435,1.3545,0.0,0.0,0.0,1.4411,0.0,0.0,1.5715,0.0,0.0,0.0,0.0,0.0,0.0,0.0,0.0,0.0,0.0,0.0,0.0,0.0,0.0,0.0,1.4792,0.0,0.0,1.5762,1.6285,1.6677,1.702,1.818,1.9178,1.9263,1.9875,2.0179,1.9418,1.8674,1.7929,1.7185,1.6985,1.6691,1.6094,1.5707,1.5463,1.5383,1.5175,1.4955,1.4797,1.5186,1.5351,1.5169,1.5725,1.5742,1.4931,1.4643,1.4237,1.3662,1.3142,1.2989,1.3198,1.3198,1.3198,1.3198,1.3198,1.3198,1.3198,1.2873,1.272,1.272,1.2246,1.1653,1.0981,1.0649,1.0428,1.0283,1.0283,1.0283,1.0283,1.0283,1.0283,1.0283,0.0,0.0,0.0,0.0,0.0,0.0,0.0,0.0,0.0,0.0,0.0,0.0,0.0,0.0,0.0,0.7877,0.7402,0.6832,0.6252,0.6533,0.6868,0.7214,0.7926,0.8513,0.8925,0.0,0.0,0.0,0.0,0.0,0.0,0.0,0.9575,0.0,1.0881,1.1992,1.3733,0.0,1.5148,1.5277,0.0,1.6539,1.6635,0.0,0.0,0.0,1.7789,1.7593,0.0,1.8324,0.0,0.0,0.0,0.0,0.0,0.0,0.0,0.0,0.0,0.0,0.0,0.0,1.4908,1.5159,1.6685,1.7997,1.9113,1.9816,2.0653,2.0974,2.017,1.941,1.8691,1.7941,1.7542,1.7175,1.6841,1.6517,1.644,1.6698,1.6726,1.6741,1.6741,1.6741,1.6488,1.5903,1.6413,1.6275,1.5221,1.5754,1.5417,1.3947,1.3901,1.3682,1.3198,1.3198,1.3198,1.3198,1.3198,1.3198,1.3198,1.3198,1.3198,1.3163,1.272,1.1945,1.1046,1.1008,1.0725,1.0283,1.0283,1.0283,1.0283,1.0283,1.0283,1.0283,0.0,0.0,0.0,0.0,0.0,0.0,0.0,0.0,0.0,0.0,0.0,0.0,0.0,0.0,0.0,0.7359,0.7054,0.6825,0.6721,0.7148,0.7575,0.7908,0.8403,0.8987,0.9682,0.0,0.0,0.0,0.0,0.0,0.0,0.0,0.0,0.0,1.0883,1.1655,1.2771,1.3163,0.0,0.0,1.688,1.7511,0.0,0.0,0.0,0.0,0.0,1.8121,1.7727,0.0,1.7109,1.5258,0.0,0.0,0.0,0.0,0.0,0.0,1.3691,0.0,0.0,0.0,0.0,0.0,1.4948,1.698,1.8809,1.901,2.0625,2.1769,2.1008,2.0032,1.9109,1.8369,1.7715,1.7175,1.6841,1.6941,1.7049,1.7117,1.7317,1.7413,1.7413,1.7413,1.7339,1.7191,1.7324,1.7307,1.6986,1.6422,1.5417,1.3947,1.3901,1.3682,1.3198,1.3198,1.3198,1.3198,1.3198,1.3198,1.3198,1.3198,1.3198,1.3198,1.3047,1.265,1.2018,1.1308,1.0725,1.0283,1.0283,1.0283,1.0283,1.0283,1.0283,1.0283,0.0,0.0,0.0,0.0,0.0,0.0,0.0,0.0,0.0,0.0,0.0,0.0,0.0,0.0,0.0,0.7111,0.6951,0.6989,0.7257,0.7802,0.8292,0.8678,0.93,0.9807,1.0163,0.0,0.0,0.0,0.0,0.0,0.0,0.0,0.0,0.0,0.0,0.0,0.0,0.0,0.0,0.0,1.7012,0.0,0.0,1.9116,1.9623,0.0,0.0,0.0,1.8905,2.0207,1.8851,0.0,0.0,0.0,0.0,0.0,0.0,0.0,0.0,0.0,0.0,0.0,0.0,0.0,1.4571,1.6226,1.7748,1.8435,1.9814,2.0794,2.0334,1.9695,1.9044,1.8419,1.7957,1.7524,1.7081,1.7279,1.7578,1.7853,1.8025,1.8134,1.8134,1.8134,1.7981,1.7712,1.7951,1.8134,1.8134,1.6981,1.5931,1.4924,1.4405,1.3953,1.3571,1.3311,1.3198,1.3198,1.3198,1.3198,1.3198,1.3198,1.3198,1.3198,1.3198,1.2943,1.2425,1.1653,1.1019,1.0582,1.04,1.0283,1.0283,1.0283,1.0283,1.0283,0.0,0.0,1.2366,1.2653,1.2773,0.0,0.0,0.0,0.0,0.0,0.0,0.0,0.0,0.0,0.0,0.0,0.716,0.7344,0.7943,0.845,0.8977,0.9513,1.0351,1.077,1.0694,0.9906,0.0,0.0,0.0,0.0,0.0,0.0,0.0,0.0,0.9713,1.0334,0.0,0.0,0.0,1.4227,1.6577,1.7177,0.0,0.0,1.8804,1.8353,1.9783,2.0225,2.0427,2.2419,2.1409,0.0,0.0,0.0,0.0,0.0,1.3763,0.0,0.0,0.0,0.0,0.0,1.3028,0.0,1.4745,1.5534,1.6337,1.7699,1.8394,1.878,1.8696,1.8591,1.8384,1.7958,1.7961,1.7869,1.7406,1.7621,1.8011,1.8627,1.8777,1.8807,1.8807,1.8807,1.8568,1.7984,1.8478,1.8777,1.8702,1.753,1.6681,1.6318,1.5194,1.4433,1.4121,1.3571,1.3261,1.3198,1.3198,1.3198,1.3198,1.3198,1.3198,1.3198,1.3198,1.2943,1.2544,1.2029,1.1468,1.0943,1.0467,1.0283,1.0283,1.0283,1.0283,1.0283,1.1927,1.1767,1.1699,1.2548,0.0,0.0,0.0,0.0,0.0,0.0,0.0,0.0,0.0,0.0,0.0,0.0,0.0,0.8051,0.9016,0.9047,0.943,1.033,1.0638,1.1327,1.2462,1.1822,0.0,0.0,0.0,0.0,0.0,0.0,0.0,0.0,0.9911,1.0128,0.0,0.0,0.0,1.4198,1.5389,1.6562,1.7825,1.9563,2.0094,1.9958,2.021,2.0288,2.0288,2.0454,1.9991,1.9014,0.0,0.0,0.0,1.4285,0.0,0.0,0.0,0.0,0.0,0.0,1.3158,0.0,1.3095,1.4431,1.5607,1.5399,1.6427,1.739,1.7365,1.6684,1.6046,1.5968,1.651,1.715,1.7556,1.8122,1.8553,1.8687,1.9166,1.9495,1.9495,1.9495,1.9435,1.9316,1.942,1.9271,1.8732,1.8056,1.7255,1.6346,1.5649,1.4915,1.4121,1.3972,1.3672,1.3198,1.3198,1.3198,1.3198,1.3198,1.3198,1.3198,1.3198,1.3163,1.3012,1.2138,1.1468,1.0943,1.0467,1.0283,1.0283,1.0283,1.0283,1.0283,1.1331,1.1584,1.1906,1.2572,0.0,0.0,0.0,0.0,0.0,0.0,0.0,0.0,0.0,0.0,0.0,0.0,0.0,0.0,0.0,0.0,0.8961,0.9335,1.0144,1.1081,1.2138,1.1893,1.1779,0.0,0.0,0.0,0.0,0.0,0.0,0.0,0.0,0.0,0.0,0.0,1.2929,1.4205,1.5955,0.0,1.8685,1.9928,2.0385,2.0395,2.0779,2.1062,2.1263,2.0985,1.9922,0.0,1.8687,1.7573,1.6111,0.0,1.5106,1.4817,0.0,0.0,0.0,1.3315,1.3099,0.0,0.0,1.3836,1.4261,1.4683,1.4959,1.5314,1.5921,1.5361,1.5041,1.5831,1.6608,1.7092,1.7109,1.8291,1.9196,1.9196,1.9495,1.969,1.969,1.969,1.969,1.969,1.969,1.954,1.9211,1.8623,1.7957,1.7232,1.6359,1.5583,1.4903,1.4362,1.3946,1.3647,1.3323,1.3198,1.3198,1.3198,1.3198,1.3198,1.3198,1.3198,1.3129,1.2174,1.1627,1.1319,1.0582,1.0283,1.0283,1.0283,1.0283,1.0283,1.0813,1.1434,1.2097,1.2398,0.0,0.0,0.0,0.0,0.0,0.0,0.0,0.0,0.0,0.0,0.0,0.0,0.0,0.0,0.0,0.0,0.8814,0.8874,0.9718,1.0725,1.1868,1.1743,1.1808,1.2076,0.0,0.0,0.0,0.0,0.0,0.0,0.0,0.0,0.0,0.0,0.0,1.4707,0.0,1.836,1.8766,1.9477,1.9864,2.0134,2.1075,2.1676,2.1988,2.1859,2.027,1.8533,1.9525,1.8366,0.0,0.0,0.0,0.0,0.0,0.0,0.0,0.0,1.3183,1.2867,0.0,0.0,0.0,1.3995,1.348,1.3152,1.417,1.3969,1.4038,1.5286,1.6256,1.6623,1.5947,1.77,1.9001,1.9001,1.9415,1.963,1.9474,1.9355,1.9385,1.9675,1.945,1.9385,1.9675,1.8989,1.8448,1.8118,1.6965,1.6123,1.5693,1.4853,1.4299,1.4072,1.3609,1.3298,1.3198,1.3198,1.3198,1.3198,1.3198,1.3198,1.3129,1.2174,1.1811,1.17,1.0697,1.0283,1.0283,1.0283,1.0283,1.0283,1.0485,1.0993,1.1362,1.1521,0.0,0.0,0.0,0.0,0.0,0.0,0.0,0.0,0.0,0.0,0.0,0.0,0.0,0.0,1.1523,0.0,0.0,1.1587,1.0223,1.0894,1.3981,1.2904,1.2196,1.2011,0.0,0.0,0.0,0.0,0.0,0.0,1.2167,0.0,0.0,0.0,1.5497,0.0,1.8303,1.8147,0.0,1.7554,1.8297,1.9163,2.0614,2.1061,2.0998,2.1081,2.0318,1.9099,0.0,1.7832,1.7915,1.5773,0.0,0.0,0.0,0.0,0.0,1.4019,1.3839,1.3485,1.2298,0.0,1.2384,1.1812,0.0,1.1565,1.1694,0.0,0.0,1.1856,1.3351,1.427,1.3666,1.5267,1.65,1.65,1.8392,1.9394,1.8617,1.8076,1.8278,1.96,1.849,1.8342,1.963,1.8745,1.8154,1.8092,1.7029,1.6245,1.5693,1.5567,1.5054,1.4085,1.4022,1.3709,1.3198,1.3198,1.3198,1.3198,1.3198,1.3198,1.3129,1.2174,1.1811,1.17,1.0697,1.0283,1.0283,1.0283,1.0283,1.0283,1.0042,1.1111,1.2003,1.2124,0.0,0.0,0.0,0.0,0.0,0.0,0.0,0.0,0.0,0.0,0.0,0.0,0.0,1.3569,1.2407,0.0,0.0,0.0,0.9054,0.9667,1.1677,1.137,1.1235,1.1362,1.0827,0.0,0.0,0.0,0.0,0.0,1.3146,0.0,1.5043,0.0,1.6734,0.0,0.0,1.8703,1.7236,1.9141,1.9723,1.9554,2.0056,2.0167,2.0178,2.0585,1.9483,1.8119,1.9214,0.0,0.0,1.7097,0.0,0.0,0.0,0.0,1.5227,1.4409,1.4078,1.3669,1.2429,1.1986,1.1779,1.1678,0.0,0.0,0.0,0.0,0.0,0.0,1.2694,1.3232,1.2581,1.427,1.5698,1.6059,1.6976,1.7827,1.8341,1.8649,1.9036,1.9645,1.9111,1.9036,1.966,1.8968,1.8419,1.8106,1.7353,1.6722,1.617,1.5856,1.5304,1.4563,1.4236,1.3795,1.3198,1.3198,1.3198,1.3198,1.3198,1.3198,1.3163,1.2461,1.221,1.2102,1.1094,1.0544,1.0283,1.0283,1.0283,1.0312,1.0335,0.0,0.0,0.0,0.0,0.0,0.0,0.0,0.0,0.0,0.0,0.0,1.5541,1.6074,0.0,0.0,1.6698,1.5658,1.4133,1.2167,1.0782,0.0,0.9105,0.9446,1.135,1.0753,1.0795,1.1541,1.0814,0.0,0.0,0.0,0.0,0.0,0.0,1.537,1.6973,0.0,1.7723,1.7622,1.9489,1.9641,1.8915,2.0439,2.0661,2.0085,1.9665,1.9513,1.9555,1.9727,1.859,1.7439,1.9379,1.8839,1.7544,0.0,0.0,0.0,1.6315,1.6098,1.6047,1.4703,1.4126,1.356,1.2443,1.1799,1.1537,1.1762,1.1486,0.0,0.0,0.0,0.0,0.0,0.0,1.2567,1.1917,1.3206,1.4455,1.5051,1.5627,1.6517,1.7899,1.8425,1.8876,1.9319,1.9185,1.928,1.9675,1.9043,1.8496,1.8106,1.7422,1.6879,1.6522,1.612,1.5643,1.509,1.4576,1.4022,1.3446,1.3273,1.3198,1.3198,1.3198,1.3198,1.3163,1.2685,1.2508,1.2389,1.1542,1.1019,1.0697,1.039,1.0352,1.0478,1.182,1.2318,0.0,0.0,0.0,0.0,0.0,0.0,0.0,0.0,0.0,0.0,0.0,0.0,0.0,0.0,0.0,2.0183,1.7342,1.5042,1.4341,1.5583,0.0,1.1116,1.5323,1.237,1.1553,1.3136,1.1946,1.1825,0.0,0.0,0.0,0.0,1.497,1.6249,1.7779,1.7866,1.8673,1.9907,2.0046,2.0918,2.1953,2.0228,1.9937,2.037,1.958,1.9305,1.9179,1.827,1.7915,1.7703,1.6767,1.7258,1.8026,1.725,1.8415,1.9546,1.7723,1.7516,1.7263,1.4891,1.39,1.3136,1.1669,1.1611,1.1832,1.1639,1.2062,1.244,1.2467,0.0,0.0,0.0,0.0,0.0,0.0,1.1588,1.1939,1.2536,1.4381,1.5999,1.6952,1.6531,1.6822,1.8311,1.791,1.8189,1.9615,1.8688,1.8145,1.8106,1.7076,1.6522,1.6522,1.6497,1.622,1.5668,1.5155,1.4588,1.4035,1.3483,1.3198,1.3198,1.3198,1.3198,1.3163,1.2685,1.2508,1.2461,1.1957,1.1774,1.1627,1.0659,1.0537,1.084,0.0,0.0,0.0,0.0,0.0,0.0,0.0,1.2922,1.2336,1.2454,1.4723,1.6667,1.7557,1.9044,2.0169,2.0642,2.0552,1.9752,1.8062,1.5951,1.4908,1.5221,1.2076,1.1515,1.4092,1.2464,1.1893,1.2546,1.2353,1.2442,0.0,0.0,0.0,0.0,0.0,1.7146,0.0,0.0,0.0,0.0,2.0582,2.0821,2.1223,2.0452,2.0388,2.0581,1.9644,1.9305,1.9237,1.8792,1.8225,1.7677,1.7573,1.7448,1.7356,1.7488,1.7838,1.8162,1.7843,1.7928,1.7673,1.5868,1.5219,1.4471,1.2433,1.2154,1.216,1.1691,1.2224,1.2664,1.2354,0.0,0.0,0.0,0.0,0.0,0.0,1.1375,1.1764,1.2258,1.3946,1.5188,1.5495,1.6814,1.7675,1.7787,1.8535,1.9191,1.966,1.9006,1.8458,1.8106,1.7394,1.6879,1.6522,1.6522,1.6233,1.5693,1.5505,1.5167,1.4626,1.44,1.4124,1.3808,1.3808,1.3571,1.3198,1.3012,1.2943,1.2908,1.2102,1.1811,1.1737,1.1019,1.0856,1.0972,1.2632,0.0,0.0,0.0,0.0,1.4844,1.423,1.3397,1.2717,1.2446,1.5364,1.7698,1.8323,1.9072,1.9926,2.0897,2.1242,2.0739,1.9156,1.758,1.6513,1.6079,1.3872,1.3464,1.5252,1.3783,1.3234,1.372,1.3357,1.3367,0.0,0.0,0.0,0.0,0.0,1.746,1.957,2.0218,2.1072,2.1945,2.1007,2.0637,2.0663,2.0234,2.0157,2.0174,1.946,1.9198,1.9132,1.8807,1.8323,1.784,1.8011,1.7667,1.7292,1.7698,1.7733,1.7741,1.7904,1.8111,1.7945,1.659,1.6158,1.5535,1.3537,1.32,1.3225,1.2899,1.3079,1.3359,1.3583,0.0,0.0,0.0,0.0,0.0,0.0,1.1402,1.1856,1.2029,1.329,1.4359,1.4962,1.617,1.7161,1.7773,1.8485,1.9161,1.966,1.9006,1.8458,1.8106,1.7394,1.6837,1.6522,1.6522,1.6333,1.5982,1.5781,1.5505,1.5205,1.5004,1.4714,1.4374,1.4374,1.4072,1.3534,1.3735,1.3549,1.3141,1.2782,1.2482,1.2174,1.1132,1.0764,1.0809,1.2805,1.3548,1.4088,1.446,1.4604,1.4185,1.2717,1.3203,1.3787,1.3824,1.6893,1.9279,1.9792,1.9832,2.0213,2.1152,2.2996,2.307,2.0584,1.9756,1.9022,1.8331,1.6716,1.6756,1.8663,1.6208,0.0,0.0,0.0,0.0,0.0,0.0,0.0,0.0,1.5397,0.0,2.0238,1.9262,2.0648,2.3323,2.134,2.0503,2.0356,1.9583,1.9271,1.9204,1.9051,1.8984,1.8896,1.8371,1.8187,1.8146,1.7883,1.7811,1.7811,1.7789,1.8059,1.8297,1.793,1.8116,1.8146,1.709,1.6693,1.623,1.4904,1.4745,1.493,1.5086,1.4602,1.4513,1.5842,1.4484,0.0,0.0,0.0,0.0,0.0,1.1602,1.2082,1.186,1.2468,1.3523,1.5072,1.4651,1.5393,1.8022,1.7773,1.8144,1.9615,1.8631,1.8037,1.8106,1.7076,1.6522,1.6522,1.6522,1.6522,1.6509,1.5982,1.5731,1.5718,1.5191,1.4979,1.4953,1.4953,1.4626,1.4123,1.4651,1.4199,1.3248,1.3761,1.3613,1.2873,1.1067,1.0371,1.043,1.2336,1.3034,1.3513,1.3628,1.321,1.3046,1.3569,1.3459,1.5236,2.0686,2.0607,2.088,2.3087,2.3273,2.314,2.2899,2.3043,2.2462,2.0819,1.9417,1.889,1.9441,1.7534,1.7235,1.8885,1.6991,1.6166,1.6504,0.0,0.0,1.5327,0.0,0.0,0.0,0.0,1.7182,2.0276,1.9865,2.1107,2.3251,2.1994,2.0721,1.9583,1.9381,1.8794,1.8181,1.8801,1.8878,1.8642,1.831,1.8187,1.8146,1.7883,1.7811,1.7766,1.7502,1.7698,1.7967,1.8059,1.8344,1.8537,1.8272,1.7802,1.7156,1.6201,1.6081,1.6043,1.5375,1.5618,1.5688,1.4918,1.4336,1.372,0.0,0.0,0.0,0.0,1.2248,1.1989,1.2215,1.2897,1.3188,1.2747,1.4301,1.5505,1.5995,1.6928,1.8144,1.9615,1.8029,1.7381,1.8078,1.7463,1.6909,1.6522,1.6522,1.6522,1.6522,1.6371,1.6308,1.6308,1.6158,1.5869,1.548,1.548,1.4979,1.4097,1.4236,1.386,1.3141,1.2615,1.2059,1.1531,1.1431,1.1123,1.083,1.1974,1.2622,1.3123,1.321,1.3848,1.4647,1.5418,1.4559,1.572,2.1096,2.2097,2.2932,2.4523,2.4136,2.3805,2.3964,2.293,2.1832,2.0771,1.9991,1.9526,1.9372,1.8674,1.8692,1.9582,1.8309,1.746,1.7116,1.6308,0.0,1.5296,0.0,0.0,0.0,0.0,1.6706,1.9245,2.0451,2.1393,2.2062,2.1872,2.0946,0.0,1.9294,1.8659,1.7985,1.8482,1.8547,1.8391,1.8121,1.8035,1.7992,1.7856,1.7811,1.7726,1.7392,1.7529,1.7876,1.8129,1.8444,1.8777,1.9061,1.8852,1.8369,1.7647,1.7269,1.6987,1.6549,1.6148,1.5885,1.5645,1.4813,1.3795,0.0,0.0,0.0,1.2934,1.2515,1.2232,1.2507,1.278,1.2769,1.2385,1.4379,1.5509,1.5208,1.6262,1.725,1.8072,1.7469,1.7227,1.7511,1.7637,1.7294,1.6522,1.6773,1.6773,1.6522,1.6522,1.6522,1.6522,1.6522,1.6346,1.6057,1.6057,1.5567,1.4828,1.5067,1.4664,1.3875,1.3372,1.267,1.2012,1.2285,1.1797,1.1025,1.1841,1.2434,1.2929,1.3109,1.5545,1.7581,1.7872,1.6571,1.6513,1.9152,2.2602,2.4759,2.4625,2.3566,2.3211,2.412,2.2586,2.1264,2.0577,2.079,2.0308,1.897,1.9779,2.0319,2.0409,1.9594,1.8743,1.7855,1.7004,0.0,0.0,0.0,0.0,0.0,0.0,0.0,0.0,2.102,2.173,2.1066,2.1711,2.137,2.0409,1.9506,1.882,1.8326,1.8222,1.8166,1.8103,1.7883,1.7811,1.7811,1.7811,1.7833,1.7809,1.7452,1.7662,1.8029,1.8223,1.8548,1.8972,1.954,1.969,1.954,1.8957,1.8281,1.7808,1.789,1.6569,1.5763,1.6981,1.5556,1.395,1.3188,1.32,1.3266,1.3124,1.3178,1.3181,1.3031,1.2891,0.0,1.3076,1.4534,1.5393,1.5208,1.5597,1.6001,1.638,1.6824,1.7029,1.6977,1.7618,1.7562,1.6635,1.7049,1.7049,1.6635,1.6559,1.6522,1.6522,1.6522,1.6522,1.6522,1.6522,1.6208,1.5731,1.6208,1.5752,1.4787,1.4864,1.4241,1.3301,1.3313,1.2523,1.1506,1.2485,1.2999,1.332,1.3327,1.6483,1.938,2.0458,2.0341,2.1007,2.3412,2.4355,2.4473,2.3648,2.3343,2.2901,2.2115,2.1623,2.0988,2.0169,2.0066,2.0002,1.9948,2.0061,2.022,2.0399,1.9565,1.8649,1.765,1.6948,0.0,0.0,0.0,0.0,0.0,0.0,0.0,1.9707,2.1457,2.2817,2.3739,2.305,2.25,2.194,2.0517,1.9621,1.9035,1.8412,1.8057,1.7861,1.7811,1.7811,1.7811,1.7811,1.7983,1.8142,1.7813,1.8287,1.8901,1.8679,1.9071,1.954,1.966,1.969,1.966,1.954,1.9082,1.8569,1.8135,1.7437,1.6849,1.6692,1.6179,1.5594,1.5032,1.5854,1.6508,1.6255,1.6355,1.6022,1.4768,1.5394,1.5159,1.3275,1.4163,1.4927,1.5104,1.4746,1.5543,1.7881,1.5655,1.5403,1.7807,1.7157,1.6935,1.7225,1.6861,1.6861,1.7225,1.6748,1.6522,1.6522,1.6522,1.6522,1.6522,1.6522,1.6208,1.5706,1.5806,1.5228,1.4268,1.4736,1.4489,1.3938,1.3893,1.3724,1.3431,1.5271,1.4407,1.3682,1.453,1.744,1.9851,2.0391,2.177,2.2821,2.3055,2.2658,2.2208,2.178,2.2269,2.2393,2.1809,2.1158,2.0738,2.0641,2.0269,2.0135,2.0303,2.0305,2.0346,2.0447,2.0013,1.91,1.7703,1.7354,0.0,0.0,0.0,0.0,1.5228,0.0,1.7139,0.0,2.1026,2.2455,2.3064,2.2849,2.2558,2.2146,2.0802,2.0035,1.9611,1.9252,1.9039,1.8819,1.8065,1.7811,1.7811,1.7811,1.7799,1.778,1.7813,1.8214,1.8667,1.8699,1.9181,1.969,1.969,1.969,1.969,1.969,1.908,1.8419,1.8145,1.7666,1.7249,1.7104,1.6702,1.6382,1.6241,1.6465,1.6752,1.6981,1.6916,1.6647,1.609,1.6047,1.5736,1.4882,1.4968,1.493,1.4644,1.4659,1.5426,1.7136,1.5755,1.5682,1.7363,1.7609,1.7463,1.6936,1.6961,1.6961,1.6936,1.6647,1.6522,1.6522,1.6522,1.6522,1.6522,1.6522,1.6371,1.612,1.612,1.5819,1.5364,1.5636,1.5364,1.4869,1.485,1.4638,1.423,1.7872,1.6466,1.531,1.6535,1.8932,2.0671,2.0581,2.2287,2.3113,2.1782,2.0954,2.0457,2.0304,2.1108,2.1643,2.1644,2.0821,2.0493,2.0976,2.0558,2.0319,2.039,2.0428,2.0465,2.0477,2.0438,1.9627,1.8052,1.7817,1.6932,1.5451,0.0,0.0,1.5721,1.6844,1.7643,1.8297,2.0815,2.2035,2.2246,2.2598,2.2543,2.2124,2.1068,2.0497,2.0221,2.0052,2.0002,1.9816,1.865,1.8166,1.8014,1.7862,1.7719,1.7655,1.7946,1.8263,1.8587,1.8831,1.9286,1.969,1.969,1.969,1.969,1.969,1.8968,1.8263,1.8263,1.7947,1.7611,1.7586,1.7398,1.727,1.728,1.7118,1.7122,1.7514,1.7419,1.732,1.7294,1.6655,1.6284,1.6559,1.6153,1.5565,1.479,1.5022,1.5511,1.6243,1.6045,1.6241,1.6905,1.7787,1.7697,1.6522,1.6974,1.7024,1.6697,1.6572,1.6522,1.6522,1.6522,1.6522,1.6522,1.6522,1.6522,1.6522,1.6522,1.6522,1.6522,1.6522,1.6194,1.5776,1.5632,1.532,1.4733,1.8476,1.9332,1.9767,1.957,2.1645,2.3334,2.3334,2.2533,2.1937,2.1941,2.1878,2.1427,2.0408,2.0408,2.0458,2.0461,2.0361,2.0323,2.0384,2.0331,2.0306,2.0319,2.0315,2.0343,2.041,2.0394,1.9905,1.8892,1.8153,1.7277,1.6276,1.5534,1.5912,1.7196,1.7213,1.8796,2.1483,2.1768,2.2539,2.3536,2.3569,2.3216,2.2555,2.1784,2.1318,2.0974,2.0255,2.0002,1.9985,1.9833,1.9343,1.8674,1.8014,1.8219,1.8677,1.8712,1.9104,1.9581,1.9606,1.963,1.969,1.969,1.969,1.969,1.969,1.9244,1.8817,1.8817,1.8779,1.8517,1.7735,1.8586,1.9159,1.8385,1.9383,2.0065,1.9498,1.9923,1.979,1.8429,1.8362,1.8115,1.7386,1.7418,1.7203,1.6516,1.5846,1.5899,1.6872,1.5955,1.5951,1.7204,1.6626,1.636,1.6509,1.6572,1.6835,1.73,1.6773,1.6522,1.6522,1.6522,1.6522,1.6522,1.6522,1.6522,1.6522,1.6522,1.6522,1.6522,1.6522,1.6466,1.6337,1.582,1.5543,1.5353,2.0535,2.132,2.1889,2.1885,2.2881,2.347,2.2842,2.2142,2.1522,2.103,2.1004,2.0878,2.0413,2.0355,2.0352,2.036,2.036,2.0332,2.0292,2.0306,2.0296,2.0307,2.088,2.1216,2.1243,2.124,2.0795,1.9899,1.9003,1.8125,1.7238,1.7289,1.7795,1.8708,1.9609,2.0704,2.1889,2.2666,2.3258,2.3671,2.3312,2.2982,2.2635,2.2184,2.1946,2.182,2.1515,2.137,2.1302,2.0873,2.0196,1.9519,1.9208,1.8722,1.8403,1.9206,1.8996,1.8687,1.9465,1.939,1.9196,1.9585,1.939,1.9196,1.96,1.9281,1.8893,1.8893,1.8893,1.878,1.8352,1.8737,1.9101,1.9179,1.9349,1.9555,1.9675,1.9929,1.9863,1.9254,1.8922,1.8563,1.8208,1.7888,1.7724,1.7726,1.6718,1.6094,1.6101,1.642,1.6892,1.7506,1.765,1.7686,1.757,1.7231,1.6974,1.6861,1.6635,1.6522,1.6522,1.6522,1.6522,1.6522,1.6522,1.6522,1.6522,1.6522,1.6522,1.6522,1.6522,1.6522,1.6466,1.6238,1.6139,1.6008,2.234,2.2804,2.3175,2.3458,2.3501,2.3159,2.2144,2.1632,2.1136,2.0461,2.0432,2.0441,2.0395,2.041,2.0385,2.0377,2.0371,2.0347,2.0299,2.0296,2.0299,2.0322,2.1023,2.1544,2.1798,2.1816,2.1626,2.1243,2.0301,1.9546,1.8919,1.9014,1.9458,2.0255,2.1361,2.2109,2.2575,2.3365,2.3631,2.3522,2.2982,2.2695,2.2563,2.236,2.231,2.231,2.231,2.231,2.2226,2.1701,2.1046,2.0351,1.9739,1.9065,1.8623,1.9227,1.8886,1.8463,1.9196,1.9061,1.8777,1.9031,1.8897,1.8822,1.9286,1.9125,1.8797,1.8571,1.8564,1.8563,1.8678,1.8702,1.8927,1.957,1.9286,1.9151,1.9615,1.969,1.9615,1.9349,1.8952,1.8668,1.8614,1.825,1.8142,1.848,1.8007,1.7415,1.6654,1.7684,1.8279,1.8127,1.8573,1.8559,1.806,1.7632,1.7087,1.6522,1.6522,1.6522,1.6522,1.6522,1.6522,1.6522,1.6522,1.6522,1.6522,1.6522,1.6522,1.6522,1.6522,1.6522,1.6522,1.6522,1.638,1.6194,2.3465,2.3752,2.3879,2.4145,2.3525,2.2707,2.1837,2.1076,2.0605,2.0605,2.0605,2.0541,2.0402,2.041,2.0366,2.0319,2.0307,2.0307,2.0307,2.0307,2.0322,2.0406,2.0472,2.0918,2.1778,2.1854,2.2255,2.2963,2.2107,2.1624,2.1533,2.0411,2.0589,2.1874,2.1817,2.2666,2.4152,2.3837,2.3522,2.3165,2.2848,2.2537,2.231,2.231,2.231,2.231,2.231,2.231,2.231,2.2293,2.1969,2.1217,1.9075,1.9086,1.9654,1.8547,1.89,1.9525,1.8897,1.8717,1.8553,1.7876,1.8223,1.8702,1.8717,1.8717,1.8489,1.7847,1.7712,1.7906,1.8583,1.8702,1.8927,1.957,1.9675,1.9675,1.969,1.969,1.9379,1.8508,1.8579,1.8599,1.842,1.8565,1.8687,1.8702,1.9914,2.0251,1.9317,1.9897,1.9894,1.9116,1.8768,1.8271,1.7529,1.7439,1.7087,1.6522,1.6522,1.6522,1.6522,1.6522,1.6522,1.6522,1.6522,1.6522,1.6522,1.6522,1.6522,1.6522,1.6522,1.6522,1.6522,1.6522,1.6139,1.5632,2.4786,2.4428,2.4309,2.5024,2.3501,2.2299,2.26,2.1498,2.0585,2.054,2.0527,2.0525,2.0541,2.0539,2.0511,2.0438,2.0435,2.0422,2.0366,2.0418,2.0429,2.0391,2.1077,2.1557,2.1798,2.2401,2.2832,2.3062,2.2703,2.2647,2.2871,2.2378,2.2616,2.3474,2.3437,2.3712,2.417,2.3837,2.3522,2.3165,2.2848,2.2537,2.231,2.231,2.231,2.231,2.231,2.231,2.2237,2.1928,2.1718,2.1324,1.9617,1.9311,1.9499,1.9106,1.8675,1.8298,1.8089,1.7667,1.7399,1.7637,1.7847,1.8149,1.8612,1.8702,1.8388,1.7249,1.7384,1.7757,1.7999,1.8403,1.8927,1.957,1.969,1.969,1.969,1.9945,1.9889,1.9355,1.9851,2.0104,1.9733,2.0491,2.067,1.9832,2.0696,2.0117,1.753,1.9834,2.0665,1.9339,2.0198,2.0454,1.9809,1.8972,1.8068,1.7099,1.671,1.6522,1.6522,1.6522,1.6522,1.6522,1.6522,1.6522,1.6522,1.6522,1.6522,1.6522,1.6522,1.6522,1.6522,1.6522,1.638,1.6194,2.5471,2.5046,2.4689,2.4659,2.3354,2.224,2.2149,2.1249,2.0566,2.0541,2.0525,2.0536,2.0586,2.0605,2.0565,2.051,2.0508,2.048,2.0438,2.0477,2.049,2.0433,2.1348,2.199,2.2245,2.3081,2.3653,2.3965,2.377,2.379,2.3983,2.3793,2.3875,2.419,2.419,2.419,2.417,2.3837,2.3522,2.3165,2.2848,2.2537,2.231,2.231,2.231,2.231,2.231,2.231,2.2237,2.1764,2.1491,2.1194,2.0064,1.9626,1.9461,1.9201,1.8818,1.8343,1.7832,1.7399,1.7055,1.7012,1.7176,1.7428,1.7832,1.8149,1.7969,1.6622,1.6876,1.7399,1.7637,1.8268,1.8927,1.957,1.969,1.9747,1.9894,2.0158,2.0246,2.0139,2.0649,2.0878,2.0501,2.1499,2.1738,2.0767,2.1636,2.1111,1.8584,2.0535,2.1371,2.0659,2.1582,2.1698,2.0922,1.971,1.8511,1.7344,1.6771,1.6522,1.6522,1.6522,1.6522,1.6522,1.6522,1.6522,1.6522,1.6522,1.6522,1.6522,1.6522,1.6522,1.6522,1.6522,1.6522,1.6522,2.5567,2.5457,2.4877,2.3437,2.3047,2.24,2.0824,2.0546,2.0536,2.0585,2.0539,2.0515,2.0585,2.0585,2.0566,2.0497,2.0494,2.0494,2.0494,2.0495,2.0487,2.0488,2.134,2.2143,2.2881,2.3748,2.458,2.5372,2.5116,2.493,2.4775,2.4559,2.4375,2.419,2.419,2.419,2.417,2.3876,2.3522,2.3165,2.2873,2.2563,2.231,2.231,2.231,2.231,2.231,2.231,2.2209,2.1735,2.1306,2.0926,2.0416,2.0,1.9555,1.8897,1.9136,1.9331,1.7981,1.7623,1.7356,1.6113,1.6263,1.6712,1.6712,1.7219,1.7371,1.6128,1.6353,1.698,1.7637,1.8298,1.8981,1.9641,1.9782,1.9909,2.028,2.0382,2.0516,2.0861,2.1103,2.1199,2.1038,2.181,2.2079,2.1393,2.259,2.284,2.1764,2.1695,2.1994,2.2694,2.2747,2.2177,2.105,1.9836,1.8601,1.7295,1.6854,1.6609,1.6572,1.6572,1.6572,1.6572,1.6534,1.6522,1.6522,1.6522,1.6522,1.6522,1.6522,1.6522,1.6522,1.6522,1.6522,1.6522,2.5461,2.4557,2.3765,2.4041,2.2479,2.1269,2.1461,2.0974,2.0564,2.0537,2.0472,2.0444,2.0513,2.0432,2.0387,2.0414,2.0474,2.0502,2.0502,2.0449,2.0428,2.0429,2.1259,2.1815,2.2001,2.3397,2.4447,2.5094,2.4943,2.4756,2.4578,2.4357,2.4247,2.419,2.419,2.419,2.419,2.4132,2.3735,2.3189,2.3117,2.2773,2.231,2.231,2.231,2.231,2.231,2.231,2.218,2.1415,2.1086,2.0862,2.007,1.9782,1.9555,1.8897,1.8807,1.8642,1.7294,1.695,1.6741,1.5993,1.6263,1.6712,1.6712,1.7219,1.7458,1.6652,1.701,1.7652,1.8343,1.89,1.9439,2.0051,2.0465,2.0731,2.0829,2.1102,2.1422,2.1744,2.2421,2.2948,2.3162,2.3634,2.3389,2.2013,2.2216,2.2207,2.1719,2.1695,2.1994,2.2694,2.3137,2.3054,2.2307,2.1094,1.9405,1.7384,1.7647,1.7589,1.7174,1.7174,1.7174,1.7149,1.671,1.6522,1.6522,1.6522,1.6522,1.6522,1.6522,1.6522,1.6522,1.6522,1.6522,1.6522,2.4874,2.4315,2.3828,2.4274,2.3241,2.2341,2.2344,2.163,2.1091,2.1051,2.0636,2.0374,2.0441,2.0383,2.0357,2.0406,2.0432,2.0447,2.0447,2.0425,2.0554,2.0929,2.1779,2.2422,2.2792,2.4011,2.4764,2.501,2.4766,2.4607,2.4495,2.4284,2.419,2.419,2.419,2.419,2.419,2.4054,2.3671,2.3189,2.3045,2.2695,2.231,2.231,2.231,2.231,2.231,2.2163,2.1869,2.1229,2.0862,2.0565,1.9925,1.969,1.9555,1.8897,1.8702,1.8478,1.7428,1.6936,1.6622,1.6293,1.6804,1.7348,1.7176,1.7667,1.7984,1.7294,1.7682,1.8335,1.8897,1.9454,1.9978,2.0536,2.0575,2.0716,2.1195,2.1538,2.2068,2.3093,2.3907,2.4467,2.4661,2.4996,2.4447,2.2694,2.2925,2.2854,2.2169,2.2413,2.2727,2.3086,2.343,2.3331,2.2702,2.1221,1.9696,1.8171,1.8181,1.8053,1.7765,1.7765,1.7614,1.7363,1.7049,1.676,1.6522,1.6522,1.6522,1.6547,1.681,1.6911,1.6936,1.72,1.7287,1.7287,2.4394,2.4492,2.4374,2.4321,2.4252,2.3937,2.3119,2.2371,2.185,2.1696,2.1103,2.0665,2.0584,2.0696,2.0769,2.0769,2.0769,2.0716,2.0588,2.056,2.0939,2.1739,2.2629,2.3404,2.4091,2.4851,2.5141,2.4917,2.4651,2.4478,2.4444,2.4284,2.419,2.419,2.419,2.419,2.417,2.3837,2.3522,2.3165,2.2848,2.2537,2.231,2.231,2.231,2.231,2.231,2.2032,2.1628,2.115,2.0731,2.0314,1.9909,1.9707,1.9542,1.9144,1.8906,1.857,1.7745,1.713,1.6712,1.6712,1.7409,1.8037,1.7779,1.8223,1.8553,1.7984,1.8422,1.9076,1.9476,2.0075,2.0649,2.1023,2.0663,2.0665,2.1576,2.1906,2.2638,2.4306,2.5152,2.5642,2.5761,2.5796,2.5157,2.3538,2.392,2.3805,2.2873,2.331,2.3595,2.3595,2.3595,2.3298,2.2691,2.1126,1.9959,1.9218,1.8793,1.85,1.8329,1.8329,1.8078,1.7626,1.7539,1.7225,1.6773,1.6773,1.6773,1.6823,1.7313,1.7501,1.7564,1.8028,1.8204,1.8204,2.5176,2.4902,2.4394,2.4394,2.3782,2.3232,2.3026,2.2892,2.2503,2.1725,2.2133,2.2224,2.1487,2.2021,2.2439,2.2439,2.2439,2.2142,2.1462,2.1364,2.1718,2.2588,2.3454,2.3974,2.411,2.472,2.4885,2.4591,2.4528,2.4428,2.4247,2.4209,2.419,2.419,2.419,2.419,2.417,2.3837,2.3522,2.3165,2.2848,2.2537,2.231,2.231,2.231,2.231,2.231,2.2237,2.2077,2.126,2.0959,2.0797,2.0348,1.9774,1.9454,2.0366,1.9798,1.8572,1.7212,1.6786,1.6712,1.6712,1.7221,1.7779,1.7715,1.8223,1.8672,1.8568,1.9356,2.0058,2.0159,2.0831,2.143,2.1491,2.177,2.2,2.2163,2.2748,2.3498,2.4374,2.5152,2.5845,2.6471,2.5578,2.4974,2.4868,2.3991,2.3448,2.3473,2.355,2.3595,2.3595,2.3595,2.3333,2.27,2.2405,2.1443,1.984,2.0197,1.9855,1.8894,1.8894,1.8857,1.8744,1.8279,1.8028,1.794,1.794,1.794,1.7953,1.8041,1.8078,1.8091,1.8179,1.8204,1.8204,2.4668,2.4551,2.4354,2.49,2.4695,2.4409,2.4251,2.3896,2.3476,2.301,2.2887,2.2694,2.2288,2.2577,2.2793,2.2793,2.2793,2.2838,2.2937,2.2029,2.1889,2.2754,2.3186,2.3765,2.4577,2.4669,2.4648,2.4495,2.4393,2.4284,2.419,2.419,2.419,2.419,2.4016,2.3917,2.3896,2.3392,2.3069,2.2898,2.2616,2.2398,2.231,2.231,2.231,2.231,2.231,2.2135,2.1869,2.1477,2.0908,2.0448,2.0605,2.016,1.9673,2.0288,1.986,1.8935,1.79,1.7547,1.7562,1.7732,1.8145,1.8561,1.8736,1.9016,1.9296,1.9508,1.9977,2.0434,2.0894,2.1321,2.1804,2.2475,2.2456,2.2632,2.3376,2.3841,2.4364,2.5,2.5744,2.6336,2.6657,2.5667,2.5056,2.5189,2.411,2.3477,2.358,2.3595,2.3595,2.3595,2.3595,2.3465,2.3201,2.2875,2.2264,2.143,2.1005,2.0515,1.9984,1.9598,1.9296,1.902,1.8756,1.848,1.8204,1.8204,1.8204,1.8242,1.853,1.8643,1.8681,1.8957,1.9058,1.9058,2.4354,2.451,2.4601,2.5371,2.5522,2.5507,2.5348,2.4833,2.4366,2.4119,2.3678,2.3312,2.312,2.3274,2.337,2.337,2.337,2.3649,2.4274,2.2882,2.2325,2.3007,2.2997,2.349,2.4575,2.4542,2.4478,2.4426,2.4284,2.419,2.419,2.419,2.419,2.419,2.3837,2.3692,2.3671,2.2996,2.2695,2.2669,2.2398,2.231,2.231,2.231,2.231,2.231,2.231,2.2077,2.1764,2.1658,2.101,2.0395,2.0957,2.0635,2.0104,2.0432,2.0238,1.9704,1.8793,1.8408,1.8403,1.8755,1.9098,1.9409,1.9768,1.9839,1.998,2.0398,2.066,2.1068,2.1737,2.2098,2.2565,2.3515,2.3226,2.3323,2.4591,2.4839,2.5128,2.5778,2.6353,2.6657,2.6556,2.5709,2.5144,2.5012,2.4158,2.3595,2.3595,2.3595,2.3595,2.3595,2.3595,2.3595,2.3595,2.3143,2.2844,2.2694,2.1704,2.1091,2.0795,2.0258,1.9725,1.9208,1.9208,1.897,1.8581,1.8581,1.8581,1.8618,1.9045,1.9208,1.9258,1.966,1.9798,1.9798,2.5199,2.5508,2.5495,2.5503,2.5459,2.542,2.5391,2.529,2.4957,2.4206,2.4697,2.4832,2.4091,2.4678,2.5111,2.5111,2.5111,2.506,2.4939,2.4114,2.3667,2.3709,2.355,2.3441,2.3422,2.4137,2.441,2.4228,2.4209,2.419,2.419,2.419,2.419,2.419,2.3837,2.3692,2.3671,2.2996,2.2695,2.2669,2.2398,2.231,2.231,2.231,2.231,2.231,2.231,2.2282,2.218,2.1764,2.1549,2.1486,2.1535,2.1059,2.0673,2.1792,2.1786,2.1068,1.9405,1.8812,1.8763,1.924,1.9497,1.9793,2.0177,2.0246,2.0382,2.0862,2.1778,2.2552,2.26,2.3524,2.434,2.4391,2.4388,2.4625,2.5423,2.5524,2.5795,2.6522,2.6657,2.6521,2.6068,2.554,2.4973,2.4511,2.3921,2.3595,2.3595,2.3595,2.3595,2.3595,2.3595,2.3595,2.3595,2.3551,2.3246,2.2694,2.2603,2.1941,2.0795,2.0759,2.0383,1.9748,1.9748,1.9723,1.9685,1.9685,1.9685,1.9685,1.9723,1.9748,1.9748,1.9786,1.9798,1.9798,2.5369,2.5566,2.5512,2.5453,2.5383,2.5339,2.5339,2.5322,2.5187,2.4889,2.512,2.5168,2.4889,2.512,2.5253,2.5111,2.5111,2.5041,2.4896,2.4598,2.4182,2.3651,2.3422,2.3534,2.4027,2.4227,2.4266,2.419,2.419,2.419,2.419,2.419,2.4094,2.3876,2.3544,2.3259,2.3045,2.2616,2.2436,2.2436,2.2349,2.231,2.231,2.231,2.231,2.231,2.231,2.231,2.2282,2.2106,2.173,2.1429,2.1881,2.153,2.1116,2.2018,2.1974,2.1526,2.1159,2.0383,1.9808,2.0287,2.0244,2.0193,2.0616,2.0715,2.0862,2.1275,2.2079,2.2777,2.3073,2.4264,2.5169,2.5169,2.5947,2.664,2.6928,2.7385,2.7791,2.8078,2.7791,2.7516,2.7311,2.647,2.5846,2.5675,2.4758,2.4238,2.4238,2.3834,2.3595,2.3595,2.3595,2.3595,2.3595,2.3595,2.3465,2.3246,2.3281,2.3083,2.2546,2.1776,2.1475,2.1536,2.0348,2.0055,2.0396,1.9952,1.9798,1.9798,1.9798,1.9798,1.9798,1.9798,1.9798,1.9798,2.5371,2.5502,2.5439,2.5387,2.533,2.5303,2.5303,2.5303,2.5303,2.5303,2.5303,2.5274,2.5214,2.5214,2.513,2.4949,2.4943,2.4877,2.4716,2.4639,2.4248,2.3483,2.3249,2.3412,2.4021,2.4137,2.419,2.419,2.419,2.419,2.419,2.419,2.4016,2.3692,2.3346,2.3021,2.2669,2.2398,2.231,2.231,2.231,2.231,2.231,2.231,2.231,2.231,2.231,2.231,2.231,2.231,2.1972,2.1634,2.2141,2.1955,2.1634,2.2158,2.2061,2.1899,2.2209,2.1538,2.0781,2.1118,2.0846,2.0649,2.1086,2.1359,2.1663,2.2096,2.295,2.371,2.4008,2.5304,2.6302,2.6302,2.7368,2.8264,2.8501,2.8789,2.9022,2.9038,2.8495,2.7977,2.7599,2.6844,2.6348,2.6168,2.5395,2.4881,2.4881,2.4298,2.4014,2.4223,2.4223,2.4223,2.4223,2.4029,2.4029,2.4238,2.4261,2.4185,2.398,2.3089,2.2825,2.2962,2.1584,2.1171,2.1336,2.0875,2.0524,2.0326,2.0326,2.0326,2.0313,2.0137,2.0075,2.0075,2.5233,2.5394,2.5376,2.5313,2.5303,2.5303,2.5303,2.5303,2.5303,2.5303,2.5303,2.5214,2.5022,2.501,2.4937,2.4818,2.4804,2.4716,2.4512,2.4321,2.3934,2.3321,2.3122,2.3015,2.3015,2.3786,2.419,2.419,2.419,2.419,2.419,2.4208,2.4016,2.3692,2.3346,2.3021,2.2669,2.2398,2.231,2.231,2.231,2.231,2.231,2.231,2.231,2.231,2.231,2.231,2.231,2.231,2.231,2.231,2.231,2.231,2.231,2.231,2.231,2.231,2.231,2.1974,2.1628,2.1628,2.1323,2.1134,2.1538,2.2172,2.2855,2.3304,2.4577,2.5609,2.5609,2.6843,2.7806,2.7806,2.8484,2.9262,3.0006,2.9465,2.9059,2.9204,2.854,2.7656,2.6525,2.6392,2.6183,2.5676,2.5615,2.5615,2.5615,2.494,2.4881,2.5585,2.5615,2.5615,2.5615,2.4956,2.4956,2.5615,2.5615,2.5301,2.4693,2.4693,2.4319,2.3701,2.3701,2.3289,2.2618,2.2631,2.2159,2.1493,2.1493,2.1493,2.143,2.092,2.0718,2.0718,2.5355,2.5371,2.5312,2.5293,2.5303,2.5303,2.5303,2.5303,2.5253,2.5099,2.5088,2.503,2.4883,2.4869,2.4785,2.4607,2.4575,2.4512,2.4303,2.4228,2.4118,2.3934,2.386,2.3841,2.3841,2.408,2.419,2.419,2.419,2.419,2.419,2.3976,2.3671,2.3346,2.2996,2.2704,2.2398,2.2321,2.231,2.231,2.231,2.231,2.231,2.231,2.231,2.231,2.231,2.231,2.231,2.231,2.231,2.231,2.231,2.231,2.231,2.231,2.231,2.231,2.231,2.2579,2.2744,2.2224,2.2145,2.2307,2.2755,2.3446,2.3998,2.4154,2.5338,2.637,2.637,2.8044,2.9245,2.8721,2.9702,3.0429,3.0142,3.0001,2.9914,2.9947,2.9042,2.8261,2.7907,2.7481,2.7173,2.704,2.6557,2.6093,2.563,2.542,2.5405,2.56,2.5615,2.5839,2.6303,2.5644,2.542,2.5615,2.6078,2.6191,2.6031,2.5558,2.5212,2.4985,2.412,2.3261,2.26,2.2604,2.2159,2.1493,2.1493,2.1493,2.143,2.092,2.0718,2.0655,2.5363,2.5321,2.5303,2.5303,2.5224,2.5173,2.5173,2.5149,2.5049,2.4943,2.493,2.4864,2.47,2.47,2.4623,2.441,2.4375,2.4339,2.4209,2.419,2.419,2.419,2.419,2.419,2.419,2.419,2.419,2.419,2.4074,2.3996,2.3996,2.3671,2.3305,2.2996,2.2797,2.2563,2.231,2.231,2.231,2.231,2.231,2.231,2.231,2.231,2.231,2.231,2.231,2.231,2.231,2.231,2.231,2.231,2.231,2.231,2.231,2.231,2.2513,2.275,2.275,2.3274,2.3714,2.3274,2.3281,2.3491,2.3786,2.4408,2.4932,2.4932,2.6116,2.7148,2.7148,2.8772,2.9956,2.9499,3.0429,3.096,3.0291,3.0253,3.0123,2.9629,2.8966,2.8431,2.8189,2.781,2.7625,2.7625,2.6961,2.6527,2.6393,2.6138,2.6123,2.6378,2.6378,2.6572,2.6976,2.6572,2.6378,2.6393,2.6782,2.6976,2.6976,2.6598,2.6376,2.6329,2.5596,2.4643,2.3716,2.3716,2.3113,2.2133,2.2133,2.2133,2.2046,2.128,2.0991,2.0903,2.5303,2.5303,2.5303,2.5303,2.5122,2.501,2.501,2.4877,2.479,2.4775,2.4775,2.47,2.4495,2.4528,2.4462,2.4228,2.419,2.419,2.419,2.419,2.419,2.419,2.419,2.419,2.4151,2.417,2.419,2.4151,2.3837,2.3692,2.3649,2.3323,2.2996,2.2695,2.2669,2.2527,2.231,2.231,2.231,2.231,2.231,2.231,2.231,2.231,2.231,2.231,2.231,2.231,2.231,2.231,2.2344,2.2412,2.2412,2.2446,2.2513,2.2513,2.297,2.3494,2.3494,2.4036,2.4625,2.4692,2.476,2.4746,2.4642,2.522,2.5812,2.5812,2.6979,2.7992,2.7992,2.9228,3.0209,3.0209,3.0768,3.1015,3.0393,3.0251,2.9805,2.8654,2.8463,2.822,2.775,2.776,2.7775,2.7715,2.7111,2.7006,2.7595,2.7006,2.6961,2.7595,2.7625,2.7625,2.7625,2.7625,2.7625,2.7625,2.7625,2.7625,2.7625,2.7625,2.7595,2.7485,2.7494,2.6663,2.5315,2.5315,2.4439,2.3078,2.3078,2.3078,2.3012,2.1945,2.1556,2.1481,2.5303,2.5303,2.5303,2.5303,2.5122,2.501,2.501,2.4877,2.4746,2.4594,2.461,2.4545,2.4284,2.4284,2.4247,2.4208,2.419,2.419,2.419,2.419,2.419,2.419,2.419,2.4074,2.3816,2.4074,2.4074,2.3816,2.3753,2.3566,2.33,2.2972,2.2772,2.2695,2.2473,2.2332,2.231,2.231,2.231,2.231,2.231,2.231,2.231,2.231,2.231,2.231,2.231,2.231,2.231,2.231,2.2682,2.3156,2.3156,2.3562,2.4002,2.4002,2.415,2.4269,2.4269,2.4797,2.5507,2.6065,2.6657,2.6793,2.5625,2.6387,2.7299,2.7299,2.8552,2.9617,2.9617,3.0362,3.0954,3.0954,3.1089,3.1015,3.0393,2.9892,2.9316,2.8606,2.8091,2.7971,2.8323,2.8846,2.8936,2.8412,2.8248,2.7993,2.764,2.749,2.7475,2.7625,2.7625,2.7625,2.7625,2.7625,2.7625,2.7625,2.7625,2.7625,2.7625,2.7625,2.729,2.6826,2.6762,2.593,2.4585,2.4536,2.4002,2.3078,2.3078,2.3078,2.299,2.2385,2.2133,2.2058,2.5303,2.5224,2.5152,2.5152,2.4943,2.4747,2.4747,2.462,2.4478,2.4375,2.4375,2.4358,2.4209,2.419,2.419,2.419,2.419,2.419,2.419,2.419,2.419,2.419,2.4054,2.3876,2.3692,2.3714,2.3649,2.3459,2.33,2.3141,2.2947,2.2652,2.25,2.25,2.236,2.231,2.231,2.231,2.231,2.231,2.231,2.231,2.2344,2.2699,2.2835,2.2835,2.2835,2.2835,2.2885,2.3224,2.3596,2.3917,2.3917,2.4201,2.4506,2.4506,2.5014,2.5456,2.5118,2.5828,2.6759,2.7131,2.752,2.7723,2.7317,2.7824,2.8383,2.8383,2.9296,3.0108,3.0108,3.07,3.1309,3.1664,3.1427,3.0996,3.0479,3.0084,2.9548,2.8629,2.8529,2.8667,2.9026,2.9385,2.943,2.9086,2.9071,2.8906,2.8547,2.8532,2.8532,2.8532,2.8532,2.8532,2.8532,2.8218,2.8068,2.8053,2.7724,2.7625,2.7625,2.7625,2.738,2.7081,2.668,2.587,2.4874,2.4433,2.3826,2.3078,2.3078,2.3305,2.3585,2.3007,2.2678,2.2352,2.5446,2.5203,2.4962,2.4962,2.4821,2.47,2.47,2.4654,2.4612,2.4612,2.4373,2.419,2.419,2.419,2.419,2.419,2.419,2.419,2.419,2.419,2.417,2.4132,2.3837,2.3649,2.3522,2.3378,2.3259,2.3117,2.2848,2.2669,2.2634,2.2398,2.231,2.231,2.231,2.231,2.231,2.2446,2.2429,2.2327,2.2446,2.2496,2.2564,2.3173,2.3477,2.3579,2.3579,2.3579,2.3663,2.4272,2.4591,2.4678,2.4678,2.4763,2.4881,2.5017,2.5913,2.6776,2.6319,2.708,2.8061,2.8144,2.8178,2.8416,2.9194,2.9262,2.9178,2.9178,2.977,3.0294,3.0294,3.0707,3.1291,3.2015,3.1547,3.0907,3.0557,3.0434,3.0033,2.8914,2.934,2.9744,2.9744,2.9849,2.9864,2.9744,2.9744,2.9699,2.9594,2.9579,2.9579,2.9579,2.9579,2.9579,2.9579,2.9041,2.8771,2.8757,2.8188,2.785,2.7625,2.7625,2.7625,2.756,2.6826,2.6176,2.5508,2.4794,2.4105,2.3471,2.3471,2.3872,2.4456,2.395,2.3336,2.2682,2.6027,2.5443,2.4832,2.4832,2.5204,2.5539,2.5539,2.5965,2.6282,2.6282,2.5052,2.419,2.419,2.419,2.419,2.419,2.419,2.419,2.419,2.419,2.4074,2.3774,2.3714,2.3414,2.2848,2.3467,2.3458,2.2772,2.2721,2.2573,2.2332,2.2338,2.231,2.231,2.231,2.231,2.2344,2.2987,2.2885,2.2361,2.2987,2.3241,2.3257,2.3359,2.3799,2.4371,2.4371,2.4371,2.4388,2.4472,2.4915,2.5456,2.5456,2.5879,2.6522,2.7182,2.7503,2.7791,2.8366,2.867,2.8975,2.9634,2.9803,2.9989,3.0717,3.0412,2.9956,2.9956,3.0531,3.1055,3.1055,3.073,3.0625,3.1292,3.0912,3.0511,3.0495,3.0503,3.0212,2.9552,2.9998,3.0372,3.0372,3.0911,3.1016,3.0417,3.0372,3.0148,2.9609,2.9579,2.9579,2.9579,2.9579,2.9579,2.9579,2.949,2.9445,2.9445,2.9355,2.8697,2.7625,2.7625,2.7625,2.756,2.6826,2.6457,2.6283,2.5563,2.5175,2.5063,2.5063,2.5175,2.5217,2.5135,2.4324,2.3342,2.5403,2.5382,2.53,2.53,2.5801,2.6205,2.6205,2.6436,2.6612,2.6612,2.5731,2.4869,2.4263,2.4997,2.5419,2.5126,2.5089,2.4832,2.4245,2.4415,2.4465,2.4316,2.4384,2.4287,2.3994,2.415,2.4064,2.3705,2.3294,2.3039,2.2919,2.2496,2.231,2.2327,2.2733,2.2919,2.297,2.3697,2.3816,2.3562,2.3866,2.4002,2.4052,2.4475,2.4831,2.522,2.6048,2.5812,2.5304,2.6573,2.6928,2.6928,2.7351,2.7706,2.8044,2.8366,2.8772,2.9076,2.9008,2.9583,3.0192,3.0125,3.0717,3.141,3.1732,3.1884,3.1833,3.141,3.1579,3.1935,3.2357,3.1933,3.1698,3.2406,3.1625,3.1005,3.1125,3.1047,3.0937,3.0683,3.0911,3.1076,3.1076,3.136,3.1347,3.1106,3.1076,3.0956,3.0687,3.0672,3.0672,3.0672,3.0672,3.0672,3.0672,3.0298,3.0103,3.0088,2.9744,2.9071,2.8158,2.8532,2.8329,2.759,2.7205,2.6841,2.6457,2.5673,2.5398,2.5398,2.5398,2.5398,2.5398,2.5398,2.4774,2.3879]}]]